[[{"header":{"parameterUnit":"m.s-1","parameterCategory":1,"la1":30.6,"la2":28.766,"lo1":-90.7593,"lo2":-88.6598,"dx":0.0162,"dy":0.0183,"nx":116,"ny":114,"refTime":"2023-01-29T18:00:00:Z","depth":0,"parameterNumber":2,"parameterNumberName":"U-component_of_WINDS"},"data":[0.0,0.0,0.0,0.0,0.0,0.0,0.0,0.0,0.0,0.0,0.0,0.0,0.0,0.0,0.0,0.0,0.0,0.0,0.0,0.0,0.0,0.0,0.0,0.0,0.0,0.0,0.0,0.0,0.0,0.0,0.0,0.0,0.0,0.0,0.0,0.0,0.0,0.0,0.0,0.0,0.0,0.0,0.0,0.0,0.0,0.0,0.0,0.0,0.0,0.0,0.0,0.0,0.0,0.0,0.0,0.0,0.0,0.0,0.0,0.0,0.0,0.0,0.0,0.0,0.0,0.0,0.0,0.0,0.0,0.0,0.0,0.0,0.0,0.0,0.0,0.0,0.0,0.0,0.0,0.0,0.0,0.0,0.0,0.0,0.0,0.0,0.0,0.0,0.0,0.0,0.0,0.0,0.0,0.0,0.0,0.0,0.0,0.0,0.0,0.0,0.0,0.0,0.0,0.0,0.0,0.0,0.0,0.0,0.0,0.0,0.0,0.0,0.0,0.0,0.0,0.0,0.0,0.0,0.0,0.0,0.0,0.0,0.0,0.0,0.0,0.0,0.0,0.0,0.0,0.0,0.0,0.0,0.0,0.0,0.0,0.0,0.0,0.0,0.0,0.0,0.0,0.0,0.0,0.0,0.0,0.0,0.0,0.0,0.0,0.0,0.0,0.0,0.0,0.0,0.0,0.0,0.0,0.0,0.0,0.0,0.0,0.0,0.0,0.0,0.0,0.0,0.0,0.0,0.0,0.0,0.0,0.0,0.0,0.0,0.0,0.0,0.0,0.0,0.0,0.0,0.0,0.0,0.0,0.0,0.0,0.0,0.0,0.0,0.0,0.0,0.0,0.0,0.0,0.0,0.0,0.0,0.0,0.0,0.0,0.0,0.0,0.0,0.0,0.0,0.0,0.0,0.0,0.0,0.0,0.0,0.0,0.0,0.0,0.0,0.0,0.0,0.0,0.0,0.0,0.0,0.0,0.0,0.0,0.0,0.0,0.0,0.0,0.0,0.0,0.0,0.0,0.0,0.0,0.0,0.0,0.0,0.0,0.0,0.0,0.0,0.0,0.0,0.0,0.0,0.0,0.0,0.0,0.0,0.0,0.0,0.0,0.0,0.0,0.0,0.0,0.0,0.0,0.0,0.0,0.0,0.0,0.0,0.0,0.0,0.0,0.0,0.0,0.0,0.0,0.0,0.0,0.0,0.0,0.0,0.0,0.0,0.0,0.0,0.0,0.0,0.0,0.0,0.0,0.0,0.0,0.0,0.0,0.0,0.0,0.0,0.0,0.0,0.0,0.0,0.0,0.0,0.0,0.0,0.0,0.0,0.0,0.0,0.0,0.0,0.0,0.0,0.0,0.0,0.0,0.0,0.0,0.0,0.0,0.0,0.0,0.0,0.0,0.0,0.0,0.0,0.0,0.0,0.0,0.0,0.0,0.0,0.0,0.0,0.0,0.0,0.0,0.0,0.0,0.0,0.0,0.0,0.0,0.0,0.0,0.0,0.0,0.0,0.0,0.0,0.0,0.0,0.0,0.0,0.0,0.0,0.0,0.0,0.0,0.0,0.0,0.0,0.0,0.0,0.0,0.0,0.0,0.0,0.0,0.0,0.0,0.0,0.0,0.0,0.0,0.0,0.0,0.0,0.0,0.0,0.0,0.0,0.0,0.0,0.0,0.0,0.0,0.0,0.0,0.0,0.0,0.0,0.0,0.0,0.0,0.0,0.0,0.0,0.0,0.0,0.0,0.0,0.0,0.0,0.0,0.0,0.0,0.0,0.0,0.0,0.0,0.0,0.0,0.0,0.0,0.0,0.0,0.0,0.0,0.0,0.0,0.0,0.0,0.0,0.0,0.0,0.0,0.0,0.0,0.0,0.0,0.0,0.0,0.0,0.0,0.0,0.0,0.0,0.0,0.0,0.0,0.0,0.0,0.0,0.0,0.0,0.0,0.0,0.0,0.0,0.0,0.0,0.0,0.0,0.0,0.0,0.0,0.0,0.0,0.0,0.0,0.0,0.0,0.0,0.0,0.0,0.0,0.0,0.0,0.0,0.0,0.0,0.0,0.0,0.0,0.0,0.0,0.0,0.0,0.0,0.0,0.0,0.0,0.0,0.0,0.0,0.0,0.0,0.0,0.0,0.0,0.0,0.0,0.0,0.0,0.0,0.0,0.0,0.0,0.0,0.0,0.0,0.0,0.0,0.0,0.0,0.0,0.0,0.0,0.0,0.0,0.0,0.0,0.0,0.0,0.0,0.0,0.0,0.0,0.0,0.0,0.0,0.0,0.0,0.0,0.0,0.0,0.0,0.0,0.0,0.0,0.0,0.0,0.0,0.0,0.0,0.0,0.0,0.0,0.0,0.0,0.0,0.0,0.0,0.0,0.0,0.0,0.0,0.0,0.0,0.0,0.0,0.0,0.0,0.0,0.0,0.0,0.0,0.0,0.0,0.0,0.0,0.0,0.0,0.0,0.0,0.0,0.0,0.0,0.0,0.0,0.0,0.0,0.0,0.0,0.0,0.0,0.0,0.0,0.0,0.0,0.0,0.0,0.0,0.0,0.0,0.0,0.0,0.0,0.0,0.0,0.0,0.0,0.0,0.0,0.0,0.0,0.0,0.0,0.0,0.0,0.0,0.0,0.0,0.0,0.0,0.0,0.0,0.0,0.0,0.0,0.0,0.0,0.0,0.0,0.0,0.0,0.0,0.0,0.0,0.0,0.0,0.0,0.0,0.0,0.0,0.0,0.0,0.0,0.0,0.0,0.0,0.0,0.0,0.0,0.0,0.0,0.0,0.0,0.0,0.0,0.0,0.0,0.0,0.0,0.0,0.0,0.0,0.0,0.0,0.0,0.0,0.0,0.0,0.0,0.0,0.0,0.0,0.0,0.0,0.0,0.0,0.0,0.0,0.0,0.0,0.0,0.0,0.0,0.0,0.0,0.0,0.0,0.0,0.0,0.0,0.0,0.0,0.0,0.0,0.0,0.0,0.0,0.0,0.0,0.0,0.0,0.0,0.0,0.0,0.0,0.0,0.0,0.0,0.0,0.0,0.0,0.0,0.0,0.0,0.0,0.0,0.0,0.0,0.0,0.0,0.0,0.0,0.0,0.0,0.0,0.0,0.0,0.0,0.0,0.0,0.0,0.0,0.0,0.0,0.0,0.0,0.0,0.0,0.0,0.0,0.0,0.0,0.0,0.0,0.0,0.0,0.0,0.0,0.0,0.0,0.0,0.0,0.0,0.0,0.0,0.0,0.0,0.0,0.0,0.0,0.0,0.0,0.0,0.0,0.0,0.0,0.0,0.0,0.0,0.0,0.0,0.0,0.0,0.0,0.0,0.0,0.0,0.0,0.0,0.0,0.0,0.0,0.0,0.0,0.0,0.0,0.0,0.0,0.0,0.0,0.0,0.0,0.0,0.0,0.0,0.0,0.0,0.0,0.0,0.0,0.0,0.0,0.0,0.0,0.0,0.0,0.0,0.0,0.0,0.0,0.0,0.0,0.0,0.0,0.0,0.0,0.0,0.0,0.0,0.0,0.0,0.0,0.0,0.0,0.0,0.0,0.0,0.0,0.0,0.0,0.0,0.0,0.0,0.0,0.0,0.0,0.0,0.0,0.0,0.0,0.0,0.0,0.0,0.0,0.0,0.0,0.0,0.0,0.0,0.0,0.0,0.0,0.0,0.0,0.0,0.0,0.0,0.0,0.0,0.0,0.0,0.0,0.0,0.0,0.0,0.0,0.0,0.0,0.0,0.0,0.0,0.0,0.0,0.0,0.0,0.0,0.0,0.0,0.0,0.0,0.0,0.0,0.0,0.0,0.0,0.0,0.0,0.0,0.0,0.0,0.0,0.0,0.0,0.0,0.0,0.0,0.0,0.0,0.0,0.0,0.0,0.0,0.0,0.0,0.0,0.0,0.0,0.0,0.0,0.0,0.0,0.0,0.0,0.0,0.0,0.0,0.0,0.0,0.0,0.0,0.0,0.0,0.0,0.0,0.0,0.0,0.0,0.0,0.0,0.0,0.0,0.0,0.0,0.0,0.0,0.0,0.0,0.0,0.0,0.0,0.0,0.0,0.0,0.0,0.0,0.0,0.0,0.0,0.0,0.0,0.0,0.0,0.0,0.0,0.0,0.0,0.0,0.0,0.0,0.0,0.0,0.0,0.0,0.0,0.0,0.0,0.0,0.0,0.0,0.0,0.0,0.0,0.0,0.0,0.0,0.0,0.0,0.0,0.0,0.0,0.0,0.0,0.0,0.0,0.0,0.0,0.0,0.0,0.0,0.0,0.0,0.0,0.0,0.0,0.0,0.0,0.0,0.0,0.0,0.0,0.0,0.0,0.0,0.0,0.0,0.0,0.0,0.0,0.0,0.0,0.0,0.0,0.0,0.0,0.0,0.0,0.0,0.0,0.0,0.0,0.0,0.0,0.0,0.0,0.0,0.0,0.0,0.0,0.0,0.0,0.0,0.0,0.0,0.0,0.0,0.0,0.0,0.0,0.0,0.0,0.0,0.0,0.0,0.0,0.0,0.0,0.0,0.0,0.0,0.0,0.0,0.0,0.0,0.0,0.0,0.0,0.0,0.0,0.0,0.0,0.0,0.0,0.0,0.0,0.0,0.0,0.0,0.0,0.0,0.0,0.0,0.0,0.0,0.0,0.0,0.0,0.0,0.0,0.0,0.0,0.0,0.0,0.0,0.0,0.0,0.0,0.0,0.0,0.0,0.0,0.0,0.0,0.0,0.0,0.0,0.0,0.0,0.0,0.0,0.0,0.0,0.0,0.0,0.0,0.0,0.0,0.0,0.0,0.0,0.0,0.0,0.0,0.0,0.0,0.0,0.0,0.0,0.0,0.0,0.0,0.0,0.0,0.0,0.0,0.0,0.0,0.0,0.0,0.0,0.0,0.0,0.0,0.0,0.0,0.0,0.0,0.0,0.0,0.0,0.0,0.0,0.0,0.0,0.0,0.0,0.0,0.0,0.0,0.0,0.0,0.0,0.0,0.0,0.0,0.0,0.0,0.0,0.0,0.0,0.0,0.0,0.0,0.0,0.0,0.0,0.0,0.0,0.0,0.0,0.0,0.0,0.0,0.0,0.0,0.0,0.0,0.0,0.0,0.0,0.0,0.0,0.0,0.0,0.0,0.0,0.0,0.0,0.0,0.0,0.0,0.0,0.0,0.0,0.0,0.0,0.0,0.0,0.0,0.0,0.0,0.0,0.0,0.0,0.0,0.0,0.0,0.0,0.0,0.0,0.0,0.0,0.0,0.0,0.0,0.0,0.0,0.0,0.0,0.0,0.0,0.0,0.0,0.0,0.0,0.0,0.0,0.0,0.0,0.0,0.0,0.0,0.0,0.0,0.0,0.0,0.0,0.0,0.0,0.0,0.0,0.0,0.0,0.0,0.0,0.0,0.0,0.0,0.0,0.0,0.0,0.0,0.0,0.0,0.0,0.0,0.0,0.0,0.0,0.0,0.0,0.0,0.0,0.0,0.0,0.0,0.0,0.0,0.0,0.0,0.0,0.0,0.0,0.0,0.0,0.0,0.0,0.0,0.0,0.0,0.0,0.0,0.0,0.0,0.0,0.0,0.0,0.0,0.0,0.0,0.0,0.0,0.0,0.0,0.0,0.0,0.0,0.0,0.0,0.0,0.0,0.0,0.0,0.0,0.0,0.0,0.0,0.0,0.0,0.0,0.0,0.0,0.0,0.0,0.0,0.0,0.0,0.0,0.0,0.0,0.0,0.0,0.0,0.0,0.0,0.0,0.0,0.0,0.0,0.0,0.0,0.0,0.0,0.0,0.0,0.0,0.0,0.0,0.0,0.0,0.0,0.0,0.0,0.0,0.0,0.0,0.0,0.0,0.0,0.0,0.0,0.0,0.0,0.0,0.0,0.0,0.0,0.0,0.0,0.0,0.0,0.0,0.0,0.0,0.0,0.0,0.0,0.0,0.0,0.0,0.0,0.0,0.0,0.0,0.0,0.0,0.0,0.0,0.0,0.0,0.0,0.0,0.0,0.0,0.0,0.0,0.0,0.0,0.0,0.0,0.0,0.0,0.0,0.0,0.0,0.0,0.0,0.0,0.0,0.0,0.0,1.9845,0.0,0.0,0.0,0.0,0.0,0.0,0.0,0.0,0.0,0.0,0.0,0.0,0.0,0.0,0.0,0.0,0.0,0.0,0.0,0.0,0.0,0.0,0.0,0.0,0.0,0.0,0.0,0.0,0.0,0.0,0.0,0.0,0.0,0.0,0.0,0.0,0.0,0.0,0.0,0.0,0.0,0.0,0.0,0.0,0.0,0.0,0.0,0.0,0.0,0.0,0.0,0.0,0.0,0.0,0.0,0.0,0.0,0.0,0.0,0.0,0.0,0.0,0.0,0.0,0.0,0.0,0.0,0.0,0.0,0.0,0.0,0.0,0.0,0.0,0.0,0.0,0.0,0.0,0.0,0.0,0.0,0.0,0.0,0.0,0.0,0.0,0.0,0.0,0.0,0.0,0.0,0.0,0.0,0.0,0.0,0.0,0.0,0.0,0.0,0.0,0.0,0.0,0.0,0.0,0.0,0.0,0.0,0.0,0.0,0.0,0.0,0.0,0.0,0.0,0.0,0.0,2.0241,0.0,0.0,0.0,0.0,0.0,0.0,0.0,0.0,0.0,0.0,0.0,0.0,0.0,0.0,0.0,0.0,0.0,0.0,0.0,0.0,0.0,0.0,0.0,0.0,0.0,0.0,0.0,0.0,0.0,0.0,0.0,0.0,0.0,0.0,0.0,0.0,0.0,0.0,0.0,0.0,0.0,0.0,0.0,0.0,0.0,0.0,0.0,0.0,0.0,0.0,0.0,0.0,0.0,0.0,0.0,0.0,0.0,0.0,0.0,0.0,0.0,0.0,0.0,0.0,0.0,0.0,0.0,0.0,0.0,0.0,0.0,0.0,0.0,0.0,0.0,0.0,0.0,0.0,0.0,0.0,0.0,0.0,0.0,0.0,0.0,0.0,0.0,0.0,0.0,0.0,0.0,0.0,0.0,0.0,0.0,0.0,0.0,0.0,0.0,0.0,0.0,0.0,0.0,0.0,0.0,0.0,0.0,0.0,1.978,1.9866,1.997,1.9988,2.0025,2.0098,2.0323,2.0509,2.0643,0.0,0.0,0.0,0.0,0.0,0.0,0.0,0.0,0.0,0.0,0.0,0.0,0.0,0.0,0.0,0.0,0.0,0.0,0.0,0.0,0.0,0.0,0.0,0.0,0.0,0.0,0.0,0.0,0.0,0.0,0.0,0.0,0.0,0.0,0.0,0.0,0.0,0.0,0.0,1.8076,1.8663,1.8895,1.8788,1.8072,0.0,0.0,0.0,0.0,0.0,0.0,0.0,0.0,0.0,0.0,0.0,0.0,0.0,0.0,0.0,0.0,0.0,0.0,0.0,0.0,0.0,0.0,0.0,0.0,0.0,0.0,0.0,0.0,0.0,0.0,0.0,0.0,0.0,0.0,0.0,0.0,0.0,0.0,0.0,0.0,0.0,0.0,0.0,1.8893,1.905,0.0,0.0,0.0,0.0,0.0,0.0,0.0,0.0,0.0,0.0,0.0,0.0,0.0,1.9708,1.9708,1.9708,1.9708,1.9708,1.9762,1.9797,1.983,1.9937,1.999,2.0023,2.0058,0.0,2.044,2.0494,0.0,0.0,0.0,0.0,0.0,0.0,0.0,0.0,0.0,0.0,0.0,0.0,0.0,0.0,0.0,0.0,0.0,0.0,0.0,0.0,0.0,0.0,0.0,0.0,0.0,0.0,0.0,0.0,0.0,0.0,0.0,0.0,0.0,0.0,0.0,0.0,1.8337,1.8612,1.85,1.8669,1.8693,1.8552,1.8187,1.8087,1.8149,1.7856,0.0,0.0,0.0,0.0,0.0,0.0,0.0,0.0,0.0,0.0,0.0,0.0,0.0,0.0,0.0,0.0,0.0,0.0,0.0,0.0,0.0,0.0,0.0,0.0,0.0,0.0,0.0,0.0,0.0,0.0,0.0,0.0,0.0,0.0,0.0,0.0,0.0,0.0,0.0,1.8692,1.8793,1.8889,1.8912,1.8988,0.0,0.0,0.0,0.0,0.0,0.0,0.0,0.0,0.0,2.0139,1.9866,1.9887,2.0258,1.9902,1.9708,1.9708,1.9726,1.9744,1.9744,1.9797,1.983,1.983,1.9866,1.9937,2.0025,2.015,2.0218,2.0218,0.0,0.0,0.0,0.0,0.0,2.0272,0.0,0.0,0.0,0.0,0.0,0.0,0.0,0.0,0.0,0.0,0.0,0.0,0.0,0.0,0.0,1.8226,0.0,0.0,0.0,0.0,0.0,0.0,0.0,0.0,0.0,0.0,0.0,0.0,1.8616,1.886,1.8918,1.8962,1.898,1.8995,1.8995,1.8839,1.8516,1.8116,1.7881,0.0,0.0,0.0,0.0,0.0,0.0,0.0,0.0,0.0,0.0,0.0,0.0,0.0,0.0,0.0,0.0,0.0,0.0,0.0,0.0,0.0,0.0,0.0,0.0,0.0,0.0,0.0,0.0,0.0,0.0,0.0,0.0,0.0,0.0,0.0,0.0,0.0,0.0,1.8644,1.8841,1.8944,1.9091,1.9244,0.0,0.0,0.0,0.0,0.0,0.0,1.9872,1.9967,2.0231,2.0675,2.0306,2.0363,2.0904,2.0415,2.018,2.0198,2.018,2.0161,2.0146,1.9964,1.9889,1.9874,1.9746,1.9672,1.9636,1.9866,1.9937,1.9919,1.9975,2.001,2.001,2.001,2.001,1.9993,0.0,0.0,0.0,0.0,0.0,0.0,0.0,0.0,0.0,0.0,0.0,0.0,0.0,0.0,1.8008,1.8008,1.7955,1.7862,0.0,0.0,0.0,0.0,0.0,0.0,0.0,0.0,0.0,1.8291,1.8887,1.9296,1.9566,2.0076,2.0504,2.0871,2.0871,1.986,1.8143,1.8105,1.801,1.7904,0.0,0.0,0.0,0.0,0.0,0.0,0.0,0.0,0.0,0.0,0.0,0.0,0.0,0.0,0.0,0.0,0.0,0.0,0.0,0.0,0.0,0.0,0.0,0.0,0.0,0.0,0.0,0.0,0.0,0.0,0.0,0.0,0.0,0.0,0.0,0.0,0.0,0.0,0.0,1.9348,1.9873,0.0,0.0,0.0,0.0,2.0721,2.0721,2.0833,2.1102,2.1123,2.1164,2.1259,2.1235,2.1311,2.1455,2.1446,2.1456,2.1605,2.1456,2.1416,2.1381,2.0666,2.0365,2.0336,1.9712,1.9413,1.9431,1.9705,1.9762,1.9726,1.9726,1.9711,1.9711,1.9711,1.9711,1.9708,0.0,0.0,0.0,0.0,0.0,0.0,0.0,0.0,0.0,0.0,0.0,0.0,0.0,1.77,1.7679,1.7679,1.7672,1.7632,1.757,0.0,0.0,0.0,0.0,0.0,0.0,0.0,1.8718,1.9133,1.9618,2.0017,2.0379,2.0578,2.0633,2.0569,2.0569,2.0109,1.9369,1.8957,1.8545,1.8067,1.7605,1.7315,0.0,0.0,0.0,0.0,0.0,0.0,0.0,0.0,0.0,0.0,0.0,0.0,0.0,0.0,0.0,0.0,0.0,0.0,0.0,0.0,0.0,0.0,0.0,0.0,0.0,0.0,0.0,0.0,0.0,0.0,0.0,0.0,0.0,0.0,0.0,0.0,0.0,1.9637,1.9925,0.0,2.0301,2.0387,2.0493,2.0599,2.0684,2.0809,2.0934,2.1011,2.1318,2.1852,2.1504,2.1515,2.2005,2.1591,2.1405,2.144,2.1385,2.1364,2.135,2.1108,2.0985,2.0941,2.0216,1.9879,1.9807,1.9436,1.9376,1.9505,1.9505,1.9472,1.9435,1.9435,1.938,1.9306,0.0,0.0,0.0,0.0,0.0,0.0,0.0,0.0,0.0,0.0,0.0,1.7604,1.7496,1.7488,1.7447,1.7393,1.7352,1.7323,1.7303,0.0,0.0,0.0,0.0,0.0,0.0,1.8623,1.924,1.9674,2.0065,2.0447,2.0822,2.0822,2.0771,2.067,2.067,2.0457,2.0057,1.967,1.9246,1.8765,1.8123,1.7727,1.7537,0.0,0.0,0.0,0.0,0.0,0.0,0.0,0.0,0.0,0.0,0.0,0.0,0.0,0.0,0.0,0.0,0.0,0.0,0.0,0.0,0.0,0.0,0.0,0.0,0.0,0.0,0.0,0.0,0.0,0.0,0.0,0.0,0.0,0.0,0.0,1.9831,1.9944,2.0257,2.0515,2.0605,2.0718,2.0873,2.105,2.1152,2.1269,2.1406,2.1499,2.1787,2.2331,2.1988,2.2044,2.2497,2.2108,2.1945,2.1972,2.1945,2.1888,2.1831,2.1585,2.1441,2.1355,2.0669,2.0333,2.0243,1.9536,1.9334,1.9459,1.9263,1.9157,1.912,1.912,1.9082,1.9007,0.0,0.0,0.0,0.0,0.0,0.0,0.0,0.0,0.0,0.0,1.7496,1.7496,1.7475,1.7419,1.7329,1.7199,1.7086,1.696,1.6897,1.691,0.0,0.0,0.0,0.0,1.8596,1.8955,1.9368,1.9821,2.0165,2.0529,2.0934,2.0946,2.1124,2.1434,2.1434,2.0948,2.0161,2.0161,2.0163,2.01,1.9372,1.8793,1.824,0.0,0.0,0.0,0.0,0.0,0.0,0.0,0.0,0.0,0.0,0.0,0.0,0.0,0.0,0.0,0.0,0.0,0.0,0.0,0.0,0.0,0.0,0.0,0.0,0.0,0.0,0.0,0.0,0.0,0.0,0.0,0.0,0.0,1.9317,1.9834,2.0254,2.0338,2.0978,2.1474,2.1622,2.1753,2.1944,2.2217,2.224,2.2357,2.2612,2.2635,2.2649,2.2649,2.277,2.2869,2.2918,2.3052,2.3164,2.3275,2.3135,2.3023,2.2875,2.2148,2.1743,2.1604,2.0976,2.0726,2.0684,2.0006,1.9654,1.9537,1.9002,1.8784,1.8784,1.8784,1.8784,1.8765,0.0,0.0,0.0,0.0,0.0,0.0,0.0,0.0,0.0,0.0,1.7337,1.7261,1.7157,1.7128,1.7086,1.6981,1.6939,1.6918,1.6897,0.0,0.0,0.0,0.0,0.0,1.8823,1.9351,1.9921,2.0594,2.089,2.1217,2.1643,2.1825,2.19,2.1913,2.1913,2.1767,2.1543,2.1543,2.1464,2.1195,1.9704,1.9012,1.8814,0.0,0.0,0.0,0.0,0.0,0.0,0.0,0.0,0.0,0.0,0.0,0.0,0.0,0.0,0.0,0.0,0.0,0.0,0.0,0.0,0.0,0.0,0.0,0.0,0.0,0.0,0.0,0.0,0.0,0.0,0.0,0.0,1.9773,1.956,2.0083,2.0693,2.1254,2.1565,2.1947,2.2415,2.2688,2.2842,2.2918,2.3121,2.3298,2.3473,2.3572,2.3671,2.3745,2.3877,2.3746,2.3344,2.3382,2.3198,2.2783,2.2752,2.2729,2.2692,2.2474,2.2357,2.2269,2.1486,2.1151,2.1072,2.0258,1.9656,1.9196,1.886,1.8606,1.8442,1.8442,1.8397,1.8366,0.0,0.0,0.0,0.0,0.0,0.0,0.0,0.0,0.0,0.0,1.717,1.7073,1.696,1.696,1.6918,1.6825,1.6825,1.6791,1.6748,0.0,0.0,0.0,0.0,1.8861,1.9149,1.9743,2.0346,2.097,2.1227,2.158,2.198,2.2139,2.2068,2.1838,2.1838,2.1768,2.164,2.164,2.157,2.1368,2.0314,1.968,1.9324,1.8583,1.8331,1.8203,1.7426,1.7153,1.7104,1.6777,0.0,0.0,0.0,0.0,0.0,0.0,0.0,0.0,0.0,0.0,0.0,0.0,0.0,0.0,0.0,0.0,0.0,0.0,0.0,0.0,0.0,0.0,0.0,0.0,2.0078,2.0333,2.045,2.0669,2.1056,2.1773,2.1996,2.2247,2.2684,2.2898,2.3057,2.311,2.332,2.3489,2.3618,2.3747,2.3889,2.3965,2.4115,2.407,2.3702,2.381,2.3569,2.2978,2.2978,2.2789,2.2417,2.2417,2.237,0.0,2.1736,2.1513,2.1434,2.0687,2.0142,0.0,0.0,0.0,0.0,0.0,1.8195,1.8115,0.0,0.0,0.0,0.0,0.0,0.0,0.0,0.0,0.0,0.0,0.0,1.696,1.6876,1.6876,1.6812,1.6697,1.6675,1.6683,0.0,0.0,0.0,1.854,1.8816,1.9197,1.9657,2.0208,2.0682,2.1165,2.1407,2.1732,2.2134,2.2155,2.1969,2.1618,2.1618,2.1452,2.1154,2.1154,2.1144,2.1108,2.1055,2.0565,1.9759,1.8743,1.8329,1.8223,1.7745,1.7533,1.7485,1.7355,0.0,0.0,0.0,0.0,0.0,0.0,0.0,0.0,0.0,0.0,0.0,0.0,0.0,0.0,0.0,0.0,0.0,0.0,0.0,0.0,0.0,0.0,0.0,0.0,2.0779,2.1035,2.1688,2.1468,2.1476,2.2113,2.2274,2.2464,2.272,2.2869,2.299,2.3152,2.3272,2.3418,2.3537,0.0,0.0,0.0,0.0,2.4133,2.4063,2.4289,2.4113,2.3501,2.343,2.3008,2.2259,2.2189,2.2044,2.1793,2.1769,2.1769,2.1728,2.1167,2.085,2.0557,1.9484,1.8728,1.8259,1.817,1.8055,0.0,0.0,0.0,0.0,0.0,0.0,0.0,0.0,0.0,0.0,1.6918,1.6918,1.6854,1.674,1.674,1.6684,1.6543,1.6543,1.6876,0.0,0.0,1.8743,1.9645,1.9494,1.9788,2.0618,2.0865,2.1145,2.1515,2.209,2.2333,2.2289,2.2469,2.2459,2.2248,2.2248,2.2174,2.2137,2.2137,2.2025,2.1844,2.1466,2.0868,2.0149,1.9552,1.9105,1.8711,1.8223,1.782,1.7509,1.7483,1.713,1.6716,1.6618,0.0,0.0,0.0,0.0,0.0,0.0,0.0,0.0,0.0,0.0,0.0,0.0,0.0,0.0,0.0,0.0,0.0,0.0,0.0,0.0,2.1257,2.1358,2.1546,2.2099,2.2128,2.2204,2.2603,2.2673,2.2951,2.3573,2.3757,2.3916,2.4048,2.4203,2.4329,2.4371,2.461,2.4721,2.4721,2.5039,2.4955,2.4402,2.4442,2.4177,2.3566,0.0,0.0,2.2585,2.2086,2.1841,2.1793,2.1688,2.164,2.1626,2.1397,2.0965,2.0367,1.9282,1.878,1.8617,1.8018,1.7781,1.7747,0.0,0.0,0.0,0.0,0.0,0.0,0.0,0.0,0.0,0.0,1.6803,1.6761,1.662,1.6599,1.6565,1.65,1.65,0.0,0.0,1.808,1.8717,1.9842,1.9837,2.0146,2.0864,2.1126,2.1439,2.1857,2.2154,2.2386,2.2516,2.252,2.244,2.2252,2.2252,2.2176,2.2101,2.2101,2.2025,2.1928,2.1586,2.1089,2.0475,1.9926,1.954,1.9246,1.8564,1.7988,1.7568,1.7457,1.7085,1.668,1.6669,1.6531,1.6357,0.0,0.0,0.0,0.0,0.0,0.0,0.0,0.0,0.0,0.0,0.0,0.0,0.0,0.0,2.0012,0.0,0.0,2.1282,2.1807,2.1895,2.2096,2.2619,2.2694,2.2795,2.306,2.3102,2.3262,2.3704,2.3819,2.3923,2.4099,2.4245,2.439,2.4463,2.4664,2.4806,2.4806,2.5103,2.5079,2.4751,2.4915,2.4694,2.4033,2.3425,2.297,2.2578,2.1987,2.1664,2.1592,2.1471,2.1399,2.1399,2.1253,2.0995,2.0612,1.9808,1.9328,1.901,1.865,1.85,1.85,0.0,0.0,0.0,0.0,0.0,0.0,0.0,0.0,0.0,0.0,0.0,1.662,1.6522,1.65,1.65,0.0,0.0,0.0,0.0,1.7909,1.8557,1.9892,2.006,2.0405,2.1028,2.1365,2.171,2.208,2.2127,2.2325,2.2628,2.244,2.2214,2.2025,2.2025,2.1911,2.1731,2.1731,2.1731,2.1655,2.1512,2.1161,2.071,2.0072,1.9772,1.9586,1.8718,1.8079,1.7585,1.7385,1.6984,1.6542,1.6694,1.658,1.6369,1.645,1.6107,0.0,0.0,0.0,0.0,0.0,0.0,0.0,0.0,1.9158,1.9434,1.9886,2.0453,2.088,2.0993,2.1343,2.1832,2.2355,2.2472,2.2594,2.3045,2.3195,2.3331,2.3508,2.3508,2.3606,2.3858,2.3858,2.3923,2.3999,2.4105,2.4187,2.4218,2.4405,2.4505,2.4549,2.4778,2.492,2.492,2.5201,2.5039,2.4504,2.3901,2.3233,2.2544,2.1931,2.1532,2.1326,2.1204,2.1155,2.1155,2.1021,2.0972,2.0932,2.0478,2.0013,1.9552,1.9336,1.9256,1.9256,0.0,0.0,0.0,0.0,0.0,0.0,0.0,0.0,0.0,0.0,0.0,0.0,0.0,0.0,0.0,0.0,0.0,0.0,1.7773,1.8265,1.9118,2.0434,2.025,2.0582,2.1592,2.1877,2.2069,2.208,2.2441,2.2574,2.244,2.2214,2.2035,2.1845,2.1845,2.1731,2.154,2.154,2.1436,2.1282,2.1244,2.0992,2.0585,2.0081,1.9636,1.9188,1.8684,1.7968,1.7284,1.742,1.6888,1.62,1.6513,1.6595,1.6536,1.6369,1.6352,1.6363,1.6283,1.6589,1.7116,1.7939,1.8323,1.8709,0.0,2.0034,2.0528,2.0578,2.1031,2.1543,2.2033,2.2184,2.2397,2.292,2.3007,2.3032,2.3095,2.3547,2.3904,2.3935,2.3935,2.4155,2.476,2.4843,2.4703,2.4379,2.4372,2.4244,2.3962,2.4083,2.4216,2.4321,2.4549,2.4649,2.4649,2.4677,2.4666,2.4599,2.3981,2.3365,2.2751,2.2137,2.1576,2.1033,2.1033,2.1008,2.1021,2.0949,2.0913,2.0888,2.0721,2.0593,2.0434,1.9456,1.9133,1.911,0.0,0.0,0.0,0.0,0.0,0.0,0.0,0.0,0.0,0.0,0.0,0.0,0.0,0.0,0.0,0.0,0.0,0.0,1.7749,1.8019,1.874,2.0073,2.012,2.0464,2.1205,2.1536,2.1677,2.1677,2.1973,2.2061,2.1998,2.1937,2.1883,2.1807,2.1807,2.1693,2.1502,2.1502,2.1245,2.0833,2.0689,2.0392,1.9962,1.937,1.8863,1.8463,1.8241,1.7755,0.0,0.0,1.6536,1.6019,1.6239,1.6381,1.6464,1.649,1.6498,1.6561,1.6833,1.7407,1.8024,1.8458,1.9034,1.9605,1.9892,2.0578,2.1169,2.1169,2.1581,2.2033,2.2272,2.2543,2.2832,0.0,2.3108,2.3221,2.3559,2.3841,2.423,2.4858,2.4933,2.4928,2.4885,2.4885,2.4848,2.4766,2.4741,2.4733,2.472,2.4551,2.4459,2.4536,2.4461,2.4421,2.4421,2.4549,2.4591,2.4578,2.4004,2.339,2.2778,2.2192,2.1555,2.0949,2.0949,2.0886,2.0823,2.08,2.0775,2.0775,2.0712,2.0699,2.0646,2.0186,2.004,2.0016,0.0,0.0,0.0,0.0,0.0,0.0,0.0,0.0,0.0,0.0,0.0,0.0,0.0,0.0,0.0,0.0,0.0,0.0,0.0,1.7736,1.8337,1.9586,1.9788,2.0205,2.0906,2.1081,2.1241,2.1386,2.1515,2.1545,2.152,2.1491,2.1462,2.1424,2.1424,2.1285,2.1069,2.1069,2.0737,2.0212,2.0044,1.9634,1.911,1.8619,1.8091,1.766,1.7717,1.7386,0.0,0.0,1.6207,1.5875,1.6066,1.621,1.6335,1.6542,1.6691,1.6883,1.7349,1.8155,1.8838,1.8931,1.9706,2.0425,2.0425,2.1095,2.1719,2.1719,2.2159,2.2506,2.2506,2.2832,2.3108,2.3108,2.3108,2.3246,2.3703,2.4029,2.4519,2.5285,2.5649,2.5686,2.531,2.5272,2.5242,2.5163,2.5151,2.5185,2.5211,2.4985,2.4795,2.4714,2.4573,2.4405,2.4247,2.439,2.4447,2.4476,2.4023,2.3492,2.2896,2.2128,2.1453,2.0838,2.0838,2.08,2.0699,2.0699,2.0699,2.0699,2.0699,2.0699,2.0699,2.0699,2.0699,2.0699,0.0,0.0,0.0,0.0,0.0,0.0,0.0,0.0,0.0,0.0,0.0,0.0,0.0,0.0,0.0,0.0,0.0,0.0,0.0,1.7575,1.8228,1.9184,1.9282,1.9812,2.0894,2.0717,2.0872,2.1386,2.1339,2.1217,2.1016,2.0818,2.064,2.0426,2.0426,2.0268,1.9964,1.9964,1.969,1.9343,1.9343,1.8799,1.8047,1.8037,1.751,1.6794,1.7269,0.0,0.0,0.0,1.6029,1.5759,1.6028,1.6114,1.6171,1.6485,1.7011,1.7512,1.7661,1.8534,1.9387,1.9375,2.0177,2.0978,2.0978,2.1654,2.2284,2.2284,2.2694,2.3083,2.3083,2.3095,2.3108,2.3108,2.3108,2.3108,2.3133,2.4073,2.4775,2.4813,2.5787,2.6461,0.0,2.6449,2.621,2.5624,2.5573,2.5413,2.5026,2.5186,2.5101,2.4727,2.4888,2.4704,2.4125,2.4112,2.4112,2.4112,2.4099,2.3772,2.3158,2.2021,2.1223,2.0712,2.0712,2.0699,2.0699,2.0699,2.0699,2.0699,2.0699,2.0699,2.0699,2.0699,2.0699,2.0699,0.0,0.0,0.0,0.0,0.0,0.0,0.0,0.0,0.0,0.0,0.0,0.0,0.0,0.0,0.0,0.0,0.0,0.0,0.0,1.702,1.753,1.8116,1.8675,1.9077,1.9291,1.9723,1.9946,1.9941,1.9964,1.9846,1.9615,1.9733,1.9701,1.953,1.953,1.9325,1.8968,1.8968,1.8626,1.8027,1.8027,1.7676,1.7126,1.7126,1.659,1.5849,0.0,0.0,0.0,0.0,0.0,0.0,1.5875,0.0,1.6077,1.6581,1.7032,1.7473,1.8086,1.881,1.9453,1.9782,2.0747,2.1596,2.1596,2.2238,2.2832,2.2832,2.297,2.3108,2.3108,2.3108,2.3108,2.3108,2.3108,2.3246,2.3653,2.4311,2.4913,2.5297,2.6034,0.0,0.0,0.0,0.0,2.6223,2.6197,2.6135,2.6013,2.5813,2.5684,2.5621,2.5089,2.4762,2.4717,2.4308,2.4083,2.4112,2.3678,2.3195,2.2648,2.1877,2.1223,2.0699,2.0699,2.0699,2.0699,2.0699,2.0699,2.0699,2.0699,2.0699,2.0699,2.0699,2.0699,2.0699,0.0,0.0,0.0,0.0,0.0,0.0,0.0,0.0,0.0,0.0,0.0,0.0,0.0,0.0,0.0,0.0,0.0,0.0,0.0,0.0,1.6939,1.7373,1.7977,1.8296,1.8263,1.8589,1.8822,1.891,1.8923,1.8817,1.8647,1.8828,1.8783,1.8589,1.8589,1.8436,1.8142,1.8077,1.7631,1.701,1.6946,1.6562,1.6005,1.6005,1.5556,0.0,0.0,0.0,0.0,0.0,0.0,0.0,0.0,1.5898,1.6249,1.6666,1.719,1.7737,1.8333,1.9201,2.0023,2.0311,2.1301,2.2204,2.2204,2.266,2.3108,2.3108,2.3108,2.3108,2.3108,2.3108,2.3108,2.3108,2.3108,2.3233,2.364,2.4311,2.4946,2.5272,2.6034,2.6499,0.0,0.0,0.0,2.6499,2.6499,2.6499,2.6499,2.6316,2.6159,2.6107,2.5382,2.4987,2.4992,2.44,2.4083,2.4112,2.372,2.3221,2.2675,2.2086,2.1524,2.0975,2.0791,2.0699,2.0699,2.0699,2.0699,2.0699,2.0699,2.0699,2.0699,2.0699,2.0699,2.0699,0.0,0.0,0.0,0.0,0.0,0.0,0.0,0.0,0.0,0.0,0.0,0.0,0.0,0.0,0.0,0.0,0.0,0.0,0.0,0.0,0.0,1.6901,1.717,1.7457,1.7702,1.7439,1.7591,1.8294,1.8145,1.8086,1.8041,1.8041,1.788,1.7564,1.7564,1.7492,1.7338,1.7153,1.6757,1.6207,1.6057,1.5508,1.4784,1.4784,0.0,0.0,0.0,0.0,0.0,0.0,1.4124,1.4292,1.5062,1.5897,1.6637,1.6751,1.7452,1.8249,1.8502,1.9713,2.0917,2.0953,2.1831,2.272,2.272,2.2909,2.3095,2.307,2.3058,2.3058,2.3058,2.3058,2.307,2.3095,2.3108,2.3108,2.3108,2.4073,2.4788,0.0,0.0,0.0,0.0,0.0,0.0,2.6499,0.0,2.6499,2.6499,2.6624,2.6506,2.6138,2.5756,2.5389,2.5014,2.4413,2.4083,2.4083,2.4083,2.377,2.3169,2.2676,2.21,2.1472,2.0962,2.0738,2.0699,2.0699,2.0699,2.0699,2.0699,2.0725,2.0751,2.0751,2.0764,2.0791,0.0,0.0,0.0,0.0,0.0,0.0,0.0,0.0,0.0,0.0,0.0,0.0,0.0,0.0,0.0,0.0,0.0,0.0,0.0,0.0,0.0,0.0,0.0,0.0,0.0,0.0,0.0,0.0,0.0,1.6506,1.6105,1.6105,1.5953,1.5691,1.5691,1.5608,1.5488,1.5443,1.5235,1.4942,0.0,1.4639,1.4415,0.0,0.0,0.0,0.0,0.0,0.0,1.3899,1.4518,1.5052,1.529,1.5942,1.6637,1.6751,1.7452,1.8344,1.9046,2.0049,2.1012,2.1535,2.217,2.272,2.272,2.2909,2.2995,2.2581,2.2493,2.2493,2.2493,2.2493,2.2631,2.3045,2.3108,0.0,2.3108,2.4073,0.0,2.4788,2.582,2.6499,2.6499,2.6499,0.0,0.0,2.6499,2.6499,2.6499,2.6521,2.6561,2.6544,2.6151,2.5749,2.5371,2.4519,2.4083,2.4083,2.4083,2.377,2.321,2.3067,2.2452,2.1498,2.1355,2.108,2.0699,2.0699,2.0699,2.0699,2.0699,2.0949,2.1302,2.1302,2.159,2.1983,0.0,0.0,0.0,0.0,0.0,0.0,0.0,0.0,0.0,0.0,0.0,0.0,0.0,0.0,0.0,0.0,0.0,0.0,0.0,0.0,0.0,0.0,0.0,0.0,0.0,0.0,0.0,0.0,0.0,0.0,0.0,1.5009,1.4953,1.4707,1.4914,1.4971,1.4882,1.4829,0.0,0.0,0.0,0.0,0.0,0.0,0.0,0.0,0.0,0.0,1.31,1.3636,1.4379,1.51,1.5117,1.5842,1.6722,1.6853,1.7719,1.8773,1.9397,2.0405,2.1384,2.1896,2.2371,2.2708,2.2769,2.2782,2.2656,2.2343,2.2121,2.1945,2.1945,2.2146,2.241,2.2694,2.2945,2.3108,2.3108,2.4073,2.4788,2.4788,2.582,0.0,2.6499,2.6499,2.6499,0.0,2.6499,2.6499,2.6499,2.6499,2.6555,2.6679,2.6235,2.5678,2.5029,2.4245,2.3878,2.3878,2.3878,2.3696,2.336,2.3142,2.2689,2.2067,0.0,2.1496,2.1238,2.1238,2.1238,2.1238,2.1238,2.1406,2.1677,2.1677,2.1938,2.2265,0.0,0.0,0.0,0.0,0.0,0.0,0.0,0.0,0.0,0.0,0.0,0.0,0.0,0.0,0.0,0.0,0.0,0.0,0.0,0.0,0.0,0.0,0.0,0.0,0.0,0.0,0.0,0.0,0.0,0.0,0.0,0.0,0.0,0.0,0.0,0.0,0.0,0.0,0.0,0.0,0.0,0.0,0.0,0.0,0.0,0.0,0.0,0.0,1.3242,1.3362,1.4022,1.4803,1.4829,1.5754,1.6835,1.6994,1.8078,1.928,1.9613,2.0675,2.1792,2.2123,2.2475,2.2726,2.2792,2.2543,2.2272,2.2121,2.1707,2.138,2.138,2.1769,2.2133,2.2284,2.2681,2.302,2.3095,2.4073,2.4788,2.4788,2.582,2.6499,2.6499,2.6499,2.6499,2.6499,2.6499,2.6465,2.6499,2.6499,2.6555,2.6679,2.6105,2.537,2.4528,2.3919,2.3599,2.3599,2.3599,2.3599,2.3573,2.3116,2.2847,2.2728,0.0,0.0,2.1867,2.1867,2.1867,2.1895,2.1895,2.1946,2.201,2.201,2.2131,2.2306,0.0,0.0,0.0,0.0,0.0,0.0,0.0,0.0,0.0,0.0,0.0,0.0,0.0,0.0,0.0,0.0,0.0,0.0,0.0,0.0,0.0,0.0,0.0,0.0,0.0,0.0,0.0,0.0,0.0,0.0,0.0,0.0,0.0,0.0,0.0,0.0,0.0,0.0,0.0,0.0,0.0,0.0,0.0,0.0,0.0,0.0,0.0,0.0,0.0,0.0,1.4022,1.4829,1.5044,1.5906,1.6874,1.7155,1.8176,1.931,1.9749,2.0754,2.1824,2.2235,2.2525,2.2628,2.2308,2.2268,2.2058,2.1169,2.0893,2.083,2.083,2.0918,2.1282,2.2171,2.2397,2.2581,2.3045,2.4073,2.4788,2.4788,2.582,2.6499,2.6499,2.6499,0.0,0.0,0.0,2.6339,2.6499,2.6499,2.6555,2.6679,2.5704,2.5135,2.5153,2.4111,2.3599,2.3599,2.3599,2.3599,2.3599,2.3496,2.3131,2.2556,2.2426,0.0,2.1741,2.1741,2.1797,2.1895,2.1895,2.2204,2.2642,2.2642,2.2936,2.3334,0.0,0.0,0.0,0.0,0.0,0.0,0.0,0.0,0.0,0.0,0.0,0.0,0.0,0.0,0.0,0.0,0.0,0.0,0.0,0.0,0.0,0.0,0.0,0.0,0.0,0.0,0.0,0.0,0.0,0.0,0.0,0.0,0.0,0.0,0.0,0.0,0.0,0.0,0.0,0.0,0.0,0.0,0.0,0.0,0.0,0.0,0.0,0.0,0.0,0.0,1.4016,1.4702,1.5075,1.5933,1.6874,1.7295,1.8141,1.91,1.9837,2.0729,2.1561,2.2359,2.2396,2.2233,2.2209,2.1813,2.1333,2.0805,2.0453,2.0239,2.0239,2.049,2.0955,2.1744,2.2121,2.2498,2.3032,2.3822,2.4506,2.4763,2.5523,2.6172,2.6461,2.6396,2.6339,2.6339,0.0,2.6119,2.6327,2.6258,2.6211,2.628,2.5494,2.4966,2.4763,2.396,2.3409,2.3133,2.3133,2.3133,2.3133,2.3133,2.2952,2.26,2.26,0.0,2.2226,2.2226,2.2255,2.2314,2.2314,2.2535,2.2837,2.2837,2.3132,2.3509,0.0,0.0,0.0,0.0,0.0,0.0,0.0,0.0,0.0,0.0,0.0,0.0,0.0,0.0,0.0,0.0,0.0,0.0,0.0,0.0,0.0,0.0,0.0,0.0,0.0,0.0,0.0,1.18,0.0,0.0,0.0,0.0,0.0,0.0,0.0,0.0,0.0,0.0,0.0,0.0,0.0,0.0,0.0,0.0,0.0,0.0,0.0,0.0,1.3597,1.3597,1.4004,1.4576,1.4974,1.5866,1.6847,1.739,1.8115,1.8914,1.979,2.0476,2.117,2.2103,2.1972,2.1691,2.1897,2.132,2.0654,2.0528,2.0125,1.9798,1.9798,2.0201,2.0729,2.138,2.1845,2.2372,2.3007,2.364,2.4205,2.4725,2.5252,2.5757,2.638,2.6258,0.0,2.6131,0.0,0.0,2.6131,2.598,2.591,2.591,2.5382,2.4841,2.43,2.3727,2.3156,2.2647,2.2616,2.2598,2.2598,2.2598,2.2555,2.2525,2.2525,0.0,0.0,2.2525,2.2586,2.2647,2.2647,2.2739,2.2848,2.2848,2.303,2.3283,0.0,0.0,0.0,0.0,0.0,0.0,0.0,0.0,0.0,0.0,0.0,0.0,0.0,0.0,0.0,0.0,0.0,0.0,0.0,0.0,0.0,0.0,0.0,0.0,0.0,0.0,0.0,1.18,1.1719,0.0,0.0,0.0,0.0,0.0,0.0,0.0,0.0,0.0,0.0,0.0,0.0,0.0,0.0,0.0,0.0,0.0,0.0,1.3597,1.3597,1.3597,1.4004,1.4524,1.4694,1.5573,1.6677,1.7467,1.8255,1.8965,1.9373,1.9908,2.0502,2.1023,2.1113,2.1038,2.0874,2.0767,2.0541,1.9987,1.9836,1.9798,1.9798,1.9849,2.0238,2.1305,2.1531,2.1933,2.2957,2.364,2.4205,2.4725,2.512,2.558,2.6186,2.6062,2.5945,2.5945,0.0,0.0,2.591,2.591,2.591,2.591,2.5382,2.4841,2.43,2.3587,2.2955,2.242,2.2309,2.2259,2.2259,2.2259,2.2154,2.1956,2.1956,0.0,0.0,2.1956,2.2142,2.242,2.242,2.2555,2.2708,2.2708,2.28,2.2939,0.0,0.0,0.0,0.0,0.0,0.0,0.0,0.0,0.0,0.0,0.0,0.0,0.0,0.0,0.0,0.0,0.0,0.0,0.0,0.0,0.0,0.0,0.0,0.0,0.0,0.0,0.0,0.0,0.0,0.0,0.0,0.0,0.0,0.0,0.0,1.091,0.0,0.0,0.0,0.0,0.0,0.0,0.0,0.0,0.0,0.0,0.0,0.0,1.3597,1.3597,1.3865,1.4267,1.4605,1.5196,1.5982,1.6964,1.7829,1.8562,1.9233,1.9625,2.0036,2.0702,2.0628,2.0419,2.0565,2.0295,1.9982,1.9823,1.9798,1.9798,1.9798,1.9798,2.0175,2.1305,0.0,0.0,2.2945,2.3248,2.3661,2.4514,2.4669,2.5052,0.0,0.0,2.5653,2.5442,0.0,0.0,2.5218,2.5242,2.5242,2.5242,2.5038,2.4523,2.3661,2.3335,2.2778,2.1968,2.1917,2.1886,2.1886,2.1886,2.1781,2.16,2.1718,0.0,0.0,2.1718,2.1855,2.1968,2.1968,2.2154,2.2414,2.2414,2.2555,2.2769,0.0,0.0,0.0,0.0,0.0,0.0,0.0,0.0,0.0,0.0,0.0,0.0,0.0,0.0,0.0,0.0,0.0,0.0,0.0,0.0,0.0,0.0,0.0,0.0,0.0,0.0,0.0,0.0,0.0,0.0,0.0,0.0,1.1071,1.091,0.0,0.0,0.0,0.0,0.0,0.0,0.0,0.0,0.0,0.0,0.0,0.0,0.0,0.0,0.0,0.0,0.0,1.405,1.4392,1.4866,1.5515,1.667,1.7421,1.8089,1.894,1.9274,1.9523,2.0173,2.0034,1.9848,2.0118,1.9862,1.9565,1.9656,1.9682,1.9682,1.9682,1.9682,2.0044,0.0,0.0,2.1727,2.2837,2.2909,2.3226,2.4315,0.0,2.4618,0.0,2.5512,2.5265,0.0,0.0,0.0,2.461,2.449,2.4538,2.4718,2.4646,2.4108,2.3046,2.3001,2.2467,2.1466,2.1414,2.1414,2.1414,2.1414,2.1328,2.121,0.0,0.0,0.0,2.134,2.1466,2.1561,2.1561,2.1761,2.2042,2.2042,2.2247,2.2567,0.0,0.0,0.0,0.0,0.0,0.0,0.0,0.0,0.0,0.0,0.0,0.0,0.0,0.0,0.0,0.0,0.0,0.0,0.0,0.0,0.0,0.0,0.0,0.0,0.0,0.0,0.0,0.0,0.0,0.0,0.0,0.0,0.0,0.0,0.0,0.0,0.0,0.0,0.0,0.0,0.0,0.0,0.0,0.0,0.0,0.0,0.0,0.0,0.0,0.0,0.0,0.0,0.0,1.4592,1.5515,1.667,1.7198,1.7574,1.8404,1.8718,1.8863,1.9141,1.922,1.9235,1.938,1.9394,1.9394,1.9394,1.9394,1.9394,1.9394,1.9394,1.975,2.083,2.1014,0.0,2.253,2.272,2.3083,2.4165,2.4124,2.4359,2.5204,2.4981,2.479,0.0,0.0,0.0,2.42,2.3824,2.3897,2.449,2.4309,2.3707,2.273,2.2503,2.189,2.0903,2.0754,2.0701,2.0701,2.0701,2.0701,0.0,0.0,0.0,0.0,2.0701,2.0926,2.1201,2.1201,2.1391,2.171,2.171,2.1917,2.2197,0.0,0.0,0.0,0.0,0.0,0.0,0.0,0.0,0.0,0.0,0.0,0.0,0.0,0.0,0.0,0.0,0.0,0.0,0.0,0.0,0.0,0.0,0.0,0.0,0.0,0.0,0.0,0.0,0.0,0.0,0.0,0.0,0.0,0.0,0.0,0.0,0.0,0.0,0.0,0.0,0.0,0.0,0.0,0.0,0.0,0.0,0.0,0.0,0.0,0.0,0.0,0.0,0.0,0.0,0.0,0.0,1.6252,1.6891,1.7694,1.8017,1.8256,1.8794,1.9011,1.9105,1.9223,1.9249,1.9302,1.9368,1.9394,1.9394,1.9394,1.9394,1.975,2.083,2.1002,0.0,2.253,2.2586,2.2719,2.3341,2.3757,2.4245,0.0,0.0,0.0,0.0,0.0,0.0,2.3787,2.3519,2.3567,2.3861,2.3521,2.2987,2.2297,2.1913,2.1396,2.0754,2.0733,2.0701,2.0701,2.0701,0.0,0.0,0.0,0.0,0.0,2.0637,2.0765,2.085,2.085,2.1074,2.1371,2.1371,2.1561,2.1855,0.0,0.0,0.0,0.0,0.0,0.0,0.0,0.0,0.0,0.0,0.0,0.0,0.0,0.0,0.0,0.0,0.0,0.0,0.0,0.0,0.0,0.0,0.0,0.0,0.0,0.0,0.0,0.0,0.0,0.0,0.0,0.0,0.0,0.0,0.0,0.0,0.0,0.0,0.0,0.0,0.0,0.0,1.2328,0.0,0.0,0.0,0.0,0.0,0.0,0.0,0.0,0.0,0.0,0.0,0.0,0.0,1.5367,1.5966,1.6973,1.7336,1.7547,1.8029,1.8346,1.8556,1.8646,1.8867,1.9064,1.917,1.921,1.9263,1.9263,1.921,1.9509,2.0564,2.0677,2.1034,2.2164,2.2216,2.2356,2.2989,2.3507,0.0,0.0,2.42,0.0,0.0,0.0,0.0,2.3494,2.3224,2.3062,2.2985,2.2806,2.2417,2.1929,2.1463,2.0974,2.0475,2.0475,2.0443,2.0399,2.0399,0.0,0.0,0.0,0.0,0.0,2.0335,2.0464,2.0572,2.0572,2.0754,2.101,2.101,2.1201,2.1498,0.0,0.0,0.0,0.0,0.0,0.0,0.0,0.0,0.0,0.0,0.0,0.0,0.0,0.0,0.0,0.0,0.0,0.0,0.0,0.0,0.0,0.0,0.0,0.0,0.0,0.0,0.0,0.0,1.1151,1.1134,1.1134,0.0,0.0,0.0,0.0,0.0,0.0,0.0,0.0,0.0,0.0,0.0,0.0,0.0,0.0,0.0,0.0,0.0,0.0,0.0,0.0,0.0,0.0,0.0,0.0,0.0,0.0,0.0,0.0,1.6642,1.6789,1.7007,1.7396,1.7774,1.7784,1.8277,0.0,1.8798,1.8893,1.896,1.896,1.8866,1.9104,2.0125,2.0187,2.0488,2.1545,2.1667,2.2031,0.0,2.3213,0.0,2.4049,0.0,0.0,0.0,0.0,0.0,2.3261,2.2857,2.2444,2.2002,2.2093,2.1961,2.1503,2.1057,2.0554,2.0042,2.0042,2.0009,1.9868,1.9868,0.0,0.0,0.0,0.0,0.0,1.9868,2.0074,2.0367,2.0367,2.0475,2.0669,2.0669,2.0882,2.1158,0.0,0.0,0.0,0.0,0.0,0.0,0.0,0.0,0.0,0.0,0.0,0.0,0.0,0.0,0.0,0.0,0.0,0.0,0.0,0.0,0.0,0.0,0.0,0.0,0.0,0.0,0.0,1.112,1.1418,1.1535,1.1486,1.183,0.0,0.0,0.0,0.0,0.0,0.0,0.0,0.0,0.0,0.0,0.0,0.0,0.0,0.0,1.3443,1.3515,0.0,0.0,0.0,0.0,0.0,0.0,0.0,0.0,1.4454,0.0,0.0,0.0,1.6226,1.6678,1.7038,1.7351,0.0,1.7916,1.8142,1.8558,1.8667,1.8694,1.8694,1.8679,1.8983,1.9964,2.0111,2.0488,2.1545,2.1466,0.0,2.1974,2.2253,2.2624,2.3155,0.0,0.0,0.0,0.0,2.2852,2.2852,2.2284,2.188,2.1773,2.1115,2.0732,2.0625,2.0143,1.9854,1.9714,1.9714,1.9714,1.9671,1.9671,0.0,0.0,0.0,0.0,1.9671,1.9671,1.9802,2.0009,2.0009,2.0205,2.0475,2.0475,2.0637,2.083,0.0,0.0,0.0,0.0,0.0,0.0,0.0,0.0,0.0,0.0,0.0,0.0,0.0,0.0,0.0,0.0,0.0,0.0,0.0,0.0,0.0,0.0,0.0,0.0,0.0,0.0,0.0,0.0,0.0,1.1654,0.0,0.0,0.0,0.0,0.0,0.0,0.0,0.0,0.0,0.0,0.0,0.0,0.0,0.0,0.0,0.0,1.3314,1.3386,0.0,1.3515,1.3549,1.3621,0.0,0.0,0.0,0.0,1.4303,0.0,0.0,1.4956,1.5461,1.5745,1.6105,1.649,1.6973,1.7286,1.7662,1.8186,1.8317,1.8371,1.8371,1.8317,1.8626,1.9616,1.9731,0.0,2.1106,2.1074,2.1128,2.1517,2.161,2.1955,0.0,0.0,0.0,0.0,0.0,2.2221,2.2221,2.1626,2.1168,2.0956,2.0365,2.0147,2.0283,1.9849,1.9605,1.9605,1.9605,1.9539,1.9473,1.9473,1.944,0.0,0.0,0.0,1.9473,1.9473,1.9572,1.9769,1.9769,1.9944,2.0172,2.0172,2.0335,2.0572,0.0,0.0,0.0,0.0,0.0,0.0,0.0,0.0,0.0,0.0,0.0,0.0,0.0,0.0,0.0,0.0,0.0,0.0,0.0,0.0,0.0,0.0,0.0,0.0,0.0,0.0,0.0,0.0,0.0,0.0,0.0,0.0,0.0,0.0,0.0,0.0,0.0,0.0,0.0,0.0,1.2318,0.0,0.0,0.0,0.0,0.0,0.0,0.0,0.0,1.3372,1.3467,1.3597,1.3692,0.0,0.0,0.0,0.0,0.0,1.4303,1.4511,1.4684,1.4753,1.5079,1.5527,1.6073,1.6635,1.7202,1.7768,1.7975,1.8041,1.8041,1.8004,1.8289,1.9229,0.0,0.0,2.0557,2.0637,2.0782,2.114,2.1086,0.0,0.0,0.0,0.0,0.0,0.0,2.1547,2.1547,2.0923,2.0397,2.0078,1.9823,1.9826,2.0109,1.9707,1.9506,1.9506,1.9506,1.944,1.9285,1.9285,1.9208,0.0,0.0,0.0,1.9285,1.9285,1.9374,1.9539,1.9539,1.9671,1.9835,1.9835,2.0042,2.0335,0.0,0.0,0.0,0.0,0.0,0.0,0.0,0.0,0.0,0.0,0.0,0.0,0.0,0.0,0.0,0.0,0.0,0.0,0.0,0.0,0.0,0.0,0.0,0.0,0.0,0.0,0.0,0.0,0.0,0.0,1.2536,1.2856,1.2696,0.0,0.0,0.0,0.0,0.0,0.0,0.0,0.0,0.0,0.0,0.0,0.0,0.0,0.0,0.0,0.0,1.3242,1.3314,1.3433,1.3443,0.0,0.0,0.0,0.0,0.0,1.4067,1.4091,1.4208,1.4557,1.4763,1.5124,1.5995,1.6289,1.6602,1.7548,1.7767,1.7767,1.7767,1.8064,1.8524,1.9119,0.0,2.0458,0.0,0.0,2.0368,2.0162,0.0,0.0,0.0,0.0,0.0,0.0,0.0,2.0845,2.0845,2.0275,1.99,1.9861,1.9443,1.9245,1.9279,1.9206,1.9175,1.9175,1.9175,1.9164,1.9131,1.9131,1.9108,0.0,0.0,1.9098,1.9131,1.9131,1.9208,1.9351,1.9351,1.9483,1.9638,1.9638,1.978,2.0009,0.0,0.0,0.0,0.0,0.0,0.0,0.0,0.0,0.0,0.0,0.0,0.0,0.0,0.0,0.0,0.0,0.0,0.0,0.0,0.0,0.0,0.0,0.0,0.0,0.0,0.0,0.0,0.0,0.0,1.247,1.2659,1.2764,1.2657,1.2344,0.0,0.0,0.0,0.0,0.0,0.0,0.0,0.0,0.0,0.0,0.0,0.0,0.0,0.0,0.0,0.0,1.3214,1.329,1.3386,0.0,0.0,0.0,0.0,0.0,1.3973,1.3997,1.4044,1.4231,1.4395,1.473,1.5758,1.5979,1.6254,1.7291,1.749,1.749,1.749,1.786,1.8405,1.9105,0.0,2.0074,1.9976,1.9976,1.99,0.0,0.0,0.0,0.0,0.0,0.0,0.0,0.0,0.0,2.0198,0.0,1.9419,1.9419,1.9212,1.9108,1.9108,1.9108,1.9108,1.9108,1.9108,1.9108,1.9108,1.9108,1.9108,1.9108,0.0,1.9108,1.9108,1.9108,1.9142,1.9208,1.9208,1.9274,1.944,1.955,1.9671,1.9736,0.0,0.0,0.0,0.0,0.0,0.0,0.0,0.0,0.0,0.0,0.0,0.0,0.0,0.0,0.0,0.0,0.0,0.0,0.0,0.0,0.0,0.0,0.0,0.0,0.0,0.0,0.0,1.2259,1.2264,1.2382,1.2603,1.2431,1.2357,0.0,0.0,0.0,0.0,0.0,0.0,0.0,0.0,0.0,0.0,0.0,0.0,0.0,0.0,0.0,0.0,0.0,0.0,0.0,0.0,0.0,0.0,0.0,1.3716,1.3739,1.3868,1.3926,1.3915,1.3949,1.4131,1.4551,1.5477,1.5784,1.6109,1.7009,1.7183,1.7183,1.7183,1.7644,0.0,1.9168,1.949,1.9605,1.9605,1.9605,1.9572,0.0,0.0,0.0,0.0,0.0,0.0,0.0,0.0,0.0,1.9637,0.0,1.9108,1.9108,1.9108,1.9108,1.9108,1.9108,1.9108,1.9108,1.9108,1.9108,1.9108,1.9108,1.9108,1.9108,1.9108,1.9108,1.9108,1.9108,1.9108,1.9108,1.9108,1.9175,1.9285,1.9473,1.955,1.9539,0.0,0.0,0.0,0.0,0.0,0.0,0.0,0.0,0.0,0.0,0.0,0.0,0.0,0.0,0.0,0.0,0.0,0.0,0.0,0.0,0.0,0.0,0.0,0.0,0.0,1.1474,1.1789,1.1846,1.2267,1.2427,1.2323,1.2051,1.1952,0.0,0.0,0.0,0.0,0.0,0.0,0.0,0.0,0.0,0.0,0.0,0.0,0.0,0.0,0.0,0.0,0.0,0.0,0.0,0.0,0.0,0.0,0.0,1.342,1.3467,1.3586,1.3621,1.3668,1.3773,1.4243,1.4807,1.5312,1.577,1.6228,1.674,1.6846,1.6846,1.6846,1.7571,1.8487,1.9403,1.9584,1.9605,1.9605,0.0,0.0,0.0,0.0,0.0,0.0,0.0,0.0,0.0,0.0,0.0,1.915,0.0,0.0,1.9108,1.9108,1.9108,1.9108,1.9108,1.9108,1.9108,1.9108,1.9108,1.9108,1.9108,1.9108,1.9108,1.9108,1.9108,1.9108,1.9108,1.9108,1.9108,1.9108,1.9108,1.9131,1.9274,1.9318,1.9351,0.0,0.0,0.0,0.0,0.0,0.0,0.0,0.0,0.0,0.0,0.0,0.0,0.0,0.0,0.0,0.0,0.0,0.0,0.0,0.0,0.0,0.0,0.0,1.1103,1.108,1.1477,1.1789,1.1992,1.2003,1.1977,1.1927,1.1828,0.0,0.0,0.0,0.0,0.0,0.0,0.0,0.0,0.0,0.0,0.0,0.0,0.0,0.0,0.0,0.0,0.0,0.0,1.2603,0.0,0.0,0.0,0.0,0.0,1.329,1.329,1.3338,1.3338,1.3362,1.3409,1.4105,1.4883,1.5298,1.5765,1.6243,1.6683,1.6818,1.6988,1.7562,1.7865,1.8312,1.9259,1.9341,1.9274,1.9274,0.0,0.0,0.0,0.0,0.0,0.0,0.0,0.0,0.0,0.0,0.0,0.0,0.0,0.0,1.9108,1.9108,1.9108,1.9108,1.9108,1.9108,1.9108,1.9108,1.9108,1.9108,1.9108,1.9108,1.9108,1.9108,1.9108,1.9108,1.9108,1.9108,1.9108,1.9108,1.9108,1.9108,1.9175,1.9175,1.9208,0.0,0.0,0.0,0.0,0.0,0.0,0.0,0.0,0.0,0.0,0.0,0.0,0.0,0.0,0.0,0.0,0.0,0.0,0.0,0.0,0.0,0.0,0.0,1.1289,1.1294,1.1438,1.1671,1.1977,1.1703,1.1544,1.1502,0.0,0.0,0.0,0.0,0.0,0.0,0.0,0.0,0.0,0.0,0.0,0.0,0.0,0.0,0.0,0.0,0.0,0.0,0.0,1.2372,1.2431,0.0,0.0,0.0,0.0,0.0,1.3132,1.317,1.3194,1.3194,1.3194,1.3967,1.4793,1.5081,1.5695,1.6297,1.6613,1.6609,1.6864,1.7716,1.7771,0.0,0.0,1.8975,1.8908,0.0,0.0,0.0,0.0,0.0,0.0,0.0,0.0,0.0,0.0,0.0,0.0,0.0,0.0,0.0,0.0,1.9025,1.9036,1.888,1.9025,1.9108,1.9108,1.9108,1.9108,1.9108,1.9108,1.9108,1.9108,1.9108,1.9108,1.9108,1.9108,1.9108,1.9108,1.9108,1.9108,1.9108,1.9108,1.9108,1.9108,0.0,0.0,0.0,0.0,0.0,0.0,0.0,0.0,0.0,0.0,0.0,0.0,0.0,0.0,0.0,0.0,0.0,0.0,0.0,0.0,0.0,0.0,0.0,1.1215,1.1494,1.1352,1.1427,1.1694,1.1427,1.1226,1.1099,0.0,0.0,0.0,0.0,0.0,0.0,0.0,0.0,0.0,0.0,0.0,0.0,0.0,0.0,0.0,0.0,0.0,0.0,0.0,1.2101,1.215,0.0,0.0,0.0,0.0,1.2905,1.2944,1.3132,1.3184,1.3184,1.3184,1.3892,1.4582,1.4582,1.5536,1.6413,1.6413,1.6249,1.6331,1.7061,1.72,0.0,1.8375,1.8516,0.0,0.0,0.0,0.0,0.0,0.0,0.0,0.0,0.0,0.0,0.0,0.0,0.0,0.0,0.0,0.0,0.0,1.8849,1.887,1.8414,1.8859,1.9088,1.9098,1.9098,1.9098,1.9108,1.9108,1.9108,1.9108,1.9108,1.9108,1.9108,1.9108,1.9108,1.9108,1.9108,1.9108,1.9108,1.9108,1.9108,1.9108,0.0,0.0,0.0,0.0,0.0,0.0,0.0,0.0,0.0,0.0,0.0,0.0,0.0,0.0,0.0,0.0,0.0,0.0,0.0,0.0,0.0,0.0,0.0,0.0,0.0,0.0,1.1074,1.115,1.1074,1.0998,0.0,0.0,0.0,1.0769,0.0,0.0,0.0,0.0,0.0,0.0,0.0,0.0,0.0,0.0,0.0,0.0,0.0,0.0,0.0,0.0,0.0,0.0,0.0,0.0,0.0,1.2431,1.2529,1.2627,1.2691,1.2706,1.2706,1.2706,1.3419,1.4104,1.4104,1.5121,1.6058,1.6058,1.6,1.6205,1.704,1.72,0.0,1.8375,0.0,0.0,0.0,0.0,0.0,0.0,0.0,0.0,0.0,0.0,0.0,0.0,0.0,0.0,0.0,0.0,0.0,0.0,1.8029,1.8061,1.7895,1.8061,1.8278,1.8621,1.8621,1.8787,1.9108,1.9108,1.9108,1.9108,1.9108,1.9108,1.9108,1.9108,1.9108,1.9108,1.9108,1.9108,1.9108,1.9108,1.9108,1.9108,0.0,0.0,0.0,0.0,0.0,0.0,0.0,0.0,0.0,0.0,0.0,0.0,0.0,0.0,0.0,0.0,0.0,0.0,0.0,0.0,0.0,0.0,0.0,0.0,0.0,1.0616,1.0539,0.0,0.0,0.0,0.0,0.0,0.0,1.0547,0.0,1.0385,0.0,0.0,0.0,0.0,0.0,0.0,0.0,0.0,0.0,0.0,0.0,0.0,0.0,0.0,0.0,0.0,0.0,0.0,0.0,1.2101,1.22,1.2274,1.2332,1.2382,1.2431,1.2431,1.3121,1.3922,1.4266,1.503,1.5701,1.5624,1.5624,1.5812,1.6461,1.6558,0.0,0.0,0.0,0.0,0.0,0.0,0.0,0.0,0.0,0.0,0.0,0.0,0.0,0.0,0.0,0.0,0.0,0.0,0.0,0.0,1.7513,1.7554,1.743,1.7606,1.7833,1.8123,1.8299,1.8559,1.8839,1.9015,1.9108,1.9108,1.9108,1.9108,1.9108,1.9108,1.9108,1.9108,1.9108,1.9108,1.9108,1.9108,1.9108,1.9108,0.0,0.0,0.0,0.0,0.0,0.0,0.0,0.0,0.0,0.0,0.0,0.0,0.0,0.0,0.0,0.0,0.0,0.0,0.0,0.0,0.0,0.0,0.0,0.0,0.0,0.0,0.0,0.0,0.0,0.0,0.0,0.0,1.0265,1.0265,0.0,0.9999,0.0,0.0,0.0,0.0,0.0,0.0,0.0,0.0,0.0,0.0,0.0,0.0,0.0,0.0,0.0,0.0,1.1402,1.1553,1.1669,1.1803,1.1852,1.1902,1.2026,1.215,1.2258,1.2258,1.2941,1.3837,1.4713,1.5098,1.5274,1.5176,1.5186,1.5251,1.5541,1.5586,1.5709,0.0,0.0,0.0,0.0,0.0,0.0,0.0,0.0,0.0,0.0,0.0,0.0,0.0,0.0,0.0,0.0,0.0,0.0,1.6717,1.7134,1.7216,1.6925,1.7368,1.7595,0.0,1.8071,1.8278,1.834,1.888,1.9108,1.9108,1.9108,1.9108,1.9108,1.9108,1.9108,1.9108,1.9108,1.9108,1.9108,1.9108,1.9108,1.9075,0.0,0.0,0.0,0.0,0.0,0.0,0.0,0.0,0.0,0.0,0.0,0.0,0.0,0.0,0.0,0.0,0.0,0.0,0.0,0.0,0.0,0.0,0.0,0.0,0.0,0.0,0.0,0.0,0.0,0.0,0.0,0.0,0.0,1.0051,0.0,0.9999,0.0,0.0,0.0,0.0,0.0,0.0,0.0,0.0,0.0,0.0,0.0,0.0,0.0,0.0,0.0,0.0,1.1023,1.1124,1.1251,1.1402,1.1502,1.1628,1.1753,1.1803,1.1828,1.1828,1.2411,1.3202,1.4039,1.4249,1.4449,1.4941,1.5039,1.5123,1.5378,1.5423,1.5532,0.0,0.0,0.0,0.0,0.0,0.0,0.0,0.0,0.0,0.0,0.0,0.0,0.0,0.0,0.0,0.0,0.0,0.0,1.6084,1.6281,1.6359,1.6296,1.6554,1.685,0.0,1.7254,1.7482,1.7874,1.8735,1.9108,1.9108,1.9108,1.9108,1.9108,1.9108,1.9108,1.9108,1.9108,1.9108,1.9108,1.9108,1.9008,1.8875,0.0,0.0,0.0,0.0,0.0,0.0,0.0,0.0,0.0,0.0,0.0,0.0,0.0,0.0,0.0,0.0,0.0,0.0,0.0,0.0,0.0,0.0,0.0,0.0,0.0,0.0,0.0,0.0,0.0,0.0,0.0,0.0,0.0,0.9895,0.0,0.981,0.0,0.0,0.0,0.0,0.0,0.0,0.0,0.0,0.0,0.0,0.0,0.0,0.0,0.0,0.0,0.0,0.0,0.0,1.1023,1.1099,1.115,1.1226,1.1301,1.1352,1.1462,1.1721,1.221,1.2767,1.3368,1.3668,1.3851,1.421,1.4428,1.4552,1.4702,1.4739,0.0,0.0,0.0,0.0,0.0,0.0,0.0,0.0,0.0,0.0,0.0,0.0,0.0,0.0,0.0,0.0,0.0,1.5284,1.54,1.5662,1.5807,1.598,1.6114,1.621,1.642,1.6726,1.6913,1.7254,1.773,1.8433,1.8901,1.9108,1.9108,1.9108,1.9108,1.9108,1.9108,1.9108,1.9108,1.9042,1.8975,1.8975,1.8841,1.865,0.0,0.0,0.0,0.0,0.0,0.0,0.0,0.0,0.0,0.0,0.0,0.0,0.0,0.0,0.0,0.0,0.0,0.0,0.0,0.0,0.0,0.0,0.0,0.0,0.0,0.0,0.0,0.0,0.0,0.0,0.0,0.0,0.0,0.9766,0.0,0.0,0.0,0.0,0.0,0.0,0.0,0.0,0.0,0.0,0.0,0.0,0.0,0.0,0.0,1.0393,0.0,0.0,0.0,0.0,1.0845,1.0871,1.0871,1.0871,1.0896,1.0972,1.1183,1.1677,1.201,1.2359,1.2811,1.3114,1.3343,1.3403,1.367,1.392,1.3881,0.0,0.0,0.0,0.0,0.0,0.0,0.0,0.0,0.0,0.0,0.0,0.0,0.0,0.0,0.0,0.0,0.0,1.4911,1.5029,1.5176,1.5362,1.5546,1.5778,1.6028,1.6056,1.6163,1.6327,1.6658,1.7051,1.7523,1.7915,1.8401,1.8984,1.8951,1.8969,1.9042,1.9008,1.9008,1.9008,1.9008,1.8875,1.8741,1.8741,1.8617,1.8414,0.0,0.0,0.0,0.0,0.0,0.0,0.0,0.0,0.0,0.0,0.0,0.0,0.0,0.0,0.0,0.0,0.0,0.0,0.0,0.0,0.0,0.0,0.0,0.0,0.0,0.0,0.0,0.0,0.0,0.0,0.0,0.0,0.0,0.9614,0.0,0.0,0.0,0.0,0.0,0.0,0.0,0.0,0.0,0.0,0.0,0.0,0.0,0.0,0.0,1.0051,1.0187,0.0,0.0,0.0,1.0573,1.0693,1.0726,1.0744,1.0871,1.0922,1.1013,1.1378,1.151,1.1718,1.2398,1.2597,1.2721,0.0,1.3338,1.3541,1.342,0.0,0.0,0.0,0.0,0.0,0.0,0.0,0.0,0.0,0.0,0.0,0.0,0.0,0.0,0.0,0.0,0.0,1.4558,1.4588,1.4775,1.5205,1.5371,1.5546,1.5759,1.5875,1.5943,1.5972,1.6032,1.6285,1.6759,1.6809,1.7451,1.8464,1.8313,1.8473,1.8841,1.865,1.8583,1.8583,1.8583,1.8549,1.8549,1.8549,1.8347,1.8076,0.0,0.0,0.0,0.0,0.0,0.0,0.0,0.0,0.0,0.0,0.0,0.0,0.0,0.0,0.0,0.0,0.0,0.0,0.0,0.0,0.0,0.0,0.0,0.0,0.0,0.0,0.0,0.0,0.0,0.0,0.0,0.9465,0.9536,0.0,0.0,0.0,0.0,0.0,0.0,0.0,0.0,0.0,0.0,0.0,0.0,0.0,0.0,0.0,0.0,0.0,1.0051,1.0136,1.0136,0.0,0.0,0.0,1.0385,1.0522,1.065,1.0667,1.0707,1.0869,1.1037,1.1264,1.1579,1.195,1.2274,1.2405,1.2742,1.3011,0.0,0.0,0.0,0.0,0.0,0.0,0.0,0.0,0.0,0.0,0.0,0.0,0.0,0.0,0.0,0.0,0.0,1.3881,1.421,1.441,1.4597,1.4813,1.5049,1.5284,1.5546,1.5604,1.572,1.5885,1.5885,1.6014,1.6225,1.6225,1.6789,1.7788,1.7693,1.7916,1.8289,1.819,1.8318,1.8482,1.8414,1.8313,1.8212,1.81,1.7896,1.7701,0.0,0.0,0.0,0.0,0.0,0.0,0.0,0.0,0.0,0.0,0.0,0.0,0.0,0.0,0.0,0.0,0.0,0.0,0.0,0.0,0.0,0.0,0.0,0.0,0.0,0.0,0.0,0.0,0.0,0.0,0.9309,0.9361,0.9458,0.0,0.9588,0.9588,0.0,0.0,0.0,0.0,0.0,0.0,0.0,0.0,0.0,0.0,0.0,0.0,0.0,0.0,0.0,0.0,0.0,0.0,0.0,0.0,0.0,1.0239,1.0342,1.036,1.036,1.036,1.0556,1.0777,1.089,1.13,1.1665,0.0,1.2089,1.2394,0.0,0.0,0.0,0.0,0.0,0.0,0.0,0.0,0.0,0.0,0.0,0.0,0.0,0.0,0.0,0.0,0.0,1.3519,1.3851,1.4112,1.4291,1.4419,1.4725,1.499,1.5206,1.5264,1.543,1.5682,1.5682,1.5682,1.5682,1.5682,1.6059,1.6736,1.6908,1.7198,1.7543,1.7631,1.7813,1.8097,1.8094,1.8008,1.7837,1.7647,1.7486,1.7332,0.0,0.0,0.0,0.0,0.0,0.0,0.0,0.0,0.0,0.0,0.0,0.0,0.0,0.0,0.0,0.0,0.0,0.0,0.0,0.0,0.0,0.0,0.0,0.0,0.0,0.0,0.0,0.0,0.0,0.0,0.9035,0.929,0.9413,0.9413,0.9536,0.9588,0.9588,0.0,0.0,0.0,0.0,0.0,0.0,0.0,0.0,0.0,0.0,0.0,0.0,0.0,0.0,0.0,0.0,0.0,0.0,0.0,0.0,0.0,1.0025,1.0025,1.0025,1.0025,1.004,1.0157,1.0524,1.0651,1.0766,1.1089,1.1428,1.1674,0.0,0.0,0.0,0.0,0.0,0.0,0.0,0.0,0.0,0.0,0.0,0.0,0.0,0.0,0.0,0.0,0.0,1.3164,1.3511,1.3541,1.3761,1.4189,1.4419,1.4588,1.4745,1.4941,1.5029,1.5059,1.5059,1.5059,1.5059,1.5059,1.5087,1.5144,1.5867,1.6317,1.6596,1.6858,1.6973,1.703,1.7387,1.7539,1.7505,1.7314,1.7107,1.6899,0.0,0.0,0.0,0.0,0.0,0.0,0.0,0.0,0.0,0.0,0.0,0.0,0.0,0.0,0.0,0.0,0.0,0.0,0.0,0.0,0.0,0.0,0.0,0.0,0.0,0.0,0.0,0.0,0.0,0.8745,0.8883,0.9061,0.9185,0.929,0.951,0.9588,0.9588,0.9588,0.0,0.0,0.0,0.0,0.0,0.0,0.0,0.0,0.0,0.0,0.0,0.0,0.0,0.0,0.0,0.0,0.0,0.9844,0.987,0.9895,0.9973,0.9999,0.9999,0.9999,0.9999,1.0029,1.0169,1.0413,1.0624,1.0747,1.1046,1.1284,0.0,0.0,0.0,0.0,0.0,0.0,0.0,0.0,0.0,0.0,0.0,0.0,0.0,0.0,0.0,0.0,0.0,0.0,1.3164,1.339,1.3571,1.3752,1.4031,1.424,1.4389,1.4567,1.4686,1.4686,1.4686,1.4686,1.4686,1.4686,1.4606,1.4497,1.4754,1.5263,1.5916,1.5943,1.6096,1.6337,1.6535,1.66,1.6594,1.6635,1.6517,1.6342,0.0,0.0,0.0,0.0,0.0,0.0,0.0,0.0,0.0,0.0,0.0,0.0,0.0,0.0,0.0,0.0,0.0,0.0,0.0,0.0,0.0,0.0,0.0,0.0,0.0,0.0,0.0,0.0,0.0,0.0,0.0,0.8877,0.9008,0.9133,0.9361,0.9484,0.0,0.0,0.0,0.9588,0.0,0.0,0.9588,0.0,0.0,0.0,0.0,0.0,0.0,0.0,0.0,0.0,0.0,0.0,0.0,0.0,0.974,0.9758,0.9836,0.9862,0.9862,0.9862,0.9862,0.9862,0.9862,1.008,1.0257,1.0257,1.0529,0.0,0.0,0.0,0.0,0.0,0.0,0.0,0.0,0.0,0.0,0.0,0.0,0.0,0.0,0.0,0.0,0.0,0.0,0.0,1.2928,1.3125,1.3329,1.342,1.37,1.3911,1.407,1.424,1.433,1.433,1.433,1.433,1.433,1.43,1.4181,1.407,1.4001,1.4394,1.5074,1.5112,1.5293,1.5546,1.5716,1.5826,1.5902,1.592,1.5913,1.5859,0.0,0.0,0.0,0.0,0.0,0.0,0.0,0.0,0.0,0.0,0.0,0.0,0.0,0.0,0.0,0.0,0.0,0.0,0.0,0.0,0.0,0.0,0.0,0.0,0.0,0.0,0.0,0.0,0.0,0.0,0.0,0.0,0.8857,0.8982,0.9133,0.9263,0.9387,0.0,0.9588,0.9588,0.0,0.9588,0.9588,0.0,0.0,0.0,0.9588,0.9588,0.0,0.9588,0.0,0.0,0.0,0.0,0.0,0.0,0.0,0.9588,0.0,0.0,0.0,0.9588,0.9588,0.9588,0.9588,0.0,0.9588,0.9588,0.9863,0.0,0.0,0.0,0.0,0.0,0.0,0.0,0.0,0.0,0.0,0.0,0.0,0.0,0.0,0.0,0.0,0.0,0.0,1.2652,1.2775,1.2805,1.295,1.3268,1.342,1.358,1.3769,1.392,1.398,1.398,1.398,1.398,1.398,1.383,1.3769,1.3769,1.3571,1.367,1.4006,1.4409,1.456,1.4604,1.5012,1.527,1.5435,1.5249,1.5316,1.5417,0.0,0.0,0.0,0.0,0.0,0.0,0.0,0.0,0.0,0.0,0.0,0.0,0.0,0.0,0.0,0.0,0.0,0.0,0.0,0.0,0.0,0.0,0.0,0.0,0.0,0.0,0.0,0.0,0.0,0.0,0.0,0.0,0.0,0.0,0.885,0.8982,0.914,0.9361,0.0,0.9465,0.9562,0.9588,0.0,0.0,0.0,0.0,0.0,0.9309,0.9309,0.0,0.9309,0.9335,0.0,0.0,0.0,0.0,0.0,0.0,0.9588,0.0,0.0,0.0,0.0,0.0,0.0,0.0,0.9588,0.9588,0.9687,0.0,0.0,0.0,0.0,0.0,0.0,0.0,0.0,0.0,0.0,0.0,0.0,0.0,0.0,0.0,0.0,0.0,1.2305,1.2398,1.2428,1.2683,1.2897,1.3072,1.3133,1.3164,1.3224,1.3255,1.3285,1.3285,1.3285,1.3285,1.3285,1.3224,1.3224,1.3224,1.3164,1.3194,1.3294,1.3539,1.3665,1.3677,1.3935,1.4083,1.4178,1.4655,1.4708,1.4501,0.0,0.0,0.0,0.0,0.0,0.0,0.0,0.0,0.0,0.0,0.0,0.0,0.0,0.0,0.0,0.0,0.0,0.0,0.0,0.0,0.0,0.0,0.0,0.0,0.0,0.0,0.0,0.0,0.0,0.0,0.0,0.0,0.0,0.0,0.0,0.0,0.0,0.0,0.0,0.0,0.9413,0.0,0.0,0.9335,0.9309,0.0,0.0,0.0,0.9211,0.9211,0.9211,0.9211,0.9283,0.9413,0.0,0.0,0.0,0.0,0.0,0.0,0.0,0.0,0.0,0.0,0.9588,0.9588,0.9588,0.0,0.9588,0.0,0.0,0.0,0.0,0.0,0.0,0.0,0.0,0.0,0.0,0.0,0.0,0.0,0.0,0.0,0.0,1.1965,1.212,1.2243,1.2305,1.2498,1.2683,1.2836,1.2897,1.2928,1.2928,1.2981,1.2989,1.2989,1.2989,1.2989,1.2989,1.2928,1.2897,1.2836,1.2736,1.2674,1.2644,1.2758,1.2942,1.318,1.3242,1.3328,1.3461,1.3946,1.4005,1.3929,0.0,0.0,0.0,0.0,0.0,0.0,0.0,0.0,0.0,0.0,0.0,0.0,0.0,0.0,0.0,0.0,0.0,0.0,0.0,0.0,0.0,0.0,0.0,0.0,0.0,0.0,0.0,0.0,0.0,0.0,0.0,0.0,0.0,0.0,0.0,0.0,0.0,0.0,0.0,0.9106,0.9185,0.9211,0.0,0.0,0.9159,0.9159,0.9133,0.9106,0.9106,0.9133,0.9133,0.9159,0.9185,0.9263,0.0,0.0,0.9491,0.0,0.0,0.0,0.0,0.0,0.0,0.0,0.9588,0.9588,0.9588,0.0,0.0,0.0,0.0,0.0,0.0,0.0,0.0,0.0,0.0,0.0,0.0,0.0,0.0,0.0,1.1048,1.1434,1.1681,1.1719,1.1942,1.212,1.2274,1.2274,1.2367,1.2529,1.2652,1.2713,1.2713,1.2828,1.2889,1.2889,1.2889,1.2889,1.2897,1.2775,1.2652,1.2529,1.2375,1.2212,1.2096,1.2096,1.2428,1.2897,1.2775,1.2813,1.3012,1.3201,1.3373,1.3541,0.0,0.0,0.0,0.0,0.0,0.0,0.0,0.0,0.0,0.0,0.0,0.0,0.0,0.0,0.0,0.0,0.0,0.0,0.0,0.0,0.0,0.0,0.0,0.0,0.0,0.0,0.0,0.0,0.0,0.0,0.0,0.0,0.0,0.0,0.0,0.0,0.0,0.0,0.0,0.858,0.9028,0.0,0.9185,0.8956,0.8883,0.8857,0.8639,0.8553,0.858,0.8679,0.8791,0.891,0.9008,0.9133,0.0,0.9361,0.0,0.0,0.0,0.0,0.0,0.0,0.0,0.0,0.9588,0.9588,0.9588,0.0,0.9588,0.9588,0.0,0.0,0.0,0.0,0.0,0.0,0.0,0.0,0.0,0.0,0.0,0.0,0.0,1.077,1.0946,1.1211,1.1622,1.1934,1.212,1.2151,1.2151,1.2189,1.222,1.2251,1.2251,1.2243,1.2274,1.2274,1.2274,1.2274,1.2274,1.2251,1.222,1.2189,1.2151,1.212,1.2096,1.2096,1.2158,1.2274,1.2251,1.2259,1.2359,1.2917,1.3051,1.3017,0.0,0.0,0.0,0.0,0.0,0.0,0.0,0.0,0.0,0.0,0.0,0.6955,0.682,0.0,0.0,0.0,0.0,0.0,0.0,0.0,0.0,0.0,0.0,0.0,0.0,0.0,0.0,0.0,0.0,0.0,0.0,0.0,0.0,0.0,0.0,0.0,0.0,0.0,0.8395,0.8421,0.8685,0.0,0.8791,0.8666,0.8586,0.8586,0.8454,0.8395,0.8421,0.8474,0.8553,0.0,0.0,0.8903,0.9035,0.0,0.9283,0.9413,0.0,0.0,0.0,0.9588,0.0,0.0,0.0,0.9588,0.9588,0.9588,0.9588,0.9588,0.9588,0.0,0.0,0.0,0.0,0.0,0.0,0.0,0.0,0.0,0.0,0.0,0.0,1.0492,1.0653,1.085,1.1071,1.1353,1.1669,1.1715,1.1821,1.2089,1.2096,1.2096,1.2096,1.2096,1.2096,1.2096,1.2096,1.2096,1.2096,1.2096,1.2058,1.1965,1.1965,1.1872,1.1716,1.1716,1.1654,1.1622,1.1872,1.1903,1.1923,1.245,1.256,1.2477,0.0,0.0,0.0,0.0,0.0,0.0,0.0,0.0,0.0,0.7031,0.6928,0.682,0.6652,0.6647,0.0,0.0,0.0,0.0,0.0,0.0,0.0,0.0,0.0,0.668,0.0,0.0,0.0,0.0,0.0,0.0,0.0,0.0,0.0,0.0,0.0,0.0,0.0,0.0,0.0,0.8235,0.0,0.8289,0.8395,0.8321,0.8295,0.8295,0.8235,0.8235,0.8262,0.8295,0.8321,0.8374,0.8527,0.8659,0.0,0.0,0.0,0.0,0.0,0.0,0.0,0.0,0.0,0.9588,0.0,0.0,0.0,0.0,0.0,0.0,0.0,0.0,0.0,0.0,0.0,0.0,0.0,0.0,0.0,0.0,0.0,0.0,0.0,1.0302,1.0492,1.0492,1.055,1.0762,1.1137,1.1182,1.1398,1.1889,1.1905,1.1935,1.1996,1.1996,1.1996,1.1996,1.1996,1.1996,1.1996,1.1996,1.1903,1.1709,1.1709,1.1529,1.1272,1.1272,1.1216,1.1153,1.1529,1.1591,1.1546,1.2019,1.2078,1.2033,0.7311,0.7317,0.0,0.0,0.0,0.0,0.0,0.0,0.0,0.6761,0.6734,0.6652,0.6463,0.0,0.0,0.6255,0.0,0.0,0.6255,0.0,0.0,0.0,0.0,0.0,0.6468,0.0,0.0,0.0,0.0,0.0,0.0,0.0,0.0,0.0,0.7467,0.0,0.0,0.0,0.7601,0.0,0.7601,0.7916,0.0,0.8055,0.7955,0.7928,0.7681,0.7676,0.7803,0.0,0.8088,0.8248,0.0,0.8527,0.8705,0.9057,0.0,0.0,0.0,0.0,0.0,0.0,0.9727,0.0,0.0,0.0,0.9588,0.9588,0.0,0.0,0.0,0.0,0.0,0.0,0.0,0.0,0.0,0.0,0.0,0.0,0.0,0.0,0.0,0.0,1.0155,1.0155,1.0426,1.063,1.0667,1.0667,1.085,1.1211,1.1219,1.1359,1.1654,1.1654,1.1654,1.1654,1.1654,1.1654,1.1654,1.1654,1.156,1.1365,1.1365,1.1279,1.1122,1.1122,1.1122,1.1122,1.1153,1.1185,1.1231,1.1819,1.1908,1.1792,0.7144,0.7171,0.0,0.0,0.0,0.0,0.0,0.0,0.0,0.6544,0.6517,0.6463,0.0,0.0,0.0,0.6205,0.0,0.6205,0.0,0.0,0.0,0.0,0.0,0.0,0.0,0.0,0.0,0.0,0.6928,0.0,0.0,0.0,0.0,0.0,0.7338,0.0,0.7392,0.0,0.7494,0.0,0.0,0.0,0.0,0.7708,0.7655,0.7655,0.7547,0.7542,0.7595,0.0,0.7868,0.0,0.0,0.0,0.0,0.0,0.0,0.0,0.0,0.0,0.0,0.0,0.0,0.0,0.9632,0.0,0.9588,0.0,0.0,0.0,0.0,0.0,0.0,0.0,0.0,0.0,0.0,0.0,0.0,0.0,0.0,0.0,0.0,0.0,0.0,0.0,0.0,1.0104,1.0294,1.0302,1.0543,1.1085,1.1107,1.1261,1.1591,1.1591,1.1591,1.1591,1.1591,1.1529,1.1435,1.1435,1.1341,1.1185,1.1185,1.1028,1.0814,1.0814,1.0681,1.046,1.046,1.0586,1.0851,1.131,1.1395,1.1309,0.6977,0.0,0.0,0.0,0.0,0.0,0.0,0.0,0.0,0.0,0.0,0.0,0.62,0.6205,0.0,0.0,0.6205,0.6205,0.0,0.0,0.6205,0.0,0.0,0.0,0.0,0.0,0.0,0.0,0.0,0.0,0.0,0.0,0.0,0.0,0.0,0.7257,0.7257,0.0,0.7386,0.7386,0.7386,0.7386,0.7386,0.744,0.7413,0.7386,0.7386,0.7413,0.7451,0.7519,0.7777,0.0,0.829,0.0,0.0,0.0,0.0,0.0,0.9923,0.0,0.0,0.0,0.0,0.0,0.0,0.0,0.0,0.0,0.0,0.0,0.0,0.0,0.0,0.0,0.0,0.0,0.0,0.0,0.0,0.0,0.0,0.0,0.0,0.0,0.0,0.9588,0.9588,0.9716,0.9958,0.9965,1.0228,1.0821,1.0924,1.1129,1.1452,1.1547,1.1591,1.1591,1.1529,1.1428,1.1303,1.1272,1.1153,1.0965,1.0965,1.0744,1.0428,1.0428,1.0238,0.9926,0.9888,1.0015,1.0309,1.0805,1.088,1.0789,0.6701,0.6701,0.0,0.0,0.0,0.0,0.0,0.0,0.0,0.0,0.0,0.0,0.0,0.0,0.0,0.0,0.0,0.6205,0.6205,0.0,0.6205,0.0,0.0,0.6205,0.0,0.0,0.0,0.0,0.0,0.0,0.0,0.0,0.0,0.0,0.7036,0.7112,0.7112,0.7112,0.7112,0.7112,0.7112,0.7112,0.7139,0.0,0.723,0.7112,0.7112,0.0,0.0,0.7611,0.7773,0.0,0.0,0.0,0.0,0.0,0.0,0.0,0.0,0.0,0.0,1.0268,0.0,0.0,0.0,0.0,0.9588,0.0,0.0,0.0,0.0,0.0,0.0,0.0,0.0,0.0,0.0,0.0,0.0,0.0,0.0,0.0,0.0,0.0,0.0,0.9588,0.9588,0.9621,0.9603,0.9603,0.9782,1.0119,1.0441,1.0784,1.1114,1.1437,1.1591,1.1591,1.1404,1.1303,1.1303,1.1185,1.094,1.0624,1.0624,1.0403,1.0015,1.0015,0.9926,0.9804,0.9594,0.946,0.9429,1.0297,1.0506,1.037,0.649,0.644,0.0,0.649,0.649,0.0,0.0,0.6255,0.0,0.0,0.6398,0.0,0.0,0.6585,0.6585,0.0,0.0,0.6585,0.6585,0.6585,0.0,0.0,0.0,0.6585,0.0,0.0,0.0,0.0,0.0,0.0,0.0,0.0,0.0,0.0,0.0,0.6955,0.0,0.0,0.0,0.0,0.0,0.7036,0.6982,0.0,0.0,0.7106,0.724,0.7327,0.0,0.7688,0.7962,0.8267,0.8381,0.864,0.8965,0.9361,0.9486,0.0,0.0,0.0,1.0205,1.0198,0.0,0.0,0.0,0.0,0.0,0.0,0.0,0.0,0.0,0.0,0.0,0.0,0.0,0.0,0.0,0.0,0.0,0.0,0.0,0.0,0.0,0.0,0.0,0.9588,0.9588,0.9588,0.0,0.9588,0.976,1.0089,1.0419,1.0777,1.11,1.143,1.1529,1.1404,1.1334,1.1178,1.0958,1.0839,1.0618,1.0403,1.0269,1.0009,0.9652,0.9652,0.9498,0.928,0.921,0.9145,0.9154,0.9628,0.9868,0.9991,0.6332,0.6312,0.0,0.0,0.0,0.0,0.0,0.0,0.0,0.0,0.6614,0.0,0.6777,0.0,0.6791,0.0,0.6791,0.6791,0.6791,0.6791,0.0,0.6791,0.6791,0.0,0.0,0.0,0.0,0.0,0.0,0.6789,0.0,0.0,0.0,0.0,0.0,0.7035,0.7035,0.7142,0.7165,0.0,0.0,0.7114,0.0,0.0,0.7145,0.7158,0.0,0.7488,0.7583,0.7844,0.8118,0.8359,0.8509,0.8706,0.8985,0.9236,0.9358,0.9492,0.9754,0.9983,0.0,1.0166,1.0194,0.0,1.0003,0.0,0.0,0.0,0.0,0.0,0.0,0.0,0.0,0.0,0.0,0.0,0.0,0.9588,0.0,0.0,0.0,0.0,0.0,0.0,0.9588,0.9588,0.9588,0.9588,0.0,0.0,0.9709,0.9921,1.0353,1.0689,1.0931,1.131,1.1435,1.1303,1.1178,1.0996,1.0713,1.0555,1.0371,1.0117,0.9919,0.9684,0.9428,0.9364,0.9177,0.8926,0.8861,0.8791,0.8754,0.9097,0.9336,0.9543,0.6233,0.6389,0.0,0.0,0.6393,0.0,0.0,0.0,0.6796,0.0,0.681,0.6815,0.6824,0.6824,0.6824,0.6794,0.6794,0.6794,0.6794,0.6794,0.0,0.0,0.6824,0.6824,0.6824,0.0,0.0,0.0,0.0,0.0,0.0,0.0,0.0,0.0,0.7225,0.0,0.7285,0.7285,0.7315,0.7315,0.7315,0.7285,0.7285,0.7295,0.7257,0.7247,0.7441,0.7638,0.7825,0.8117,0.8192,0.8267,0.866,0.877,0.8802,0.8952,0.9113,0.93,0.9454,0.9626,0.9862,1.0212,0.0,0.0,0.0,0.0,0.9848,0.0,0.0,0.0,0.0,0.0,0.0,0.0,0.0,0.0,0.0,0.0,0.0,0.0,0.0,0.0,0.0,0.9588,0.9588,0.9588,0.9588,0.9588,0.0,0.0,0.9588,0.9588,1.0243,1.0587,1.0587,1.1049,1.1303,1.1272,1.0958,1.0713,1.0593,1.0371,1.0085,0.9766,0.9562,0.9396,0.9274,0.9049,0.8894,0.8738,0.8544,0.8344,0.823,0.8703,0.8908,0.8993,0.6604,0.6674,0.6693,0.0,0.6679,0.6712,0.0,0.0,0.0,0.0,0.7109,0.7108,0.7099,0.7086,0.7053,0.6898,0.6861,0.0,0.0,0.0,0.0,0.7081,0.7086,0.7177,0.7305,0.7332,0.0,0.7332,0.0,0.0,0.7109,0.0,0.0,0.0,0.0,0.7141,0.7141,0.7255,0.7315,0.7315,0.7315,0.723,0.0,0.0,0.7374,0.736,0.7521,0.7603,0.7701,0.8075,0.8212,0.8254,0.849,0.8576,0.8608,0.8802,0.8894,0.899,0.9274,0.946,0.9658,0.9983,1.0154,1.0305,0.0,0.0,0.0,0.0,0.0,0.0,0.0,0.0,0.0,0.0,0.0,0.0,0.0,0.0,0.0,0.9588,0.0,0.0,0.9588,0.9588,0.9588,0.9588,0.9588,0.9588,0.0,0.0,0.0,0.9588,1.0243,1.053,1.0379,1.0988,1.1178,1.0933,1.0744,1.0561,1.0371,0.9913,0.9652,0.9556,0.9274,0.9049,0.8926,0.8705,0.8506,0.8333,0.8182,0.8019,0.7882,0.8297,0.8384,0.8296,0.6768,0.6892,0.0,0.6982,0.0,0.0,0.6967,0.6971,0.0,0.7181,0.7131,0.0,0.7064,0.7073,0.7012,0.6913,0.6913,0.0,0.6913,0.0,0.0,0.7073,0.7073,0.7171,0.7363,0.7363,0.0,0.7489,0.0,0.0,0.7318,0.0,0.0,0.0,0.0,0.7267,0.7271,0.736,0.7386,0.7386,0.7386,0.0,0.0,0.7397,0.744,0.744,0.7541,0.7641,0.782,0.8033,0.8107,0.8144,0.8312,0.8376,0.8409,0.8608,0.8738,0.8867,0.9113,0.93,0.9492,0.9919,1.0079,1.0229,1.0417,1.0293,1.0066,0.0,0.0,0.0,0.0,0.0,0.0,0.0,0.0,0.0,0.0,0.0,0.0,0.0,0.9588,0.0,0.9588,0.9588,0.9588,0.9588,0.9588,0.0,0.0,0.0,0.0,0.9588,1.016,1.0408,1.0293,1.0836,1.0965,1.0713,1.0555,1.0301,0.9945,0.9652,0.9422,0.9268,0.8926,0.8738,0.8641,0.8382,0.8214,0.8079,0.7852,0.7657,0.7512,0.7626,0.7734,0.7815,0.6836,0.7047,0.0,0.0,0.0,0.0,0.0,0.7159,0.0,0.7171,0.0,0.6881,0.6881,0.6881,0.6881,0.6848,0.0,0.6848,0.6848,0.6848,0.6848,0.6881,0.6881,0.6975,0.7171,0.7171,0.7265,0.0,0.7456,0.7456,0.7489,0.0,0.0,0.0,0.0,0.0,0.0,0.7489,0.7489,0.7489,0.7489,0.7489,0.7489,0.7489,0.7489,0.7489,0.7489,0.7689,0.7949,0.7954,0.7954,0.7987,0.8139,0.8172,0.8236,0.8409,0.8608,0.8802,0.8952,0.9113,0.937,0.9888,0.9983,1.0046,1.0319,1.026,1.0129,0.9987,0.9799,0.9665,0.0,0.0,0.0,0.0,0.0,0.0,0.0,0.0,0.0,0.0,0.0,0.0,0.0,0.9588,0.9588,0.9588,0.9588,0.0,0.0,0.0,0.0,0.9562,1.0049,0.0,1.0243,0.0,1.0713,1.0561,1.0301,0.9945,0.9486,0.9422,0.9236,0.892,0.8608,0.8447,0.8414,0.809,0.7922,0.7857,0.7591,0.733,0.7138,0.6913,0.7056,0.7391,0.7131,0.7159,0.0,0.0,0.0,0.6966,0.6967,0.6957,0.6946,0.6946,0.6913,0.6848,0.6741,0.6741,0.6675,0.6519,0.6486,0.0,0.0,0.0,0.0,0.6741,0.6741,0.6806,0.6946,0.6946,0.704,0.7265,0.7265,0.733,0.7489,0.0,0.0,0.0,0.0,0.0,0.7489,0.7489,0.0,0.7489,0.7489,0.7489,0.7489,0.7489,0.7489,0.7489,0.7489,0.7521,0.7591,0.7727,0.7764,0.7792,0.7982,0.8107,0.8204,0.8236,0.8409,0.8608,0.892,0.9017,0.921,0.9856,0.9983,1.0129,1.0613,1.0615,1.0452,1.0279,1.0105,0.9936,0.9665,0.0,0.0,0.0,0.0,0.0,0.0,0.0,0.0,0.0,0.0,0.9588,0.0,0.0,0.0,0.0,0.0,0.0,0.0,0.0,0.0,0.0,0.0,0.0,0.0,0.0,1.053,1.0333,0.9881,0.9588,0.9486,0.9113,0.8802,0.8576,0.8339,0.8177,0.8084,0.7857,0.7596,0.7335,0.7269,0.7138,0.6913,0.6618,0.6535,0.6626,0.7055,0.0,0.0,0.0,0.0,0.0,0.0,0.6651,0.0,0.6778,0.6712,0.6613,0.6548,0.6548,0.6515,0.642,0.6387,0.6387,0.6387,0.6387,0.6453,0.6548,0.6548,0.6613,0.6778,0.6811,0.6876,0.704,0.704,0.7138,0.733,0.0,0.0,0.7489,0.0,0.7489,0.0,0.0,0.0,0.7489,0.7489,0.7489,0.7489,0.7489,0.7489,0.7489,0.7489,0.7489,0.7521,0.7559,0.7596,0.7624,0.7792,0.7954,0.8112,0.8172,0.8339,0.8576,0.8926,0.8985,0.9145,0.9824,0.9983,1.011,1.0586,1.0636,1.0536,1.0249,1.0128,1.0002,0.9672,0.9588,0.0,0.0,0.0,0.0,0.0,0.0,0.0,0.0,0.0,0.0,0.0,0.0,0.0,0.0,0.0,0.0,0.0,0.0,0.0,0.0,0.0,0.0,0.0,0.0,0.0,0.9875,0.962,0.9358,0.9113,0.8802,0.8544,0.8339,0.8047,0.7922,0.7824,0.7563,0.7269,0.704,0.697,0.6811,0.6585,0.6255,0.602,0.5914,0.6881,0.6848,0.0,0.0,0.6642,0.0,0.6416,0.6387,0.6449,0.6609,0.6482,0.6387,0.6387,0.6387,0.6387,0.6387,0.6387,0.6387,0.6387,0.6387,0.6387,0.6387,0.6387,0.6482,0.6642,0.6642,0.6708,0.0,0.6848,0.6942,0.0,0.0,0.0,0.0,0.0,0.0,0.0,0.0,0.7489,0.7489,0.7489,0.7489,0.7489,0.7489,0.7489,0.7489,0.7489,0.7489,0.7489,0.7489,0.7489,0.7526,0.7629,0.7792,0.7954,0.8107,0.8274,0.8506,0.8894,0.8985,0.9145,0.9824,0.9983,1.011,1.0498,1.0622,1.0574,1.026,1.015,1.0002,0.9672,0.9588,0.0,0.0,0.0,0.0,0.0,0.0,0.0,0.0,0.0,0.0,0.9361,0.0,0.0,0.0,0.0,0.9465,0.9361,0.9361,0.0,0.0,0.0,0.9793,0.9678,0.0,0.9913,0.0,0.939,0.9145,0.8738,0.8511,0.8312,0.8074,0.7824,0.7666,0.7568,0.7269,0.7007,0.6782,0.6679,0.6478,0.6185,0.5892,0.5557,0.5309,0.0,0.0,0.0,0.0,0.0,0.0,0.642,0.6387,0.642,0.6416,0.642,0.6387,0.6387,0.6387,0.6387,0.6387,0.6387,0.6387,0.6387,0.6387,0.6387,0.6387,0.6387,0.642,0.6416,0.6416,0.6515,0.0,0.6708,0.6778,0.0,0.0,0.0,0.0,0.0,0.0,0.0,0.7489,0.7489,0.7489,0.7489,0.7489,0.7489,0.7489,0.7489,0.7489,0.7489,0.7489,0.7489,0.7489,0.7489,0.7489,0.7521,0.7629,0.7764,0.7954,0.8112,0.8333,0.8856,0.8985,0.9145,0.9824,0.9983,1.011,1.0498,1.0692,1.0739,1.0588,1.0308,1.0002,0.9672,0.9588,0.9588,0.0,0.0,0.0,0.0,0.0,0.9237,0.9237,0.0,0.0,0.0,0.0,0.0,0.0,0.9237,0.9237,0.9211,0.9211,0.9257,0.9371,0.0,0.9718,0.9868,0.9668,0.0,0.9486,0.9081,0.8738,0.8511,0.8306,0.8047,0.7759,0.7731,0.7531,0.7237,0.7007,0.6749,0.6453,0.6416,0.6115,0.565,0.5491,0.5196,0.4797,0.0,0.0,0.0,0.0,0.0,0.0,0.0,0.6387,0.6387,0.6387,0.6387,0.6387,0.6387,0.6387,0.6387,0.6387,0.6387,0.6387,0.6387,0.6387,0.6387,0.6387,0.6387,0.6387,0.6387,0.6387,0.6449,0.0,0.0,0.0,0.0,0.0,0.0,0.0,0.0,0.7138,0.7138,0.7138,0.7138,0.7138,0.7138,0.7138,0.7138,0.7138,0.7138,0.7171,0.7265,0.733,0.733,0.7456,0.7489,0.7489,0.7489,0.7591,0.7731,0.7954,0.8112,0.8333,0.8856,0.8985,0.9145,0.9824,0.9983,1.011,1.0498,1.0713,1.0718,1.0471,1.0129,0.9822,0.9694,0.9489,0.9361,0.0,0.0,0.0,0.0,0.0,0.0,0.9211,0.0,0.9133,0.0,0.0,0.0,0.0,0.0,0.914,0.8962,0.8956,0.0,0.9053,0.0,0.9364,0.9407,0.9486,0.93,0.8894,0.8705,0.8479,0.8182,0.7987,0.7727,0.74,0.74,0.7204,0.6872,0.6679,0.6482,0.6247,0.6017,0.5752,0.5425,0.506,0.4661,0.4228,0.6387,0.0,0.6387,0.0,0.6387,0.6387,0.6387,0.6387,0.6387,0.6387,0.6387,0.6387,0.6387,0.6387,0.6387,0.6387,0.6387,0.6407,0.6497,0.6501,0.6522,0.657,0.6578,0.0,0.6578,0.6526,0.6501,0.6501,0.6411,0.0,0.0,0.0,0.0,0.0,0.6881,0.6913,0.6913,0.6913,0.6913,0.6913,0.6913,0.6913,0.6913,0.6913,0.6913,0.6913,0.7073,0.7106,0.7138,0.733,0.7428,0.7428,0.7493,0.7559,0.7694,0.7922,0.8079,0.8269,0.8797,0.8958,0.9145,0.9722,0.9919,1.0079,1.0434,1.0618,1.0662,1.035,1.013,0.9918,0.9736,0.9498,0.9316,0.9225,0.0,0.0,0.0,0.0,0.0,0.0,0.9001,0.8903,0.8699,0.0,0.0,0.0,0.0,0.0,0.0,0.0,0.0,0.0,0.0,0.0,0.0,0.9174,0.8952,0.8517,0.8414,0.8182,0.7889,0.7661,0.74,0.7106,0.7073,0.6872,0.6609,0.6416,0.6181,0.5951,0.5653,0.5355,0.503,0.4595,0.4125,0.3627,0.6387,0.6387,0.6387,0.6387,0.6387,0.6387,0.6387,0.6387,0.6387,0.6387,0.6387,0.6387,0.6387,0.6387,0.6387,0.6387,0.6387,0.6497,0.668,0.6692,0.6769,0.0,0.0,0.6984,0.6984,0.6812,0.6692,0.6692,0.0,0.0,0.642,0.0,0.6708,0.6708,0.6843,0.6913,0.6913,0.6913,0.6913,0.6913,0.6913,0.6913,0.6913,0.6913,0.6913,0.6913,0.6913,0.6913,0.6946,0.7138,0.7204,0.7237,0.7428,0.7489,0.7559,0.7884,0.7987,0.8117,0.8673,0.8894,0.9081,0.9422,0.9754,1.0047,1.0269,1.0466,1.0537,1.035,1.0433,1.0401,0.9813,0.9701,0.9602,0.926,0.0,0.0,0.0,0.0,0.0,0.86,0.8501,0.8401,0.8395,0.0,0.0,0.0,0.0,0.0,0.0,0.0,0.0,0.8984,0.9077,0.0,0.93,0.8765,0.8517,0.8484,0.8155,0.7889,0.7699,0.7368,0.7106,0.6881,0.6778,0.6581,0.6387,0.6247,0.5885,0.5395,0.5395,0.4964,0.43,0.4097,0.3591,0.2924,0.6387,0.6387,0.6387,0.6387,0.6387,0.6387,0.6387,0.6387,0.6387,0.6387,0.6387,0.6387,0.6387,0.6387,0.6469,0.0,0.6607,0.6684,0.0,0.6906,0.6931,0.6988,0.6988,0.6988,0.6988,0.6935,0.6906,0.6906,0.0,0.0,0.0,0.6886,0.6921,0.6921,0.6955,0.6955,0.6955,0.6955,0.6889,0.6776,0.6776,0.6668,0.6552,0.6552,0.6552,0.6581,0.6712,0.6778,0.6778,0.6946,0.7073,0.7204,0.7265,0.7396,0.7526,0.7727,0.7889,0.8084,0.8479,0.8797,0.9081,0.9422,0.9754,1.0047,1.0244,1.0466,1.0598,1.0528,1.0377,1.0211,1.0021,0.9569,0.9184,0.9091,0.8797,0.0,0.0,0.0,0.0,0.0,0.8421,0.8321,0.0,0.8062,0.0,0.0,0.0,0.0,0.0,0.0,0.0,0.0,0.8581,0.0,0.8765,0.8436,0.8182,0.7959,0.7862,0.7629,0.7368,0.711,0.6909,0.6741,0.6581,0.6416,0.6214,0.5822,0.5557,0.5362,0.4831,0.4431,0.403,0.3527,0.2958,0.2354,0.6387,0.6387,0.6387,0.6387,0.6387,0.6387,0.6387,0.6387,0.6387,0.6387,0.6387,0.6387,0.6387,0.6481,0.0,0.6684,0.6696,0.6798,0.7073,0.7094,0.7118,0.7188,0.7188,0.7188,0.7188,0.0,0.0,0.7094,0.702,0.6988,0.6988,0.6988,0.6988,0.6988,0.6988,0.6988,0.6988,0.6988,0.6926,0.6829,0.6829,0.6721,0.6611,0.6546,0.6518,0.6505,0.6568,0.6581,0.6609,0.6778,0.6909,0.7036,0.7171,0.7297,0.7428,0.7634,0.7857,0.8052,0.8312,0.8694,0.9049,0.9268,0.9626,0.9989,1.0238,1.0466,1.0593,1.0593,1.0383,1.0124,1.0049,0.9584,0.9195,0.9092,0.8773,0.8527,0.8473,0.0,0.0,0.0,0.0,0.0,0.0,0.785,0.0,0.0,0.0,0.0,0.0,0.0,0.0,0.8231,0.8286,0.0,0.8317,0.8112,0.7884,0.7629,0.7466,0.7269,0.7003,0.6876,0.6708,0.6511,0.6379,0.6152,0.5885,0.5528,0.5229,0.493,0.4398,0.3964,0.356,0.2922,0.2319,0.1681,0.6387,0.6387,0.0,0.0,0.6387,0.0,0.6387,0.6387,0.6387,0.6387,0.6387,0.6391,0.6436,0.6591,0.6704,0.6729,0.0,0.0,0.0,0.7207,0.7317,0.7476,0.7484,0.7484,0.7484,0.7326,0.7207,0.7207,0.711,0.7024,0.7024,0.7024,0.7024,0.7024,0.7024,0.7024,0.7024,0.7024,0.7016,0.7008,0.7008,0.7,0.6971,0.6773,0.6704,0.6706,0.6501,0.6403,0.6436,0.6613,0.6675,0.6741,0.7073,0.7167,0.7269,0.7596,0.7824,0.8014,0.8139,0.856,0.8985,0.8985,0.9408,0.99,1.0212,1.0434,1.0561,1.0561,1.0396,1.0191,0.9962,0.9714,0.949,0.9231,0.8947,0.8701,0.8596,0.0,0.0,0.0,0.0,0.0,0.0,0.7722,0.7802,0.0,0.0,0.0,0.0,0.0,0.8004,0.8073,0.8116,0.8107,0.7954,0.7759,0.7596,0.7461,0.7073,0.6811,0.6675,0.6675,0.6478,0.6181,0.6148,0.5851,0.5395,0.5329,0.4897,0.4267,0.403,0.3527,0.2889,0.2321,0.1648,0.0908,0.0,0.0,0.6387,0.6387,0.6387,0.6387,0.6387,0.6387,0.6387,0.6387,0.6387,0.6473,0.6615,0.6672,0.6806,0.7042,0.7066,0.7192,0.7407,0.7423,0.7439,0.748,0.7484,0.7484,0.7484,0.7443,0.7423,0.7423,0.7378,0.7396,0.7396,0.7396,0.7396,0.7396,0.7396,0.7396,0.7396,0.7396,0.7281,0.7159,0.7159,0.7078,0.6984,0.6943,0.6926,0.6902,0.6692,0.6631,0.6607,0.6498,0.6576,0.6708,0.6806,0.7003,0.7237,0.7493,0.7661,0.7824,0.7982,0.8312,0.8673,0.8926,0.9408,0.9836,1.0021,1.011,1.0142,1.0142,1.011,1.0059,0.9996,0.9556,0.9199,0.9138,0.867,0.8335,0.8305,0.8195,0.0,0.0,0.7976,0.7826,0.7744,0.7653,0.7538,0.0,0.0,0.0,0.0,0.7542,0.7593,0.7716,0.7775,0.7759,0.7624,0.7428,0.7237,0.704,0.6839,0.6646,0.6482,0.6379,0.6181,0.5954,0.569,0.5524,0.5362,0.4797,0.4364,0.403,0.346,0.2891,0.2321,0.1614,0.0908,0.0168,0.6387,0.6387,0.6387,0.6387,0.6387,0.6387,0.6387,0.6387,0.6387,0.6387,0.6493,0.6583,0.6684,0.6838,0.7017,0.7171,0.7187,0.7297,0.7472,0.7484,0.7484,0.7484,0.7484,0.7484,0.7484,0.7484,0.7484,0.7484,0.7484,0.7484,0.7484,0.7484,0.7484,0.7484,0.7484,0.7484,0.7484,0.7484,0.7431,0.7342,0.7342,0.7285,0.7224,0.7143,0.7078,0.7054,0.6914,0.6849,0.682,0.6607,0.6605,0.6685,0.67,0.6839,0.7036,0.7297,0.7531,0.7731,0.7954,0.8252,0.8608,0.9022,0.9402,0.9696,0.9862,0.9958,0.9983,0.9983,0.9951,0.9894,0.9786,0.9441,0.915,0.9062,0.8667,0.8325,0.8204,0.808,0.0,0.7795,0.7731,0.7642,0.7588,0.7567,0.7507,0.7345,0.0,0.0,0.7418,0.7359,0.7391,0.7551,0.7501,0.74,0.7232,0.7068,0.6905,0.6811,0.6576,0.6412,0.6317,0.6148,0.5921,0.566,0.5495,0.5196,0.4864,0.4364,0.393,0.3491,0.2857,0.2253,0.1614,0.0874,0.0134,-0.0605,0.6387,0.6387,0.6387,0.6387,0.6387,0.6387,0.6387,0.6387,0.6395,0.6457,0.6599,0.6717,0.6769,0.7045,0.7199,0.7223,0.7227,0.7326,0.7476,0.7484,0.7484,0.7484,0.7484,0.7484,0.7484,0.7484,0.7484,0.7484,0.7484,0.7484,0.7484,0.7484,0.7484,0.7484,0.7484,0.7484,0.7484,0.7484,0.7484,0.7484,0.7484,0.7484,0.7468,0.7322,0.7227,0.724,0.7098,0.7033,0.7004,0.6794,0.6759,0.6761,0.6743,0.6759,0.6817,0.7089,0.7414,0.7705,0.7899,0.822,0.8608,0.9119,0.9332,0.9492,0.967,0.983,0.9888,0.9888,0.9798,0.967,0.946,0.93,0.9145,0.8952,0.8713,0.8454,0.8199,0.0,0.7722,0.7446,0.7386,0.7355,0.7355,0.7469,0.7484,0.7385,0.7495,0.747,0.0,0.7138,0.7232,0.7358,0.7237,0.7073,0.6881,0.6708,0.6609,0.6609,0.6313,0.6148,0.6115,0.5921,0.5624,0.5296,0.5263,0.4864,0.4197,0.3961,0.3458,0.2822,0.2253,0.158,0.084,0.0101,-0.0638,-0.1379,0.6387,0.6387,0.6387,0.6387,0.6387,0.6387,0.6387,0.6387,0.6473,0.6631,0.668,0.681,0.7074,0.7155,0.7285,0.7431,0.7443,0.7456,0.748,0.7484,0.7484,0.7484,0.7484,0.7484,0.7484,0.7484,0.7484,0.7484,0.7484,0.7484,0.7484,0.7484,0.7484,0.7484,0.7484,0.7484,0.7484,0.7484,0.7484,0.7484,0.7484,0.7484,0.748,0.7452,0.7443,0.7419,0.7244,0.7183,0.7155,0.7008,0.6947,0.6939,0.695,0.7039,0.711,0.6992,0.7226,0.7562,0.7715,0.8122,0.8549,0.8802,0.899,0.9145,0.9338,0.9402,0.9402,0.9402,0.9402,0.9306,0.9113,0.8958,0.8802,0.8608,0.8404,0.8216,0.806,0.0,0.7945,0.7913,0.7757,0.7629,0.7629,0.7399,0.7251,0.7219,0.7088,0.7012,0.6946,0.6946,0.6909,0.6839,0.6909,0.6876,0.6741,0.6445,0.6276,0.628,0.6053,0.5851,0.5683,0.5557,0.5263,0.4864,0.4597,0.4231,0.3825,0.3357,0.2824,0.2255,0.1547,0.0807,0.0067,-0.0672,-0.1412,-0.2119,0.6387,0.6387,0.6387,0.6387,0.6387,0.6387,0.6387,0.6497,0.6591,0.6684,0.6863,0.7045,0.7171,0.7197,0.7247,0.7326,0.7249,0.7173,0.7173,0.7365,0.7484,0.7484,0.7484,0.7484,0.7484,0.7484,0.7484,0.7484,0.7484,0.7484,0.7484,0.7484,0.7484,0.7484,0.7484,0.7484,0.7484,0.7484,0.7484,0.7484,0.7484,0.7484,0.7484,0.7484,0.7484,0.7472,0.7395,0.7366,0.7338,0.7159,0.7098,0.7082,0.702,0.7059,0.7074,0.7057,0.727,0.7522,0.7658,0.7959,0.8284,0.8576,0.8673,0.8797,0.9081,0.9145,0.9145,0.9145,0.9145,0.9049,0.8765,0.8673,0.8544,0.8284,0.8144,0.0,0.0,0.7824,0.7824,0.7754,0.7559,0.7433,0.7433,0.7204,0.704,0.704,0.6946,0.6881,0.6811,0.6778,0.6712,0.6548,0.6613,0.6581,0.6441,0.6276,0.6148,0.605,0.5756,0.5591,0.5491,0.5123,0.4794,0.45,0.4164,0.3794,0.3324,0.279,0.2185,0.1547,0.0806,0.0067,-0.0672,-0.1412,-0.2153,-0.2824,0.6387,0.6387,0.6387,0.6387,0.6383,0.6366,0.6406,0.6493,0.6575,0.6666,0.6909,0.7092,0.7131,0.7141,0.7142,0.7142,0.698,0.6903,0.6903,0.7173,0.7365,0.7365,0.7365,0.7365,0.7365,0.7365,0.7365,0.7365,0.7365,0.7365,0.7365,0.7365,0.7365,0.7446,0.7446,0.7446,0.7484,0.7484,0.7484,0.7484,0.7484,0.7484,0.7484,0.7484,0.7484,0.7484,0.7484,0.7484,0.7464,0.733,0.7285,0.7261,0.7155,0.711,0.7138,0.7201,0.7303,0.7469,0.7707,0.7906,0.8129,0.8379,0.8467,0.8516,0.8808,0.8894,0.8894,0.8894,0.8894,0.8797,0.8447,0.8382,0.8284,0.7987,0.0,0.0,0.0,0.7596,0.7531,0.7363,0.7232,0.7138,0.7138,0.6975,0.6848,0.6848,0.6815,0.6745,0.6642,0.6642,0.6548,0.635,0.635,0.6284,0.6148,0.6079,0.5951,0.5789,0.5462,0.5292,0.5196,0.4728,0.4361,0.4097,0.3761,0.3291,0.2688,0.2153,0.1513,0.0773,0.0034,-0.0706,-0.1446,-0.2153,-0.2857,-0.3558,0.6387,0.6387,0.6387,0.6387,0.628,0.6269,0.6367,0.6268,0.6246,0.6552,0.6615,0.6723,0.6908,0.6934,0.6942,0.6942,0.6903,0.6903,0.6903,0.6942,0.6938,0.6938,0.6938,0.6938,0.6938,0.6938,0.6938,0.6938,0.6938,0.6938,0.6938,0.6938,0.7057,0.7219,0.7219,0.7334,0.7484,0.7484,0.7484,0.7484,0.7484,0.7484,0.7484,0.7484,0.7484,0.7484,0.7484,0.7484,0.748,0.7468,0.7464,0.746,0.7447,0.7443,0.7411,0.7253,0.7207,0.7324,0.7852,0.8143,0.8279,0.8322,0.8305,0.8351,0.85,0.8549,0.8549,0.8549,0.8549,0.8447,0.8084,0.8052,0.7954,0.7764,0.0,0.0,0.7269,0.7237,0.7171,0.6979,0.6946,0.6913,0.6913,0.6811,0.6708,0.6708,0.6548,0.6416,0.6416,0.6416,0.635,0.6214,0.6214,0.6115,0.5921,0.5749,0.5587,0.5428,0.5223,0.4957,0.4658,0.4431,0.4028,0.3553,0.319,0.2654,0.1951,0.1412,0.0739,0.0,-0.0739,-0.148,-0.2186,-0.2891,-0.3591,-0.432,0.628,0.628,0.625,0.6229,0.618,0.62,0.6327,0.6373,0.6452,0.6574,0.6712,0.6798,0.6896,0.6788,0.6714,0.6714,0.6602,0.6525,0.6525,0.6525,0.6641,0.6899,0.6903,0.6903,0.6903,0.6903,0.6903,0.6903,0.6903,0.6903,0.6903,0.6903,0.6942,0.7022,0.7022,0.7061,0.7134,0.7253,0.7296,0.7334,0.7446,0.7484,0.7484,0.7484,0.7484,0.7484,0.7484,0.7484,0.7484,0.7484,0.7484,0.7484,0.7484,0.7484,0.7472,0.7403,0.7488,0.7621,0.7808,0.7925,0.7995,0.809,0.8215,0.8334,0.8525,0.8572,0.8572,0.8572,0.8464,0.8299,0.8056,0.7843,0.7624,0.7433,0.0,0.7176,0.7045,0.7007,0.6979,0.6913,0.6811,0.6778,0.6778,0.6613,0.6515,0.6515,0.6453,0.635,0.628,0.6152,0.602,0.5848,0.5752,0.5723,0.5719,0.5554,0.5388,0.5223,0.4794,0.4461,0.4225,0.3794,0.3391,0.2987,0.252,0.1983,0.1344,0.0706,0.0,-0.0739,-0.148,-0.2218,-0.2891,-0.3625,-0.4356,-0.509,0.6189,0.6163,0.615,0.6148,0.6146,0.6128,0.6281,0.6364,0.6421,0.6509,0.661,0.6714,0.6714,0.6602,0.6486,0.6486,0.6374,0.63,0.63,0.63,0.6412,0.6714,0.6714,0.6714,0.6714,0.6714,0.6714,0.6714,0.6714,0.6714,0.6714,0.6714,0.6753,0.6788,0.6788,0.6826,0.6903,0.7061,0.7142,0.7223,0.7334,0.7446,0.7484,0.7484,0.7484,0.7484,0.7484,0.7484,0.7484,0.7484,0.7484,0.7484,0.7484,0.7484,0.7484,0.7484,0.7603,0.7723,0.7723,0.7759,0.7834,0.7906,0.8036,0.8201,0.8382,0.8398,0.8438,0.8508,0.8359,0.8147,0.7975,0.7686,0.7435,0.7238,0.7101,0.6946,0.6856,0.6843,0.6815,0.6749,0.6646,0.6609,0.6609,0.6482,0.6387,0.6387,0.635,0.6284,0.6115,0.5921,0.5719,0.5554,0.5392,0.5289,0.5286,0.5226,0.5093,0.4858,0.4398,0.403,0.3727,0.3259,0.2822,0.2418,0.1883,0.1311,0.0706,-0.0034,-0.0773,-0.1513,-0.222,-0.2991,-0.3725,-0.4456,-0.5219,-0.5951,0.6074,0.6107,0.6155,0.6275,0.6205,0.615,0.6263,0.6139,0.6088,0.6279,0.63,0.63,0.63,0.63,0.63,0.63,0.63,0.63,0.63,0.63,0.63,0.63,0.63,0.63,0.63,0.63,0.63,0.63,0.63,0.63,0.63,0.63,0.6412,0.6602,0.6602,0.6714,0.6903,0.6903,0.7022,0.7184,0.7184,0.7334,0.7484,0.7484,0.7484,0.7484,0.7484,0.7484,0.7484,0.7484,0.7484,0.7484,0.7484,0.7484,0.7484,0.7484,0.7484,0.7484,0.7484,0.7642,0.7795,0.7781,0.7807,0.7828,0.7985,0.8009,0.8044,0.8271,0.812,0.7974,0.7841,0.7628,0.7425,0.7224,0.7193,0.7094,0.6733,0.6708,0.6613,0.6416,0.6387,0.6387,0.6387,0.6387,0.6387,0.6387,0.628,0.6115,0.5925,0.5719,0.5521,0.5395,0.519,0.4921,0.4592,0.4728,0.4631,0.43,0.4097,0.3727,0.3192,0.2855,0.2386,0.185,0.1311,0.0672,-0.0067,-0.0806,-0.1547,-0.2288,-0.2958,-0.3794,-0.4691,-0.5352,-0.6174,-0.699,0.6103,0.61,0.6111,0.6082,0.6073,0.6091,0.628,0.6266,0.6248,0.6293,0.63,0.63,0.63,0.63,0.63,0.63,0.63,0.63,0.63,0.63,0.63,0.63,0.63,0.63,0.63,0.63,0.63,0.63,0.63,0.63,0.63,0.63,0.6338,0.6374,0.6374,0.6412,0.649,0.6637,0.6714,0.6795,0.6945,0.7019,0.7096,0.7096,0.7176,0.7296,0.7296,0.7369,0.7484,0.7484,0.7484,0.7484,0.7334,0.7176,0.7096,0.7096,0.7096,0.7096,0.7257,0.7334,0.7442,0.7728,0.7905,0.8034,0.8052,0.8076,0.8076,0.8155,0.8001,0.7861,0.7792,0.7533,0.7283,0.7223,0.7113,0.6985,0.6737,0.6713,0.663,0.6432,0.6387,0.6387,0.6387,0.6317,0.6247,0.6247,0.5947,0.5749,0.5686,0.5418,0.5219,0.519,0.4761,0.4498,0.4398,0.4434,0.4298,0.3961,0.3493,0.3056,0.2619,0.215,0.1647,0.1109,0.0571,-0.0101,-0.084,-0.158,-0.2287,-0.2991,-0.3859,-0.4658,-0.5385,-0.6207,-0.6994,-0.7749,0.6049,0.6044,0.6056,0.6095,0.6122,0.6152,0.6286,0.63,0.63,0.63,0.63,0.63,0.63,0.63,0.63,0.63,0.63,0.63,0.63,0.63,0.63,0.63,0.63,0.63,0.63,0.63,0.63,0.63,0.63,0.63,0.63,0.63,0.63,0.63,0.63,0.63,0.63,0.6412,0.6525,0.6602,0.6714,0.6826,0.6903,0.6903,0.698,0.7061,0.7061,0.7176,0.7249,0.7249,0.7249,0.7249,0.7138,0.6984,0.6903,0.6903,0.6903,0.6942,0.7061,0.7061,0.7138,0.7373,0.7642,0.7872,0.7953,0.7991,0.7991,0.8068,0.7934,0.7809,0.7809,0.7529,0.7277,0.7211,0.713,0.7033,0.6857,0.6733,0.6647,0.6542,0.6394,0.6317,0.6317,0.6181,0.605,0.598,0.5683,0.5488,0.5418,0.5123,0.4924,0.4794,0.4464,0.4167,0.3863,0.3797,0.3694,0.3491,0.2924,0.2487,0.2048,0.1445,0.0908,0.0437,-0.0168,-0.084,-0.158,-0.2287,-0.3058,-0.3825,-0.4655,-0.5517,-0.6342,-0.7125,-0.7907,-0.8662,0.5983,0.6013,0.6095,0.6276,0.63,0.63,0.63,0.63,0.63,0.63,0.63,0.63,0.63,0.63,0.63,0.63,0.63,0.63,0.63,0.63,0.63,0.63,0.63,0.63,0.63,0.63,0.63,0.63,0.63,0.63,0.63,0.63,0.63,0.63,0.63,0.63,0.63,0.63,0.6412,0.6563,0.6563,0.6676,0.6865,0.6865,0.6865,0.6865,0.6865,0.6903,0.6903,0.6903,0.6899,0.6865,0.6865,0.6865,0.6865,0.6865,0.6865,0.6865,0.6865,0.6865,0.6865,0.6903,0.7173,0.7484,0.7684,0.7765,0.7838,0.8025,0.7915,0.7765,0.7765,0.7642,0.7431,0.7236,0.7211,0.7147,0.7005,0.6795,0.669,0.6652,0.6382,0.6205,0.6205,0.5995,0.5785,0.5583,0.5458,0.5292,0.5054,0.4861,0.4597,0.4267,0.4233,0.3863,0.3159,0.2991,0.2889,0.2889,0.2354,0.1918,0.148,0.0773,0.0235,-0.0134,-0.0874,-0.1614,-0.2356,-0.3025,-0.3859,-0.4758,-0.5451,-0.6375,-0.7363,-0.8074,-0.8844,-0.962,0.6179,0.6248,0.6259,0.6293,0.63,0.63,0.63,0.63,0.63,0.63,0.63,0.63,0.63,0.63,0.63,0.63,0.63,0.63,0.63,0.63,0.63,0.63,0.63,0.63,0.63,0.63,0.63,0.63,0.63,0.63,0.63,0.63,0.63,0.63,0.63,0.63,0.63,0.63,0.6338,0.6377,0.6377,0.6374,0.6412,0.6412,0.6525,0.6676,0.6676,0.6749,0.6903,0.6903,0.6788,0.6676,0.6676,0.6563,0.6412,0.6412,0.6412,0.6451,0.6637,0.6676,0.6714,0.6865,0.698,0.7096,0.7296,0.745,0.7565,0.7638,0.7599,0.7561,0.7561,0.7522,0.7433,0.7248,0.7206,0.7067,0.6744,0.665,0.6578,0.641,0.6217,0.612,0.612,0.5862,0.555,0.5219,0.5186,0.5024,0.4725,0.4531,0.4264,0.3928,0.3594,0.3226,0.282,0.2353,0.2153,0.2119,0.1715,0.1244,0.0706,0.0134,-0.0403,-0.0908,-0.1648,-0.2354,-0.3058,-0.3925,-0.4722,-0.5484,-0.6474,-0.7326,-0.8069,-0.8909,-0.962,-1.0238,0.6282,0.63,0.63,0.63,0.63,0.63,0.63,0.63,0.63,0.63,0.63,0.63,0.63,0.63,0.63,0.63,0.63,0.63,0.63,0.63,0.63,0.63,0.63,0.63,0.63,0.63,0.63,0.63,0.63,0.63,0.63,0.63,0.63,0.63,0.63,0.63,0.63,0.63,0.63,0.63,0.63,0.63,0.63,0.63,0.6377,0.6451,0.6451,0.6528,0.6602,0.6602,0.6525,0.6451,0.6451,0.6374,0.63,0.63,0.63,0.6338,0.6412,0.6451,0.649,0.6602,0.6676,0.683,0.7022,0.7134,0.7211,0.7211,0.7211,0.7211,0.7211,0.7211,0.7173,0.7061,0.7061,0.6992,0.6791,0.6675,0.6556,0.6467,0.6247,0.6014,0.5728,0.5511,0.5256,0.499,0.4794,0.4628,0.4464,0.4131,0.3797,0.3527,0.3157,0.2755,0.2319,0.1782,0.1344,0.1008,0.0874,0.0538,0.0,-0.0538,-0.1076,-0.1648,-0.2388,-0.3092,-0.3789,-0.4688,-0.5514,-0.6305,-0.7293,-0.8134,-0.8909,-0.962,-1.0358,-1.1153,0.63,0.63,0.63,0.63,0.63,0.63,0.63,0.63,0.63,0.63,0.63,0.63,0.63,0.63,0.63,0.63,0.63,0.63,0.63,0.63,0.63,0.63,0.63,0.63,0.63,0.63,0.63,0.63,0.63,0.63,0.63,0.63,0.63,0.63,0.63,0.63,0.63,0.63,0.63,0.63,0.63,0.63,0.63,0.63,0.63,0.63,0.63,0.63,0.63,0.63,0.63,0.63,0.63,0.63,0.63,0.63,0.63,0.63,0.63,0.63,0.63,0.63,0.6412,0.6602,0.6753,0.6865,0.6903,0.6903,0.6903,0.6903,0.6903,0.6903,0.6899,0.6865,0.6865,0.6826,0.6788,0.6639,0.6559,0.6559,0.6232,0.5847,0.5357,0.5163,0.4986,0.4731,0.4467,0.4233,0.4133,0.3665,0.3295,0.3027,0.2688,0.2251,0.1715,0.1176,0.0571,-0.0134,-0.0067,-0.0269,-0.0706,-0.121,-0.1782,-0.2423,-0.3092,-0.3792,-0.4553,-0.5418,-0.6272,-0.712,-0.8004,-0.8844,-0.9652,-1.0326,-1.1146,-1.205,0.63,0.63,0.63,0.63,0.63,0.63,0.63,0.63,0.63,0.63,0.63,0.63,0.63,0.63,0.63,0.63,0.63,0.63,0.63,0.63,0.63,0.63,0.63,0.63,0.63,0.63,0.63,0.63,0.63,0.63,0.63,0.63,0.63,0.63,0.63,0.63,0.63,0.63,0.63,0.63,0.63,0.63,0.63,0.63,0.63,0.63,0.63,0.63,0.63,0.63,0.63,0.63,0.63,0.63,0.63,0.63,0.63,0.63,0.63,0.63,0.63,0.63,0.6338,0.6335,0.6377,0.6637,0.6903,0.6903,0.6903,0.6903,0.6903,0.6903,0.6826,0.6676,0.6641,0.6563,0.6412,0.6356,0.6346,0.6346,0.5975,0.5629,0.5329,0.5121,0.4822,0.4409,0.4334,0.4033,0.3393,0.3159,0.2857,0.2356,0.1951,0.1479,0.0941,0.0403,-0.0134,-0.0706,-0.1143,-0.1379,-0.148,-0.1884,-0.2455,-0.3092,-0.3823,-0.4556,-0.5326,-0.6181,-0.6961,-0.7674,-0.856,-0.9306,-1.0079,-1.1178,-1.2058,-1.2705,0.63,0.63,0.63,0.63,0.63,0.63,0.63,0.63,0.63,0.63,0.63,0.63,0.63,0.63,0.63,0.63,0.63,0.63,0.63,0.6375,0.6419,0.6419,0.6419,0.6419,0.6419,0.634,0.63,0.63,0.63,0.63,0.63,0.63,0.63,0.63,0.63,0.63,0.63,0.63,0.63,0.63,0.63,0.63,0.63,0.63,0.63,0.63,0.63,0.63,0.63,0.63,0.63,0.63,0.63,0.63,0.63,0.63,0.63,0.63,0.63,0.63,0.63,0.63,0.63,0.63,0.63,0.6451,0.6563,0.6563,0.6563,0.6563,0.6563,0.6563,0.6525,0.6451,0.6412,0.6412,0.63,0.63,0.6261,0.6099,0.574,0.5384,0.5047,0.4836,0.4487,0.3954,0.376,0.346,0.2956,0.2587,0.222,0.1884,0.1277,0.0773,0.037,-0.0302,-0.0874,-0.1412,-0.1949,-0.215,-0.2048,-0.2554,-0.3159,-0.3856,-0.4592,-0.5322,-0.602,-0.69,-0.7684,-0.8398,-0.9242,-1.0136,-1.1115,-1.1934,-1.2613,-1.3155]},{"header":{"parameterUnit":"m.s-1","parameterCategory":1,"la1":30.6,"la2":28.766,"lo1":-90.7593,"lo2":-88.6598,"dx":0.0162,"dy":0.0183,"nx":116,"ny":114,"refTime":"2023-01-29T18:00:00:Z","depth":0,"parameterNumber":3,"parameterNumberName":"V-component_of_WINDS"},"data":[0.0,0.0,0.0,0.0,0.0,0.0,0.0,0.0,0.0,0.0,0.0,0.0,0.0,0.0,0.0,0.0,0.0,0.0,0.0,0.0,0.0,0.0,0.0,0.0,0.0,0.0,0.0,0.0,0.0,0.0,0.0,0.0,0.0,0.0,0.0,0.0,0.0,0.0,0.0,0.0,0.0,0.0,0.0,0.0,0.0,0.0,0.0,0.0,0.0,0.0,0.0,0.0,0.0,0.0,0.0,0.0,0.0,0.0,0.0,0.0,0.0,0.0,0.0,0.0,0.0,0.0,0.0,0.0,0.0,0.0,0.0,0.0,0.0,0.0,0.0,0.0,0.0,0.0,0.0,0.0,0.0,0.0,0.0,0.0,0.0,0.0,0.0,0.0,0.0,0.0,0.0,0.0,0.0,0.0,0.0,0.0,0.0,0.0,0.0,0.0,0.0,0.0,0.0,0.0,0.0,0.0,0.0,0.0,0.0,0.0,0.0,0.0,0.0,0.0,0.0,0.0,0.0,0.0,0.0,0.0,0.0,0.0,0.0,0.0,0.0,0.0,0.0,0.0,0.0,0.0,0.0,0.0,0.0,0.0,0.0,0.0,0.0,0.0,0.0,0.0,0.0,0.0,0.0,0.0,0.0,0.0,0.0,0.0,0.0,0.0,0.0,0.0,0.0,0.0,0.0,0.0,0.0,0.0,0.0,0.0,0.0,0.0,0.0,0.0,0.0,0.0,0.0,0.0,0.0,0.0,0.0,0.0,0.0,0.0,0.0,0.0,0.0,0.0,0.0,0.0,0.0,0.0,0.0,0.0,0.0,0.0,0.0,0.0,0.0,0.0,0.0,0.0,0.0,0.0,0.0,0.0,0.0,0.0,0.0,0.0,0.0,0.0,0.0,0.0,0.0,0.0,0.0,0.0,0.0,0.0,0.0,0.0,0.0,0.0,0.0,0.0,0.0,0.0,0.0,0.0,0.0,0.0,0.0,0.0,0.0,0.0,0.0,0.0,0.0,0.0,0.0,0.0,0.0,0.0,0.0,0.0,0.0,0.0,0.0,0.0,0.0,0.0,0.0,0.0,0.0,0.0,0.0,0.0,0.0,0.0,0.0,0.0,0.0,0.0,0.0,0.0,0.0,0.0,0.0,0.0,0.0,0.0,0.0,0.0,0.0,0.0,0.0,0.0,0.0,0.0,0.0,0.0,0.0,0.0,0.0,0.0,0.0,0.0,0.0,0.0,0.0,0.0,0.0,0.0,0.0,0.0,0.0,0.0,0.0,0.0,0.0,0.0,0.0,0.0,0.0,0.0,0.0,0.0,0.0,0.0,0.0,0.0,0.0,0.0,0.0,0.0,0.0,0.0,0.0,0.0,0.0,0.0,0.0,0.0,0.0,0.0,0.0,0.0,0.0,0.0,0.0,0.0,0.0,0.0,0.0,0.0,0.0,0.0,0.0,0.0,0.0,0.0,0.0,0.0,0.0,0.0,0.0,0.0,0.0,0.0,0.0,0.0,0.0,0.0,0.0,0.0,0.0,0.0,0.0,0.0,0.0,0.0,0.0,0.0,0.0,0.0,0.0,0.0,0.0,0.0,0.0,0.0,0.0,0.0,0.0,0.0,0.0,0.0,0.0,0.0,0.0,0.0,0.0,0.0,0.0,0.0,0.0,0.0,0.0,0.0,0.0,0.0,0.0,0.0,0.0,0.0,0.0,0.0,0.0,0.0,0.0,0.0,0.0,0.0,0.0,0.0,0.0,0.0,0.0,0.0,0.0,0.0,0.0,0.0,0.0,0.0,0.0,0.0,0.0,0.0,0.0,0.0,0.0,0.0,0.0,0.0,0.0,0.0,0.0,0.0,0.0,0.0,0.0,0.0,0.0,0.0,0.0,0.0,0.0,0.0,0.0,0.0,0.0,0.0,0.0,0.0,0.0,0.0,0.0,0.0,0.0,0.0,0.0,0.0,0.0,0.0,0.0,0.0,0.0,0.0,0.0,0.0,0.0,0.0,0.0,0.0,0.0,0.0,0.0,0.0,0.0,0.0,0.0,0.0,0.0,0.0,0.0,0.0,0.0,0.0,0.0,0.0,0.0,0.0,0.0,0.0,0.0,0.0,0.0,0.0,0.0,0.0,0.0,0.0,0.0,0.0,0.0,0.0,0.0,0.0,0.0,0.0,0.0,0.0,0.0,0.0,0.0,0.0,0.0,0.0,0.0,0.0,0.0,0.0,0.0,0.0,0.0,0.0,0.0,0.0,0.0,0.0,0.0,0.0,0.0,0.0,0.0,0.0,0.0,0.0,0.0,0.0,0.0,0.0,0.0,0.0,0.0,0.0,0.0,0.0,0.0,0.0,0.0,0.0,0.0,0.0,0.0,0.0,0.0,0.0,0.0,0.0,0.0,0.0,0.0,0.0,0.0,0.0,0.0,0.0,0.0,0.0,0.0,0.0,0.0,0.0,0.0,0.0,0.0,0.0,0.0,0.0,0.0,0.0,0.0,0.0,0.0,0.0,0.0,0.0,0.0,0.0,0.0,0.0,0.0,0.0,0.0,0.0,0.0,0.0,0.0,0.0,0.0,0.0,0.0,0.0,0.0,0.0,0.0,0.0,0.0,0.0,0.0,0.0,0.0,0.0,0.0,0.0,0.0,0.0,0.0,0.0,0.0,0.0,0.0,0.0,0.0,0.0,0.0,0.0,0.0,0.0,0.0,0.0,0.0,0.0,0.0,0.0,0.0,0.0,0.0,0.0,0.0,0.0,0.0,0.0,0.0,0.0,0.0,0.0,0.0,0.0,0.0,0.0,0.0,0.0,0.0,0.0,0.0,0.0,0.0,0.0,0.0,0.0,0.0,0.0,0.0,0.0,0.0,0.0,0.0,0.0,0.0,0.0,0.0,0.0,0.0,0.0,0.0,0.0,0.0,0.0,0.0,0.0,0.0,0.0,0.0,0.0,0.0,0.0,0.0,0.0,0.0,0.0,0.0,0.0,0.0,0.0,0.0,0.0,0.0,0.0,0.0,0.0,0.0,0.0,0.0,0.0,0.0,0.0,0.0,0.0,0.0,0.0,0.0,0.0,0.0,0.0,0.0,0.0,0.0,0.0,0.0,0.0,0.0,0.0,0.0,0.0,0.0,0.0,0.0,0.0,0.0,0.0,0.0,0.0,0.0,0.0,0.0,0.0,0.0,0.0,0.0,0.0,0.0,0.0,0.0,0.0,0.0,0.0,0.0,0.0,0.0,0.0,0.0,0.0,0.0,0.0,0.0,0.0,0.0,0.0,0.0,0.0,0.0,0.0,0.0,0.0,0.0,0.0,0.0,0.0,0.0,0.0,0.0,0.0,0.0,0.0,0.0,0.0,0.0,0.0,0.0,0.0,0.0,0.0,0.0,0.0,0.0,0.0,0.0,0.0,0.0,0.0,0.0,0.0,0.0,0.0,0.0,0.0,0.0,0.0,0.0,0.0,0.0,0.0,0.0,0.0,0.0,0.0,0.0,0.0,0.0,0.0,0.0,0.0,0.0,0.0,0.0,0.0,0.0,0.0,0.0,0.0,0.0,0.0,0.0,0.0,0.0,0.0,0.0,0.0,0.0,0.0,0.0,0.0,0.0,0.0,0.0,0.0,0.0,0.0,0.0,0.0,0.0,0.0,0.0,0.0,0.0,0.0,0.0,0.0,0.0,0.0,0.0,0.0,0.0,0.0,0.0,0.0,0.0,0.0,0.0,0.0,0.0,0.0,0.0,0.0,0.0,0.0,0.0,0.0,0.0,0.0,0.0,0.0,0.0,0.0,0.0,0.0,0.0,0.0,0.0,0.0,0.0,0.0,0.0,0.0,0.0,0.0,0.0,0.0,0.0,0.0,0.0,0.0,0.0,0.0,0.0,0.0,0.0,0.0,0.0,0.0,0.0,0.0,0.0,0.0,0.0,0.0,0.0,0.0,0.0,0.0,0.0,0.0,0.0,0.0,0.0,0.0,0.0,0.0,0.0,0.0,0.0,0.0,0.0,0.0,0.0,0.0,0.0,0.0,0.0,0.0,0.0,0.0,0.0,0.0,0.0,0.0,0.0,0.0,0.0,0.0,0.0,0.0,0.0,0.0,0.0,0.0,0.0,0.0,0.0,0.0,0.0,0.0,0.0,0.0,0.0,0.0,0.0,0.0,0.0,0.0,0.0,0.0,0.0,0.0,0.0,0.0,0.0,0.0,0.0,0.0,0.0,0.0,0.0,0.0,0.0,0.0,0.0,0.0,0.0,0.0,0.0,0.0,0.0,0.0,0.0,0.0,0.0,0.0,0.0,0.0,0.0,0.0,0.0,0.0,0.0,0.0,0.0,0.0,0.0,0.0,0.0,0.0,0.0,0.0,0.0,0.0,0.0,0.0,0.0,0.0,0.0,0.0,0.0,0.0,0.0,0.0,0.0,0.0,0.0,0.0,0.0,0.0,0.0,0.0,0.0,0.0,0.0,0.0,0.0,0.0,0.0,0.0,0.0,0.0,0.0,0.0,0.0,0.0,0.0,0.0,0.0,0.0,0.0,0.0,0.0,0.0,0.0,0.0,0.0,0.0,0.0,0.0,0.0,0.0,0.0,0.0,0.0,0.0,0.0,0.0,0.0,0.0,0.0,0.0,0.0,0.0,0.0,0.0,0.0,0.0,0.0,0.0,0.0,0.0,0.0,0.0,0.0,0.0,0.0,0.0,0.0,0.0,0.0,0.0,0.0,0.0,0.0,0.0,0.0,0.0,0.0,0.0,0.0,0.0,0.0,0.0,0.0,0.0,0.0,0.0,0.0,0.0,0.0,0.0,0.0,0.0,0.0,0.0,0.0,0.0,0.0,0.0,0.0,0.0,0.0,0.0,0.0,0.0,0.0,0.0,0.0,0.0,0.0,0.0,0.0,0.0,0.0,0.0,0.0,0.0,0.0,0.0,0.0,0.0,0.0,0.0,0.0,0.0,0.0,0.0,0.0,0.0,0.0,0.0,0.0,0.0,0.0,0.0,0.0,0.0,0.0,0.0,0.0,0.0,0.0,0.0,0.0,0.0,0.0,0.0,0.0,0.0,0.0,0.0,0.0,0.0,0.0,0.0,0.0,0.0,0.0,0.0,0.0,0.0,0.0,0.0,0.0,0.0,0.0,0.0,0.0,0.0,0.0,0.0,0.0,0.0,0.0,0.0,0.0,0.0,0.0,0.0,0.0,0.0,0.0,0.0,0.0,0.0,0.0,0.0,0.0,0.0,0.0,0.0,0.0,0.0,0.0,0.0,0.0,0.0,0.0,0.0,0.0,0.0,0.0,0.0,0.0,0.0,0.0,0.0,0.0,0.0,0.0,0.0,0.0,0.0,0.0,0.0,0.0,0.0,0.0,0.0,0.0,0.0,0.0,0.0,0.0,0.0,0.0,0.0,0.0,0.0,0.0,0.0,0.0,0.0,0.0,0.0,0.0,0.0,0.0,0.0,0.0,0.0,0.0,0.0,0.0,0.0,0.0,0.0,0.0,0.0,0.0,0.0,0.0,0.0,0.0,0.0,0.0,0.0,0.0,0.0,0.0,0.0,0.0,0.0,0.0,0.0,0.0,0.0,0.0,0.0,0.0,0.0,0.0,0.0,0.0,0.0,0.0,0.0,0.0,0.0,0.0,0.0,0.0,0.0,0.0,0.0,0.0,0.0,0.0,0.0,0.0,0.0,0.0,0.0,0.0,0.0,0.0,0.0,0.0,0.0,0.0,0.0,0.0,0.0,0.0,0.0,0.0,0.0,0.0,0.0,0.0,0.0,0.0,0.0,0.0,0.0,0.0,0.0,0.0,0.0,0.0,0.0,0.0,0.0,0.0,0.0,0.0,0.0,0.0,0.0,0.0,0.0,0.0,0.0,0.0,0.0,0.0,0.0,0.0,0.0,0.0,0.0,0.0,0.0,0.0,0.0,0.0,0.0,0.0,0.0,0.0,0.0,0.0,0.0,0.0,0.0,0.0,0.0,0.0,0.0,0.0,0.0,0.0,0.0,0.0,0.0,0.0,0.0,0.0,0.0,0.0,0.0,0.0,0.0,0.0,0.0,0.0,0.0,0.0,0.0,0.0,0.0,0.0,0.0,1.4287,0.0,0.0,0.0,0.0,0.0,0.0,0.0,0.0,0.0,0.0,0.0,0.0,0.0,0.0,0.0,0.0,0.0,0.0,0.0,0.0,0.0,0.0,0.0,0.0,0.0,0.0,0.0,0.0,0.0,0.0,0.0,0.0,0.0,0.0,0.0,0.0,0.0,0.0,0.0,0.0,0.0,0.0,0.0,0.0,0.0,0.0,0.0,0.0,0.0,0.0,0.0,0.0,0.0,0.0,0.0,0.0,0.0,0.0,0.0,0.0,0.0,0.0,0.0,0.0,0.0,0.0,0.0,0.0,0.0,0.0,0.0,0.0,0.0,0.0,0.0,0.0,0.0,0.0,0.0,0.0,0.0,0.0,0.0,0.0,0.0,0.0,0.0,0.0,0.0,0.0,0.0,0.0,0.0,0.0,0.0,0.0,0.0,0.0,0.0,0.0,0.0,0.0,0.0,0.0,0.0,0.0,0.0,0.0,0.0,0.0,0.0,0.0,0.0,0.0,0.0,0.0,1.474,0.0,0.0,0.0,0.0,0.0,0.0,0.0,0.0,0.0,0.0,0.0,0.0,0.0,0.0,0.0,0.0,0.0,0.0,0.0,0.0,0.0,0.0,0.0,0.0,0.0,0.0,0.0,0.0,0.0,0.0,0.0,0.0,0.0,0.0,0.0,0.0,0.0,0.0,0.0,0.0,0.0,0.0,0.0,0.0,0.0,0.0,0.0,0.0,0.0,0.0,0.0,0.0,0.0,0.0,0.0,0.0,0.0,0.0,0.0,0.0,0.0,0.0,0.0,0.0,0.0,0.0,0.0,0.0,0.0,0.0,0.0,0.0,0.0,0.0,0.0,0.0,0.0,0.0,0.0,0.0,0.0,0.0,0.0,0.0,0.0,0.0,0.0,0.0,0.0,0.0,0.0,0.0,0.0,0.0,0.0,0.0,0.0,0.0,0.0,0.0,0.0,0.0,0.0,0.0,0.0,0.0,0.0,0.0,1.6414,1.634,1.6244,1.6222,1.6144,1.6022,1.5736,1.5525,1.538,0.0,0.0,0.0,0.0,0.0,0.0,0.0,0.0,0.0,0.0,0.0,0.0,0.0,0.0,0.0,0.0,0.0,0.0,0.0,0.0,0.0,0.0,0.0,0.0,0.0,0.0,0.0,0.0,0.0,0.0,0.0,0.0,0.0,0.0,0.0,0.0,0.0,0.0,0.0,1.9597,2.0278,2.0621,2.0639,1.9253,0.0,0.0,0.0,0.0,0.0,0.0,0.0,0.0,0.0,0.0,0.0,0.0,0.0,0.0,0.0,0.0,0.0,0.0,0.0,0.0,0.0,0.0,0.0,0.0,0.0,0.0,0.0,0.0,0.0,0.0,0.0,0.0,0.0,0.0,0.0,0.0,0.0,0.0,0.0,0.0,0.0,0.0,0.0,1.7427,1.7342,0.0,0.0,0.0,0.0,0.0,0.0,0.0,0.0,0.0,0.0,0.0,0.0,0.0,1.65,1.65,1.65,1.65,1.65,1.6436,1.6392,1.6383,1.6253,1.6188,1.6178,1.6134,0.0,1.5649,1.5513,0.0,0.0,0.0,0.0,0.0,0.0,0.0,0.0,0.0,0.0,0.0,0.0,0.0,0.0,0.0,0.0,0.0,0.0,0.0,0.0,0.0,0.0,0.0,0.0,0.0,0.0,0.0,0.0,0.0,0.0,0.0,0.0,0.0,0.0,0.0,0.0,1.9967,2.0535,2.0637,2.1009,2.1222,2.1294,2.0601,2.022,2.0112,1.9744,0.0,0.0,0.0,0.0,0.0,0.0,0.0,0.0,0.0,0.0,0.0,0.0,0.0,0.0,0.0,0.0,0.0,0.0,0.0,0.0,0.0,0.0,0.0,0.0,0.0,0.0,0.0,0.0,0.0,0.0,0.0,0.0,0.0,0.0,0.0,0.0,0.0,0.0,0.0,1.7699,1.7563,1.7461,1.7406,1.7323,0.0,0.0,0.0,0.0,0.0,0.0,0.0,0.0,0.0,1.7049,1.6706,1.6651,1.6999,1.6663,1.65,1.65,1.6479,1.6457,1.6457,1.6392,1.6383,1.6383,1.634,1.6253,1.6144,1.5957,1.5903,1.5903,0.0,0.0,0.0,0.0,0.0,1.5802,0.0,0.0,0.0,0.0,0.0,0.0,0.0,0.0,0.0,0.0,0.0,0.0,0.0,0.0,0.0,1.8068,0.0,0.0,0.0,0.0,0.0,0.0,0.0,0.0,0.0,0.0,0.0,0.0,2.1134,2.1648,2.1907,2.2153,2.242,2.2637,2.2637,2.2155,2.13,2.0794,2.0661,0.0,0.0,0.0,0.0,0.0,0.0,0.0,0.0,0.0,0.0,0.0,0.0,0.0,0.0,0.0,0.0,0.0,0.0,0.0,0.0,0.0,0.0,0.0,0.0,0.0,0.0,0.0,0.0,0.0,0.0,0.0,0.0,0.0,0.0,0.0,0.0,0.0,0.0,1.8004,1.7997,1.7859,1.7959,1.8024,0.0,0.0,0.0,0.0,0.0,0.0,1.7389,1.7281,1.7393,1.7775,1.7305,1.7238,1.7657,1.7206,1.697,1.6948,1.697,1.6992,1.698,1.6863,1.68,1.6788,1.6606,1.6543,1.6586,1.634,1.6253,1.6275,1.6175,1.6132,1.6132,1.6132,1.6132,1.6154,0.0,0.0,0.0,0.0,0.0,0.0,0.0,0.0,0.0,0.0,0.0,0.0,0.0,0.0,1.8285,1.8285,1.8392,1.8537,0.0,0.0,0.0,0.0,0.0,0.0,0.0,0.0,0.0,2.1416,2.2114,2.2894,2.3788,2.4354,2.5039,2.5773,2.5773,2.4254,2.1669,2.1625,2.1703,2.1816,0.0,0.0,0.0,0.0,0.0,0.0,0.0,0.0,0.0,0.0,0.0,0.0,0.0,0.0,0.0,0.0,0.0,0.0,0.0,0.0,0.0,0.0,0.0,0.0,0.0,0.0,0.0,0.0,0.0,0.0,0.0,0.0,0.0,0.0,0.0,0.0,0.0,0.0,0.0,1.8765,1.9233,0.0,0.0,0.0,0.0,1.8988,1.8988,1.8923,1.8711,1.8688,1.8642,1.8562,1.85,1.8444,1.8365,1.8316,1.8244,1.8129,1.8244,1.8291,1.8302,1.7846,1.7626,1.76,1.7098,1.6876,1.6854,1.6534,1.6436,1.6479,1.6479,1.6466,1.6466,1.6466,1.6466,1.65,0.0,0.0,0.0,0.0,0.0,0.0,0.0,0.0,0.0,0.0,0.0,0.0,0.0,1.8611,1.863,1.863,1.8664,1.8702,1.876,0.0,0.0,0.0,0.0,0.0,0.0,0.0,2.2258,2.3056,2.3745,2.4554,2.5392,2.5583,2.5939,2.6387,2.6387,2.5854,2.4847,2.3779,2.3107,2.2764,2.2432,2.2163,0.0,0.0,0.0,0.0,0.0,0.0,0.0,0.0,0.0,0.0,0.0,0.0,0.0,0.0,0.0,0.0,0.0,0.0,0.0,0.0,0.0,0.0,0.0,0.0,0.0,0.0,0.0,0.0,0.0,0.0,0.0,0.0,0.0,0.0,0.0,0.0,0.0,1.9723,1.9795,0.0,1.969,1.9601,1.949,1.9378,1.9288,1.9152,1.9015,1.896,1.9027,1.9249,1.8817,1.8744,1.9044,1.8686,1.8484,1.8474,1.8508,1.8531,1.8518,1.8349,1.8282,1.8244,1.7768,1.7588,1.764,1.7234,1.6918,1.6769,1.6769,1.6778,1.682,1.682,1.6884,1.6968,0.0,0.0,0.0,0.0,0.0,0.0,0.0,0.0,0.0,0.0,0.0,1.8755,1.8803,1.8836,1.8874,1.8898,1.8936,1.8988,1.9007,0.0,0.0,0.0,0.0,0.0,0.0,2.2591,2.3601,2.4405,2.5168,2.5937,2.671,2.671,2.6947,2.7368,2.7368,2.7333,2.7168,2.6043,2.5139,2.44,2.3833,2.3472,2.3273,0.0,0.0,0.0,0.0,0.0,0.0,0.0,0.0,0.0,0.0,0.0,0.0,0.0,0.0,0.0,0.0,0.0,0.0,0.0,0.0,0.0,0.0,0.0,0.0,0.0,0.0,0.0,0.0,0.0,0.0,0.0,0.0,0.0,0.0,0.0,2.0761,2.0653,2.0703,2.0695,2.0605,2.0493,2.0334,2.0151,2.0072,1.992,1.9744,1.97,1.979,2.0063,1.9625,1.9503,1.9817,1.9431,1.9203,1.9142,1.9203,1.9238,1.9272,1.9139,1.9095,1.9102,1.861,1.8428,1.8469,1.794,1.7639,1.7444,1.7193,1.7136,1.7178,1.7178,1.722,1.7303,0.0,0.0,0.0,0.0,0.0,0.0,0.0,0.0,0.0,0.0,1.8803,1.8803,1.8822,1.8927,1.9036,1.9101,1.9228,1.9339,1.9395,1.9409,0.0,0.0,0.0,0.0,2.3016,2.383,2.4624,2.5484,2.628,2.7058,2.7781,2.7796,2.8224,2.8967,2.8967,2.8767,2.8395,2.8395,2.7816,2.6795,2.612,2.5455,2.4819,0.0,0.0,0.0,0.0,0.0,0.0,0.0,0.0,0.0,0.0,0.0,0.0,0.0,0.0,0.0,0.0,0.0,0.0,0.0,0.0,0.0,0.0,0.0,0.0,0.0,0.0,0.0,0.0,0.0,0.0,0.0,0.0,0.0,2.0897,2.1269,2.1625,2.1573,2.1962,2.2189,2.2099,2.1944,2.1753,2.1502,2.1477,2.1356,2.1086,2.1061,2.1075,2.1075,2.1002,2.0864,2.0636,2.0575,2.0449,2.0233,2.0423,2.0549,2.0597,2.0206,2.0099,2.019,1.9604,1.9328,1.9288,1.8697,1.8529,1.854,1.7797,1.7516,1.7516,1.7516,1.7516,1.7537,0.0,0.0,0.0,0.0,0.0,0.0,0.0,0.0,0.0,0.0,1.9003,1.9045,1.9139,1.9191,1.9228,1.9321,1.9358,1.9376,1.9395,0.0,0.0,0.0,0.0,0.0,2.3984,2.4712,2.5728,2.7083,2.7912,2.8739,2.9517,3.0109,3.0561,3.0863,3.0863,3.0799,3.0695,3.0695,3.0583,3.0199,2.7881,2.6839,2.6621,0.0,0.0,0.0,0.0,0.0,0.0,0.0,0.0,0.0,0.0,0.0,0.0,0.0,0.0,0.0,0.0,0.0,0.0,0.0,0.0,0.0,0.0,0.0,0.0,0.0,0.0,0.0,0.0,0.0,0.0,0.0,0.0,2.2847,2.1915,2.2207,2.2682,2.3042,2.3126,2.3331,2.3776,2.3597,2.3448,2.3373,2.3172,2.2995,2.2816,2.2713,2.261,2.2533,2.2364,2.2047,2.1532,2.1519,2.1257,2.0785,2.0848,2.0873,2.0885,2.0775,2.0758,2.0766,2.0345,2.0159,2.0128,1.9734,1.9316,1.8864,1.7976,1.7733,1.7848,1.7848,1.7922,1.8009,0.0,0.0,0.0,0.0,0.0,0.0,0.0,0.0,0.0,0.0,1.9153,1.9213,1.9339,1.9339,1.9376,1.9483,1.9483,1.9487,1.9523,0.0,0.0,0.0,0.0,2.3979,2.4843,2.5963,2.7123,2.8339,2.9216,3.0045,3.0815,3.1254,3.159,3.1774,3.1774,3.1821,3.1932,3.1932,3.1979,3.1904,3.0188,2.9108,2.8382,2.7421,2.7049,2.6924,2.5775,2.5371,2.5239,2.4468,0.0,0.0,0.0,0.0,0.0,0.0,0.0,0.0,0.0,0.0,0.0,0.0,0.0,0.0,0.0,0.0,0.0,0.0,0.0,0.0,0.0,0.0,0.0,0.0,2.3717,2.3859,2.3577,2.3516,2.3695,2.4234,2.4163,2.4225,2.454,2.4394,2.4244,2.4193,2.3991,2.3798,2.367,2.354,2.3424,2.3346,2.3135,2.2842,2.2492,2.2349,2.1978,2.1381,2.1381,2.1297,2.118,2.118,2.1229,0.0,2.1128,2.1049,2.1018,2.0552,2.0186,0.0,0.0,0.0,0.0,0.0,1.8155,1.8234,0.0,0.0,0.0,0.0,0.0,0.0,0.0,0.0,0.0,0.0,0.0,1.9339,1.9413,1.9413,1.9468,1.9593,1.9611,1.9707,0.0,0.0,0.0,2.3361,2.4138,2.4905,2.5734,2.7372,2.8598,2.9333,3.036,3.1182,3.1758,3.1863,3.2039,3.2277,3.2277,3.2411,3.2653,3.2653,3.2636,3.2659,3.2577,3.1591,2.9995,2.8792,2.8292,2.8128,2.7391,2.7063,2.6861,2.6035,0.0,0.0,0.0,0.0,0.0,0.0,0.0,0.0,0.0,0.0,0.0,0.0,0.0,0.0,0.0,0.0,0.0,0.0,0.0,0.0,0.0,0.0,0.0,0.0,2.4709,2.4902,2.545,2.497,2.4705,2.516,2.5121,2.5004,2.4958,2.4848,2.4708,2.4557,2.4416,2.4303,2.4161,0.0,0.0,0.0,0.0,2.3509,2.3441,2.3151,2.2683,2.2108,2.2041,2.1834,2.1542,2.1474,2.1568,2.1793,2.1817,2.1817,2.1775,2.1259,2.1079,2.1011,1.9655,1.881,1.8339,1.829,1.8293,0.0,0.0,0.0,0.0,0.0,0.0,0.0,0.0,0.0,0.0,1.9376,1.9376,1.9431,1.9556,1.9556,1.9578,1.9672,1.9672,2.0157,0.0,0.0,2.3249,2.4753,2.512,2.5905,2.7237,2.8392,2.9372,3.0164,3.1694,3.2571,3.2813,3.347,3.3852,3.4015,3.4015,3.4063,3.4087,3.4087,3.416,3.4206,3.3613,3.2442,3.0953,3.0107,2.9419,2.8813,2.8128,2.7506,2.6962,2.6793,2.6253,2.5497,2.4695,0.0,0.0,0.0,0.0,0.0,0.0,0.0,0.0,0.0,0.0,0.0,0.0,0.0,0.0,0.0,0.0,0.0,0.0,0.0,0.0,2.5277,2.5397,2.5621,2.6279,2.6255,2.6113,2.6002,2.5967,2.6113,2.6528,2.6442,2.6272,2.6072,2.5954,2.5863,2.585,2.5596,2.5488,2.5488,2.5204,2.4846,2.4349,2.4282,2.3967,2.3362,0.0,0.0,2.2438,2.1942,2.1746,2.1793,2.1926,2.1973,2.1959,2.1965,2.1758,2.1276,1.988,1.9279,1.9111,1.8739,1.8615,1.862,0.0,0.0,0.0,0.0,0.0,0.0,0.0,0.0,0.0,0.0,1.9501,1.9538,1.9632,1.965,1.9654,1.9708,1.9708,0.0,0.0,2.2278,2.332,2.517,2.5793,2.6614,2.7687,2.9144,3.0266,3.0999,3.2386,3.3267,3.3697,3.4186,3.4472,3.4594,3.4594,3.4643,3.4691,3.4691,3.4739,3.4754,3.4461,3.3667,3.253,3.1352,3.0672,3.021,2.914,2.8303,2.7643,2.7205,2.6562,2.587,2.5364,2.4917,2.4423,0.0,0.0,0.0,0.0,0.0,0.0,0.0,0.0,0.0,0.0,0.0,0.0,0.0,0.0,2.3849,0.0,0.0,2.5307,2.5989,2.6093,2.6333,2.7016,2.7106,2.7046,2.6821,2.6811,2.6878,2.7089,2.7041,2.6922,2.6765,2.6633,2.65,2.6406,2.6218,2.6084,2.6084,2.5825,2.5576,2.5241,2.5134,2.4748,2.4138,2.3476,2.302,2.2776,2.2179,2.1949,2.202,2.2137,2.2208,2.2208,2.2347,2.2269,2.1959,2.0919,2.0323,2.0033,1.9782,1.9709,1.9709,0.0,0.0,0.0,0.0,0.0,0.0,0.0,0.0,0.0,0.0,0.0,1.9632,1.969,1.9708,1.9708,0.0,0.0,0.0,0.0,2.2115,2.3173,2.5404,2.6262,2.7079,2.7905,2.9815,3.1078,3.1606,3.2805,3.373,3.4349,3.4472,3.4618,3.4739,3.4739,3.4811,3.4947,3.4947,3.4947,3.4994,3.5105,3.4701,3.3878,3.2436,3.1795,3.1497,3.0174,2.9145,2.8348,2.7621,2.6788,2.6028,2.5954,2.547,2.4907,2.4619,2.3602,0.0,0.0,0.0,0.0,0.0,0.0,0.0,0.0,2.3035,2.3212,2.3699,2.4321,2.4829,2.4963,2.5435,2.6019,2.6701,2.6782,2.6986,2.7525,2.7705,2.7744,2.7646,2.7646,2.7639,2.7628,2.7628,2.752,2.7246,2.7126,2.6922,2.6604,2.6459,2.6394,2.6326,2.6111,2.5975,2.5975,2.5757,2.5424,2.4936,2.4269,2.3694,2.3192,2.2562,2.2297,2.2278,2.2394,2.244,2.244,2.2592,2.2638,2.2595,2.2057,2.1556,2.1105,2.0826,2.074,2.074,0.0,0.0,0.0,0.0,0.0,0.0,0.0,0.0,0.0,0.0,0.0,0.0,0.0,0.0,0.0,0.0,0.0,0.0,2.1948,2.2555,2.3874,2.6096,2.651,2.7313,2.8654,3.0529,3.1518,3.1606,3.3348,3.4268,3.4472,3.4618,3.4756,3.4875,3.4875,3.4947,3.5065,3.5065,3.5152,3.5245,3.5268,3.485,3.4091,3.3255,3.2519,3.1855,3.1018,2.9831,2.8624,2.8427,2.7424,2.6242,2.6046,2.5924,2.5707,2.4907,2.4473,2.4089,2.3362,2.2833,2.2611,2.3064,2.3035,2.3,0.0,2.4034,2.441,2.447,2.5008,2.5674,2.6258,2.6437,2.6692,2.7375,2.748,2.751,2.7585,2.8124,2.8487,2.8461,2.8461,2.8659,2.9119,2.9151,2.886,2.8107,2.8036,2.7706,2.6966,2.6806,2.6659,2.6484,2.6326,2.626,2.626,2.6233,2.6163,2.6092,2.5493,2.4892,2.4291,2.3635,2.3036,2.2555,2.2555,2.2578,2.2592,2.2712,2.2772,2.2795,2.2762,2.2721,2.2496,2.1326,2.088,2.0901,0.0,0.0,0.0,0.0,0.0,0.0,0.0,0.0,0.0,0.0,0.0,0.0,0.0,0.0,0.0,0.0,0.0,0.0,2.1918,2.2252,2.3402,2.5635,2.6339,2.7157,2.8139,3.0053,3.103,3.103,3.2885,3.381,3.3874,3.4517,3.4851,3.4899,3.4899,3.497,3.5088,3.5088,3.4925,3.4672,3.4689,3.4275,3.3554,3.2883,3.2184,3.1422,3.0509,2.9549,0.0,0.0,2.725,2.6399,2.6241,2.6152,2.6031,2.5575,2.4986,2.438,2.3763,2.3686,2.3811,2.3946,2.4091,2.421,2.4455,2.4852,2.5173,2.5173,2.5719,2.6258,2.6542,2.6926,2.727,0.0,2.76,2.7735,2.8139,2.8412,2.8876,2.9624,2.9714,2.9642,2.9525,2.9525,2.9352,2.8934,2.8904,2.8705,2.825,2.7749,2.7465,2.737,2.6753,2.6418,2.6418,2.6326,2.6313,2.6299,2.5685,2.5083,2.4479,2.3798,2.3216,2.2712,2.2712,2.2743,2.2775,2.2849,2.2872,2.2872,2.2902,2.2888,2.283,2.2272,2.2062,2.2084,0.0,0.0,0.0,0.0,0.0,0.0,0.0,0.0,0.0,0.0,0.0,0.0,0.0,0.0,0.0,0.0,0.0,0.0,0.0,2.1903,2.2899,2.49,2.5905,2.6814,2.768,2.9418,3.0405,3.0613,3.2275,3.3097,3.3137,3.3898,3.4263,3.4286,3.4286,3.4396,3.4551,3.4551,3.4342,3.3973,3.4028,3.3498,3.2605,3.2168,3.1413,3.0511,3.0003,2.9223,0.0,0.0,2.7106,2.6486,2.6347,2.6259,2.6205,2.6028,2.5397,2.468,2.4379,2.4591,2.4885,2.4839,2.5053,2.5279,2.5279,2.559,2.5884,2.5884,2.6408,2.6881,2.6881,2.727,2.76,2.76,2.76,2.7764,2.8248,2.8637,2.922,3.0133,3.0567,3.0612,3.0163,3.0118,3.0016,2.9724,2.9709,2.9553,2.9195,2.8616,2.8211,2.7996,2.7231,2.6751,2.6578,2.65,2.6447,2.642,2.5988,2.5469,2.4823,2.399,2.331,2.2841,2.2841,2.2849,2.2888,2.2888,2.2888,2.2888,2.2888,2.2888,2.2888,2.2888,2.2888,2.2888,0.0,0.0,0.0,0.0,0.0,0.0,0.0,0.0,0.0,0.0,0.0,0.0,0.0,0.0,0.0,0.0,0.0,0.0,0.0,2.1606,2.2661,2.4172,2.5185,2.6352,2.7664,2.891,2.9877,3.0613,3.1711,3.2285,3.2439,3.2521,3.2634,3.2768,3.2768,3.2912,3.3143,3.3143,3.3261,3.3419,3.3419,3.256,3.1258,3.1241,3.0328,2.9162,2.9835,0.0,0.0,0.0,2.7212,2.6555,2.6348,2.6295,2.626,2.6064,2.5701,2.5362,2.5282,2.5451,2.5669,2.5654,2.5826,2.5963,2.5963,2.6268,2.6557,2.6557,2.7106,2.757,2.757,2.7585,2.76,2.76,2.76,2.76,2.763,2.8753,2.9592,2.9636,3.0731,3.1466,0.0,3.1451,3.1167,3.0537,3.0477,3.0152,2.9431,2.9165,2.8748,2.801,2.7763,2.7376,2.6794,2.6779,2.6779,2.6779,2.6765,2.6402,2.572,2.4457,2.3519,2.2902,2.2902,2.2888,2.2888,2.2888,2.2888,2.2888,2.2888,2.2888,2.2888,2.2888,2.2888,2.2888,0.0,0.0,0.0,0.0,0.0,0.0,0.0,0.0,0.0,0.0,0.0,0.0,0.0,0.0,0.0,0.0,0.0,0.0,0.0,2.0925,2.1793,2.2825,2.4173,2.5145,2.5717,2.7146,2.8092,2.8478,2.9459,3.0055,3.0205,3.0826,3.1148,3.1255,3.1255,3.1382,3.1645,3.1645,3.1463,3.1224,3.1224,3.0615,2.9738,2.9738,2.8807,2.752,0.0,0.0,0.0,0.0,0.0,0.0,2.6486,0.0,2.6364,2.6026,2.5733,2.5602,2.589,2.583,2.5815,2.6252,2.6496,2.6669,2.6669,2.6977,2.727,2.727,2.7435,2.76,2.76,2.76,2.76,2.76,2.76,2.7764,2.8188,2.9037,2.9756,3.0148,3.0957,0.0,0.0,0.0,0.0,3.1182,3.1152,3.1077,3.0796,3.0223,2.9742,2.9409,2.842,2.7744,2.7391,2.6997,2.6806,2.6779,2.6355,2.5818,2.5154,2.4297,2.3519,2.2888,2.2888,2.2888,2.2888,2.2888,2.2888,2.2888,2.2888,2.2888,2.2888,2.2888,2.2888,2.2888,0.0,0.0,0.0,0.0,0.0,0.0,0.0,0.0,0.0,0.0,0.0,0.0,0.0,0.0,0.0,0.0,0.0,0.0,0.0,0.0,2.0965,2.1744,2.3009,2.3898,2.4291,2.5411,2.6327,2.7006,2.7662,2.8229,2.8715,2.9272,2.9626,2.9748,2.9748,2.9865,3.0045,3.0084,2.9782,2.924,2.9277,2.8687,2.7791,2.7791,2.7013,0.0,0.0,0.0,0.0,0.0,0.0,0.0,0.0,2.6198,2.6258,2.5972,2.591,2.5989,2.6242,2.6367,2.6511,2.6954,2.7203,2.7358,2.7358,2.7489,2.76,2.76,2.76,2.76,2.76,2.76,2.76,2.76,2.76,2.775,2.8173,2.9037,2.9729,3.0118,3.0957,3.1511,0.0,0.0,0.0,3.1511,3.1511,3.1511,3.1511,3.0949,3.0493,3.0099,2.8943,2.8119,2.7695,2.7099,2.6806,2.6779,2.6344,2.5847,2.5183,2.453,2.3853,2.3244,2.2989,2.2888,2.2888,2.2888,2.2888,2.2888,2.2888,2.2888,2.2888,2.2888,2.2888,2.2888,0.0,0.0,0.0,0.0,0.0,0.0,0.0,0.0,0.0,0.0,0.0,0.0,0.0,0.0,0.0,0.0,0.0,0.0,0.0,0.0,0.0,2.0871,2.1731,2.2597,2.3491,2.3784,2.4662,2.6126,2.6278,2.6814,2.7781,2.7781,2.7931,2.8177,2.8177,2.8199,2.8294,2.8406,2.8097,2.7515,2.7603,2.6793,2.5542,2.5542,0.0,0.0,0.0,0.0,0.0,0.0,2.4525,2.463,2.5129,2.5626,2.599,2.5917,2.6181,2.6491,2.6362,2.7008,2.7695,2.7742,2.788,2.7995,2.7995,2.779,2.7585,2.7555,2.754,2.754,2.754,2.754,2.7555,2.7585,2.76,2.76,2.76,2.8753,2.9606,0.0,0.0,0.0,0.0,0.0,0.0,3.1511,0.0,3.1511,3.1511,3.138,3.0966,3.0201,2.9369,2.8572,2.7781,2.7113,2.6806,2.6806,2.6806,2.6457,2.5789,2.5129,2.4491,2.3847,2.3229,2.2931,2.2888,2.2888,2.2888,2.2888,2.2888,2.2917,2.2946,2.2946,2.296,2.2989,0.0,0.0,0.0,0.0,0.0,0.0,0.0,0.0,0.0,0.0,0.0,0.0,0.0,0.0,0.0,0.0,0.0,0.0,0.0,0.0,0.0,0.0,0.0,0.0,0.0,0.0,0.0,0.0,0.0,2.4299,2.48,2.48,2.4921,2.511,2.511,2.5161,2.5213,2.5263,2.523,2.5177,0.0,2.5039,2.4717,0.0,0.0,0.0,0.0,0.0,0.0,2.4135,2.477,2.5112,2.5196,2.5575,2.599,2.5917,2.6181,2.6567,2.6887,2.7343,2.782,2.8256,2.8185,2.7995,2.7995,2.779,2.7465,2.6971,2.6866,2.6866,2.6866,2.6866,2.7031,2.7525,2.76,0.0,2.76,2.8753,0.0,2.9606,3.0703,3.1511,3.1511,3.1511,0.0,0.0,3.1511,3.1511,3.1511,3.1467,3.1305,3.1011,3.0216,2.9426,2.8614,2.7411,2.6806,2.6806,2.6806,2.6457,2.5778,2.5618,2.4936,2.3876,2.3717,2.336,2.2888,2.2888,2.2888,2.2888,2.2888,2.3215,2.3659,2.3659,2.3925,2.4307,0.0,0.0,0.0,0.0,0.0,0.0,0.0,0.0,0.0,0.0,0.0,0.0,0.0,0.0,0.0,0.0,0.0,0.0,0.0,0.0,0.0,0.0,0.0,0.0,0.0,0.0,0.0,0.0,0.0,0.0,0.0,2.3113,2.3358,2.3537,2.3868,2.4017,2.4049,2.4081,0.0,0.0,0.0,0.0,0.0,0.0,0.0,0.0,0.0,0.0,2.2295,2.3091,2.399,2.4763,2.473,2.5292,2.5936,2.5828,2.6332,2.6935,2.7068,2.7639,2.8249,2.8472,2.825,2.798,2.793,2.7515,2.7061,2.6686,2.6363,2.6153,2.6153,2.6393,2.6707,2.7106,2.7405,2.76,2.76,2.8753,2.9606,2.9606,3.0703,0.0,3.1511,3.1511,3.1511,0.0,3.1511,3.1511,3.1511,3.1511,3.1438,3.1307,3.0582,2.967,2.8603,2.7524,2.6989,2.6989,2.6989,2.6784,2.6404,2.61,2.5589,2.4887,0.0,2.4297,2.3952,2.3952,2.3952,2.3952,2.3952,2.4195,2.4502,2.4502,2.4688,2.4946,0.0,0.0,0.0,0.0,0.0,0.0,0.0,0.0,0.0,0.0,0.0,0.0,0.0,0.0,0.0,0.0,0.0,0.0,0.0,0.0,0.0,0.0,0.0,0.0,0.0,0.0,0.0,0.0,0.0,0.0,0.0,0.0,0.0,0.0,0.0,0.0,0.0,0.0,0.0,0.0,0.0,0.0,0.0,0.0,0.0,0.0,0.0,0.0,2.1984,2.1911,2.2881,2.4098,2.4081,2.4909,2.5862,2.5735,2.6489,2.7343,2.7057,2.7877,2.8723,2.8444,2.8192,2.794,2.771,2.7105,2.6542,2.6363,2.5869,2.548,2.548,2.5944,2.6378,2.6557,2.7091,2.7495,2.7585,2.8753,2.9606,2.9606,3.0703,3.1511,3.1511,3.1511,3.1511,3.1511,3.1511,3.1539,3.1511,3.1511,3.1438,3.1307,3.0565,2.9574,2.834,2.7576,2.7207,2.7207,2.7207,2.7207,2.7178,2.6592,2.6282,2.6204,0.0,0.0,2.5322,2.5322,2.5322,2.5298,2.5298,2.5357,2.5431,2.5431,2.5403,2.538,0.0,0.0,0.0,0.0,0.0,0.0,0.0,0.0,0.0,0.0,0.0,0.0,0.0,0.0,0.0,0.0,0.0,0.0,0.0,0.0,0.0,0.0,0.0,0.0,0.0,0.0,0.0,0.0,0.0,0.0,0.0,0.0,0.0,0.0,0.0,0.0,0.0,0.0,0.0,0.0,0.0,0.0,0.0,0.0,0.0,0.0,0.0,0.0,0.0,0.0,2.2881,2.4081,2.3902,2.4789,2.586,2.5675,2.6446,2.7322,2.6934,2.7793,2.87,2.8332,2.8128,2.7819,2.7122,2.6774,2.6288,2.5173,2.4844,2.4769,2.4769,2.4874,2.5307,2.6422,2.6692,2.6971,2.7525,2.8753,2.9606,2.9606,3.0703,3.1511,3.1511,3.1511,0.0,0.0,0.0,3.167,3.1511,3.1511,3.1438,3.1307,3.0162,2.9364,2.8935,2.7797,2.7207,2.7207,2.7207,2.7207,2.7207,2.7089,2.6785,2.6352,2.6258,0.0,2.5456,2.5456,2.5408,2.5298,2.5298,2.5599,2.6046,2.6046,2.6385,2.6842,0.0,0.0,0.0,0.0,0.0,0.0,0.0,0.0,0.0,0.0,0.0,0.0,0.0,0.0,0.0,0.0,0.0,0.0,0.0,0.0,0.0,0.0,0.0,0.0,0.0,0.0,0.0,0.0,0.0,0.0,0.0,0.0,0.0,0.0,0.0,0.0,0.0,0.0,0.0,0.0,0.0,0.0,0.0,0.0,0.0,0.0,0.0,0.0,0.0,0.0,2.254,2.3471,2.372,2.4771,2.586,2.5581,2.609,2.6777,2.6747,2.7446,2.8163,2.811,2.778,2.7334,2.6823,2.6111,2.5367,2.4739,2.4321,2.4066,2.4066,2.4365,2.4918,2.5914,2.6363,2.6811,2.751,2.8453,2.9205,2.9577,3.0417,3.1122,3.1466,3.1597,3.167,3.167,0.0,3.1826,3.1655,3.1712,3.1726,3.1668,3.0721,3.0018,2.9577,2.8618,2.7959,2.763,2.763,2.763,2.763,2.763,2.7475,2.7234,2.7234,0.0,2.6783,2.6783,2.6759,2.6711,2.6711,2.6856,2.7036,2.7036,2.7144,2.7284,0.0,0.0,0.0,0.0,0.0,0.0,0.0,0.0,0.0,0.0,0.0,0.0,0.0,0.0,0.0,0.0,0.0,0.0,0.0,0.0,0.0,0.0,0.0,0.0,0.0,0.0,0.0,1.6892,0.0,0.0,0.0,0.0,0.0,0.0,0.0,0.0,0.0,0.0,0.0,0.0,0.0,0.0,0.0,0.0,0.0,0.0,0.0,0.0,2.1812,2.1812,2.2249,2.288,2.3391,2.4489,2.5575,2.5422,2.5751,2.6213,2.6442,2.6927,2.7404,2.754,2.7194,2.6667,2.627,2.5352,2.456,2.441,2.3984,2.3595,2.3595,2.4022,2.4649,2.548,2.6033,2.6662,2.748,2.8173,2.8846,2.9532,3.0161,3.0833,3.1508,3.1712,0.0,3.1841,0.0,0.0,3.1841,3.194,3.1996,3.1996,3.1344,3.0676,3.0008,2.9366,2.8723,2.8029,2.8054,2.8094,2.8094,2.8094,2.8103,2.8128,2.8128,0.0,0.0,2.8128,2.8079,2.8029,2.8029,2.7955,2.784,2.784,2.769,2.7503,0.0,0.0,0.0,0.0,0.0,0.0,0.0,0.0,0.0,0.0,0.0,0.0,0.0,0.0,0.0,0.0,0.0,0.0,0.0,0.0,0.0,0.0,0.0,0.0,0.0,0.0,0.0,1.6892,1.6972,0.0,0.0,0.0,0.0,0.0,0.0,0.0,0.0,0.0,0.0,0.0,0.0,0.0,0.0,0.0,0.0,0.0,0.0,2.1812,2.1812,2.1812,2.2249,2.2798,2.2735,2.3584,2.4725,2.5179,2.5652,2.5983,2.5826,2.6181,2.6538,2.6253,2.613,2.5864,2.4987,2.4694,2.4425,2.3819,2.364,2.3595,2.3595,2.3655,2.4118,2.539,2.5659,2.6138,2.742,2.8173,2.8846,2.9532,3.027,3.1031,3.1695,3.1898,3.1968,3.1968,0.0,0.0,3.1996,3.1996,3.1996,3.1996,3.1344,3.0676,3.0008,2.9454,2.8859,2.8186,2.8299,2.8363,2.8363,2.8363,2.842,2.8549,2.8549,0.0,0.0,2.8549,2.8405,2.8186,2.8186,2.8103,2.798,2.798,2.7905,2.7765,0.0,0.0,0.0,0.0,0.0,0.0,0.0,0.0,0.0,0.0,0.0,0.0,0.0,0.0,0.0,0.0,0.0,0.0,0.0,0.0,0.0,0.0,0.0,0.0,0.0,0.0,0.0,0.0,0.0,0.0,0.0,0.0,0.0,0.0,0.0,1.7503,0.0,0.0,0.0,0.0,0.0,0.0,0.0,0.0,0.0,0.0,0.0,0.0,2.1812,2.1812,2.1921,2.2127,2.249,2.285,2.3309,2.434,2.4996,2.5431,2.5639,2.5808,2.5935,2.6084,2.5818,2.5385,2.4837,2.4402,2.4026,2.3676,2.3595,2.3595,2.3595,2.3595,2.4044,2.539,0.0,0.0,2.7405,2.789,2.8512,2.9606,3.006,3.0731,0.0,0.0,3.2178,3.2345,0.0,0.0,3.257,3.2527,3.2527,3.2527,3.2264,3.1601,3.049,3.0273,2.9617,2.8565,2.8628,2.8652,2.8652,2.8652,2.8708,2.8795,2.8755,0.0,0.0,2.8755,2.8676,2.8565,2.8565,2.842,2.8241,2.8241,2.8103,2.793,0.0,0.0,0.0,0.0,0.0,0.0,0.0,0.0,0.0,0.0,0.0,0.0,0.0,0.0,0.0,0.0,0.0,0.0,0.0,0.0,0.0,0.0,0.0,0.0,0.0,0.0,0.0,0.0,0.0,0.0,0.0,0.0,1.7378,1.7503,0.0,0.0,0.0,0.0,0.0,0.0,0.0,0.0,0.0,0.0,0.0,0.0,0.0,0.0,0.0,0.0,0.0,2.1686,2.2162,2.2248,2.2469,2.3807,2.4423,2.4784,2.5248,2.5289,2.5271,2.5531,2.5243,2.4841,2.4623,2.4202,2.3839,2.3739,2.3717,2.3717,2.3717,2.3717,2.4153,0.0,0.0,2.6182,2.752,2.779,2.8364,2.9694,0.0,3.0605,0.0,3.229,3.2484,0.0,0.0,0.0,3.3032,3.3096,3.3085,3.2951,3.3005,3.2358,3.0933,3.0942,3.0293,2.8944,2.9006,2.9006,2.9006,2.9006,2.9021,2.9059,0.0,0.0,0.0,2.9037,2.8944,2.8873,2.8873,2.8747,2.8532,2.8532,2.8348,2.8118,0.0,0.0,0.0,0.0,0.0,0.0,0.0,0.0,0.0,0.0,0.0,0.0,0.0,0.0,0.0,0.0,0.0,0.0,0.0,0.0,0.0,0.0,0.0,0.0,0.0,0.0,0.0,0.0,0.0,0.0,0.0,0.0,0.0,0.0,0.0,0.0,0.0,0.0,0.0,0.0,0.0,0.0,0.0,0.0,0.0,0.0,0.0,0.0,0.0,0.0,0.0,0.0,0.0,2.1891,2.2469,2.3807,2.4055,2.4023,2.4478,2.4559,2.4472,2.428,2.4218,2.4181,2.404,2.4003,2.4003,2.4003,2.4003,2.4003,2.4003,2.4003,2.4444,2.5781,2.6009,0.0,2.7822,2.7995,2.8505,2.9841,3.0125,3.0761,3.2259,3.2703,3.2897,0.0,0.0,0.0,3.3309,3.3555,3.3503,3.3096,3.3229,3.2629,3.1214,3.133,3.0688,2.9305,2.9434,2.9496,2.9496,2.9496,2.9496,0.0,0.0,0.0,0.0,2.9496,2.9337,2.9114,2.9114,2.8975,2.881,2.881,2.8628,2.8411,0.0,0.0,0.0,0.0,0.0,0.0,0.0,0.0,0.0,0.0,0.0,0.0,0.0,0.0,0.0,0.0,0.0,0.0,0.0,0.0,0.0,0.0,0.0,0.0,0.0,0.0,0.0,0.0,0.0,0.0,0.0,0.0,0.0,0.0,0.0,0.0,0.0,0.0,0.0,0.0,0.0,0.0,0.0,0.0,0.0,0.0,0.0,0.0,0.0,0.0,0.0,0.0,0.0,0.0,0.0,0.0,2.305,2.3409,2.3912,2.3963,2.3953,2.4328,2.4333,2.4234,2.4166,2.4145,2.4103,2.4024,2.4003,2.4003,2.4003,2.4003,2.4444,2.5781,2.5994,0.0,2.7822,2.8079,2.8498,2.9475,3.0613,3.1668,0.0,0.0,0.0,0.0,0.0,0.0,3.3581,3.3745,3.3736,3.3529,3.3051,3.2376,3.1477,3.1007,3.0344,2.9434,2.9473,2.9496,2.9496,2.9496,0.0,0.0,0.0,0.0,0.0,2.9541,2.945,2.9366,2.9366,2.9206,2.9014,2.9014,2.8873,2.8676,0.0,0.0,0.0,0.0,0.0,0.0,0.0,0.0,0.0,0.0,0.0,0.0,0.0,0.0,0.0,0.0,0.0,0.0,0.0,0.0,0.0,0.0,0.0,0.0,0.0,0.0,0.0,0.0,0.0,0.0,0.0,0.0,0.0,0.0,0.0,0.0,0.0,0.0,0.0,0.0,0.0,0.0,1.9634,0.0,0.0,0.0,0.0,0.0,0.0,0.0,0.0,0.0,0.0,0.0,0.0,0.0,2.2048,2.2487,2.3254,2.3375,2.3339,2.3709,2.3909,2.4019,2.3973,2.4148,2.4291,2.4208,2.4151,2.4109,2.4109,2.4151,2.4637,2.5969,2.6228,2.6742,2.8115,2.8372,2.8808,2.9825,3.1124,0.0,0.0,3.3309,0.0,0.0,0.0,0.0,3.3787,3.3949,3.3871,3.3521,3.3028,3.2465,3.1758,3.1012,3.0305,2.9653,2.9653,2.9675,2.9681,2.9681,0.0,0.0,0.0,0.0,0.0,2.9726,2.9637,2.9586,2.9586,2.9434,2.9252,2.9252,2.9114,2.892,0.0,0.0,0.0,0.0,0.0,0.0,0.0,0.0,0.0,0.0,0.0,0.0,0.0,0.0,0.0,0.0,0.0,0.0,0.0,0.0,0.0,0.0,0.0,0.0,0.0,0.0,0.0,0.0,1.742,1.7477,1.7477,0.0,0.0,0.0,0.0,0.0,0.0,0.0,0.0,0.0,0.0,0.0,0.0,0.0,0.0,0.0,0.0,0.0,0.0,0.0,0.0,0.0,0.0,0.0,0.0,0.0,0.0,0.0,0.0,2.2697,2.2637,2.2621,2.3086,2.3534,2.36,2.4035,0.0,2.4498,2.44,2.4323,2.4323,2.4421,2.4953,2.6286,2.6607,2.7188,2.8592,2.8818,2.9302,0.0,3.1587,0.0,3.3177,0.0,0.0,0.0,0.0,0.0,3.3924,3.4127,3.3909,3.3241,3.3064,3.2635,3.1954,3.1218,3.0545,2.9924,2.9924,2.9946,3.0017,3.0017,0.0,0.0,0.0,0.0,0.0,3.0017,2.9902,2.9704,2.9704,2.9653,2.9518,2.9518,2.9344,2.9121,0.0,0.0,0.0,0.0,0.0,0.0,0.0,0.0,0.0,0.0,0.0,0.0,0.0,0.0,0.0,0.0,0.0,0.0,0.0,0.0,0.0,0.0,0.0,0.0,0.0,0.0,0.0,1.7371,1.7922,1.8194,1.8249,1.884,0.0,0.0,0.0,0.0,0.0,0.0,0.0,0.0,0.0,0.0,0.0,0.0,0.0,0.0,2.1884,2.184,0.0,0.0,0.0,0.0,0.0,0.0,0.0,0.0,2.1278,0.0,0.0,0.0,2.213,2.2695,2.2817,2.2973,0.0,2.3721,2.3966,2.446,2.4549,2.4528,2.4528,2.4564,2.502,2.6433,2.6689,2.7188,2.8592,2.8944,0.0,3.0315,3.1197,3.2012,3.2688,0.0,0.0,0.0,0.0,3.4201,3.4201,3.3828,3.3532,3.3368,3.2282,3.1622,3.1459,3.0724,3.0283,3.0141,3.0141,3.0141,3.0146,3.0146,0.0,0.0,0.0,0.0,3.0146,3.0146,3.006,2.9946,2.9946,2.9814,2.9653,2.9653,2.9541,2.9405,0.0,0.0,0.0,0.0,0.0,0.0,0.0,0.0,0.0,0.0,0.0,0.0,0.0,0.0,0.0,0.0,0.0,0.0,0.0,0.0,0.0,0.0,0.0,0.0,0.0,0.0,0.0,0.0,0.0,1.8696,0.0,0.0,0.0,0.0,0.0,0.0,0.0,0.0,0.0,0.0,0.0,0.0,0.0,0.0,0.0,0.0,2.194,2.1897,0.0,2.184,2.1842,2.1797,0.0,0.0,0.0,0.0,2.1356,0.0,0.0,2.1359,2.1575,2.1972,2.2218,2.2542,2.3254,2.3629,2.4032,2.4689,2.4811,2.4771,2.4771,2.4811,2.5287,2.6692,2.6971,0.0,2.8917,2.9206,2.9552,3.0306,3.0862,3.1574,0.0,0.0,0.0,0.0,0.0,3.3892,3.3892,3.3301,3.283,3.2502,3.1813,3.1397,3.1308,3.0566,3.0189,3.0189,3.0189,3.0231,3.0274,3.0274,3.0295,0.0,0.0,0.0,3.0274,3.0274,3.021,3.0081,3.0081,2.9989,2.9836,2.9836,2.9726,2.9586,0.0,0.0,0.0,0.0,0.0,0.0,0.0,0.0,0.0,0.0,0.0,0.0,0.0,0.0,0.0,0.0,0.0,0.0,0.0,0.0,0.0,0.0,0.0,0.0,0.0,0.0,0.0,0.0,0.0,0.0,0.0,0.0,0.0,0.0,0.0,0.0,0.0,0.0,0.0,0.0,2.0807,0.0,0.0,0.0,0.0,0.0,0.0,0.0,0.0,2.1928,2.1869,2.1812,2.1753,0.0,0.0,0.0,0.0,0.0,2.1356,2.1262,2.1167,2.1119,2.1535,2.2175,2.3008,2.3592,2.4172,2.4968,2.5084,2.506,2.506,2.5183,2.57,2.702,0.0,0.0,2.9358,2.9541,2.9749,3.0332,3.0608,0.0,0.0,0.0,0.0,0.0,0.0,3.3259,3.3259,3.2685,3.2094,3.144,3.1417,3.1346,3.1188,3.0565,3.0253,3.0253,3.0253,3.0295,3.0417,3.0417,3.0443,0.0,0.0,0.0,3.0417,3.0417,3.0338,3.0231,3.0231,3.0146,3.0038,3.0038,2.9924,2.9726,0.0,0.0,0.0,0.0,0.0,0.0,0.0,0.0,0.0,0.0,0.0,0.0,0.0,0.0,0.0,0.0,0.0,0.0,0.0,0.0,0.0,0.0,0.0,0.0,0.0,0.0,0.0,0.0,0.0,0.0,2.0813,2.1396,2.1446,0.0,0.0,0.0,0.0,0.0,0.0,0.0,0.0,0.0,0.0,0.0,0.0,0.0,0.0,0.0,0.0,2.1984,2.194,2.1868,2.1884,0.0,0.0,0.0,0.0,0.0,2.1559,2.1543,2.1466,2.1231,2.1231,2.1599,2.2896,2.3263,2.3711,2.5003,2.5256,2.5256,2.5256,2.5739,2.6394,2.7242,0.0,2.9285,0.0,0.0,2.9774,3.0032,0.0,0.0,0.0,0.0,0.0,0.0,0.0,3.2642,3.2642,3.2056,3.1692,3.1555,3.0964,3.065,3.0629,3.0513,3.0464,3.0464,3.0464,3.0447,3.0468,3.0468,3.0506,0.0,0.0,3.0489,3.0468,3.0468,3.0443,3.0375,3.0375,3.029,3.0167,3.0167,3.0098,2.9946,0.0,0.0,0.0,0.0,0.0,0.0,0.0,0.0,0.0,0.0,0.0,0.0,0.0,0.0,0.0,0.0,0.0,0.0,0.0,0.0,0.0,0.0,0.0,0.0,0.0,0.0,0.0,0.0,0.0,2.1329,2.1762,2.2107,2.2146,2.1874,0.0,0.0,0.0,0.0,0.0,0.0,0.0,0.0,0.0,0.0,0.0,0.0,0.0,0.0,0.0,0.0,2.2046,2.1955,2.1897,0.0,0.0,0.0,0.0,0.0,2.162,2.1604,2.1574,2.145,2.1341,2.1633,2.3036,2.3358,2.3761,2.5158,2.5448,2.5448,2.5448,2.6047,2.6905,2.8059,0.0,2.9902,2.9968,2.9968,2.9995,0.0,0.0,0.0,0.0,0.0,0.0,0.0,0.0,0.0,3.2012,0.0,3.1002,3.1002,3.0671,3.0506,3.0506,3.0506,3.0506,3.0506,3.0506,3.0506,3.0506,3.0506,3.0506,3.0506,0.0,3.0506,3.0506,3.0506,3.0485,3.0443,3.0443,3.0401,3.0295,3.0248,3.0146,3.0103,0.0,0.0,0.0,0.0,0.0,0.0,0.0,0.0,0.0,0.0,0.0,0.0,0.0,0.0,0.0,0.0,0.0,0.0,0.0,0.0,0.0,0.0,0.0,0.0,0.0,0.0,0.0,2.1181,2.1403,2.183,2.2446,2.2542,2.2582,0.0,0.0,0.0,0.0,0.0,0.0,0.0,0.0,0.0,0.0,0.0,0.0,0.0,0.0,0.0,0.0,0.0,0.0,0.0,0.0,0.0,0.0,0.0,2.1738,2.1723,2.1664,2.165,2.1634,2.1635,2.1657,2.2036,2.3273,2.3678,2.4166,2.5396,2.5656,2.5656,2.5656,2.6406,0.0,2.9028,2.9798,3.0189,3.0189,3.0189,3.021,0.0,0.0,0.0,0.0,0.0,0.0,0.0,0.0,0.0,3.135,0.0,3.0506,3.0506,3.0506,3.0506,3.0506,3.0506,3.0506,3.0506,3.0506,3.0506,3.0506,3.0506,3.0506,3.0506,3.0506,3.0506,3.0506,3.0506,3.0506,3.0506,3.0506,3.0464,3.0417,3.0274,3.0248,3.0231,0.0,0.0,0.0,0.0,0.0,0.0,0.0,0.0,0.0,0.0,0.0,0.0,0.0,0.0,0.0,0.0,0.0,0.0,0.0,0.0,0.0,0.0,0.0,0.0,0.0,2.0437,2.1268,2.137,2.2074,2.2477,2.2579,2.2725,2.2777,0.0,0.0,0.0,0.0,0.0,0.0,0.0,0.0,0.0,0.0,0.0,0.0,0.0,0.0,0.0,0.0,0.0,0.0,0.0,0.0,0.0,0.0,0.0,2.1899,2.1869,2.1796,2.1797,2.1768,2.1724,2.2143,2.2801,2.3522,2.4226,2.4929,2.5715,2.5879,2.5879,2.5879,2.6992,2.84,2.9878,3.0156,3.0189,3.0189,0.0,0.0,0.0,0.0,0.0,0.0,0.0,0.0,0.0,0.0,0.0,3.0572,0.0,0.0,3.0506,3.0506,3.0506,3.0506,3.0506,3.0506,3.0506,3.0506,3.0506,3.0506,3.0506,3.0506,3.0506,3.0506,3.0506,3.0506,3.0506,3.0506,3.0506,3.0506,3.0506,3.0468,3.0401,3.0396,3.0375,0.0,0.0,0.0,0.0,0.0,0.0,0.0,0.0,0.0,0.0,0.0,0.0,0.0,0.0,0.0,0.0,0.0,0.0,0.0,0.0,0.0,0.0,0.0,2.0663,2.0675,2.1193,2.1713,2.2203,2.2574,2.2764,2.279,2.2842,0.0,0.0,0.0,0.0,0.0,0.0,0.0,0.0,0.0,0.0,0.0,0.0,0.0,0.0,0.0,0.0,0.0,0.0,2.2446,0.0,0.0,0.0,0.0,0.0,2.1955,2.1955,2.1926,2.1926,2.1911,2.1882,2.2738,2.3588,2.367,2.4276,2.5013,2.5752,2.5897,2.6159,2.7044,2.7708,2.8606,3.0086,3.0359,3.0401,3.0401,0.0,0.0,0.0,0.0,0.0,0.0,0.0,0.0,0.0,0.0,0.0,0.0,0.0,0.0,3.0506,3.0506,3.0506,3.0506,3.0506,3.0506,3.0506,3.0506,3.0506,3.0506,3.0506,3.0506,3.0506,3.0506,3.0506,3.0506,3.0506,3.0506,3.0506,3.0506,3.0506,3.0506,3.0464,3.0464,3.0443,0.0,0.0,0.0,0.0,0.0,0.0,0.0,0.0,0.0,0.0,0.0,0.0,0.0,0.0,0.0,0.0,0.0,0.0,0.0,0.0,0.0,0.0,0.0,2.1801,2.2106,2.2032,2.2241,2.2764,2.2906,2.2965,2.3008,0.0,0.0,0.0,0.0,0.0,0.0,0.0,0.0,0.0,0.0,0.0,0.0,0.0,0.0,0.0,0.0,0.0,0.0,0.0,2.2552,2.2542,0.0,0.0,0.0,0.0,0.0,2.2073,2.2027,2.2013,2.2013,2.2013,2.3074,2.4081,2.3902,2.4576,2.5397,2.589,2.6008,2.6471,2.7943,2.8301,0.0,0.0,3.0589,3.063,0.0,0.0,0.0,0.0,0.0,0.0,0.0,0.0,0.0,0.0,0.0,0.0,0.0,0.0,0.0,0.0,3.0373,3.039,3.0141,3.0373,3.0506,3.0506,3.0506,3.0506,3.0506,3.0506,3.0506,3.0506,3.0506,3.0506,3.0506,3.0506,3.0506,3.0506,3.0506,3.0506,3.0506,3.0506,3.0506,3.0506,0.0,0.0,0.0,0.0,0.0,0.0,0.0,0.0,0.0,0.0,0.0,0.0,0.0,0.0,0.0,0.0,0.0,0.0,0.0,0.0,0.0,0.0,0.0,2.219,2.299,2.3082,2.3045,2.2889,2.3045,2.3144,2.3205,0.0,0.0,0.0,0.0,0.0,0.0,0.0,0.0,0.0,0.0,0.0,0.0,0.0,0.0,0.0,0.0,0.0,0.0,0.0,2.2699,2.2672,0.0,0.0,0.0,0.0,2.2296,2.2251,2.2073,2.1996,2.1996,2.1996,2.312,2.4209,2.4209,2.5229,2.6202,2.6202,2.6258,2.6781,2.8394,2.8697,0.0,3.0657,3.0892,0.0,0.0,0.0,0.0,0.0,0.0,0.0,0.0,0.0,0.0,0.0,0.0,0.0,0.0,0.0,0.0,0.0,3.0092,3.0125,2.9397,3.0108,3.0472,3.0489,3.0489,3.0489,3.0506,3.0506,3.0506,3.0506,3.0506,3.0506,3.0506,3.0506,3.0506,3.0506,3.0506,3.0506,3.0506,3.0506,3.0506,3.0506,0.0,0.0,0.0,0.0,0.0,0.0,0.0,0.0,0.0,0.0,0.0,0.0,0.0,0.0,0.0,0.0,0.0,0.0,0.0,0.0,0.0,0.0,0.0,0.0,0.0,0.0,2.3217,2.318,2.3217,2.3253,0.0,0.0,0.0,2.336,0.0,0.0,0.0,0.0,0.0,0.0,0.0,0.0,0.0,0.0,0.0,0.0,0.0,0.0,0.0,0.0,0.0,0.0,0.0,0.0,0.0,2.2542,2.2487,2.2432,2.2374,2.2343,2.2343,2.2343,2.342,2.4491,2.4491,2.548,2.6398,2.6398,2.6433,2.6903,2.8429,2.8697,0.0,3.0657,0.0,0.0,0.0,0.0,0.0,0.0,0.0,0.0,0.0,0.0,0.0,0.0,0.0,0.0,0.0,0.0,0.0,0.0,2.8923,2.8903,2.8707,2.8903,2.9251,2.9728,2.9728,2.9992,3.0506,3.0506,3.0506,3.0506,3.0506,3.0506,3.0506,3.0506,3.0506,3.0506,3.0506,3.0506,3.0506,3.0506,3.0506,3.0506,0.0,0.0,0.0,0.0,0.0,0.0,0.0,0.0,0.0,0.0,0.0,0.0,0.0,0.0,0.0,0.0,0.0,0.0,0.0,0.0,0.0,0.0,0.0,0.0,0.0,2.343,2.3464,0.0,0.0,0.0,0.0,0.0,0.0,2.3482,0.0,2.3533,0.0,0.0,0.0,0.0,0.0,0.0,0.0,0.0,0.0,0.0,0.0,0.0,0.0,0.0,0.0,0.0,0.0,0.0,0.0,2.2699,2.2646,2.2605,2.2596,2.2569,2.2542,2.2542,2.3611,2.4796,2.5409,2.6099,2.6589,2.6657,2.6657,2.7045,2.8226,2.8464,0.0,0.0,0.0,0.0,0.0,0.0,0.0,0.0,0.0,0.0,0.0,0.0,0.0,0.0,0.0,0.0,0.0,0.0,0.0,0.0,2.8301,2.8298,2.7961,2.8243,2.8608,2.9003,2.9284,2.9628,3.0075,3.0357,3.0506,3.0506,3.0506,3.0506,3.0506,3.0506,3.0506,3.0506,3.0506,3.0506,3.0506,3.0506,3.0506,3.0506,0.0,0.0,0.0,0.0,0.0,0.0,0.0,0.0,0.0,0.0,0.0,0.0,0.0,0.0,0.0,0.0,0.0,0.0,0.0,0.0,0.0,0.0,0.0,0.0,0.0,0.0,0.0,0.0,0.0,0.0,0.0,0.0,2.3607,2.3607,0.0,2.37,0.0,0.0,0.0,0.0,0.0,0.0,0.0,0.0,0.0,0.0,0.0,0.0,0.0,0.0,0.0,0.0,2.3057,2.2982,2.2902,2.2855,2.2829,2.2803,2.2738,2.2672,2.2636,2.2636,2.371,2.5157,2.6681,2.6891,2.6792,2.6892,2.6909,2.7164,2.7964,2.8118,2.834,0.0,0.0,0.0,0.0,0.0,0.0,0.0,0.0,0.0,0.0,0.0,0.0,0.0,0.0,0.0,0.0,0.0,0.0,2.7346,2.7961,2.7956,2.7218,2.7862,2.8227,0.0,2.892,2.9251,2.935,3.0141,3.0506,3.0506,3.0506,3.0506,3.0506,3.0506,3.0506,3.0506,3.0506,3.0506,3.0506,3.0506,3.0506,3.0526,0.0,0.0,0.0,0.0,0.0,0.0,0.0,0.0,0.0,0.0,0.0,0.0,0.0,0.0,0.0,0.0,0.0,0.0,0.0,0.0,0.0,0.0,0.0,0.0,0.0,0.0,0.0,0.0,0.0,0.0,0.0,0.0,0.0,2.3678,0.0,2.37,0.0,0.0,0.0,0.0,0.0,0.0,0.0,0.0,0.0,0.0,0.0,0.0,0.0,0.0,0.0,0.0,2.3241,2.3193,2.3132,2.3057,2.3008,2.2944,2.2881,2.2855,2.2842,2.2842,2.3969,2.5496,2.7041,2.7373,2.7246,2.7024,2.6992,2.7213,2.8031,2.8185,2.8459,0.0,0.0,0.0,0.0,0.0,0.0,0.0,0.0,0.0,0.0,0.0,0.0,0.0,0.0,0.0,0.0,0.0,0.0,2.6702,2.6765,2.6695,2.6527,2.662,2.6965,0.0,2.768,2.8044,2.8674,2.991,3.0506,3.0506,3.0506,3.0506,3.0506,3.0506,3.0506,3.0506,3.0506,3.0506,3.0506,3.0506,3.0568,3.0651,0.0,0.0,0.0,0.0,0.0,0.0,0.0,0.0,0.0,0.0,0.0,0.0,0.0,0.0,0.0,0.0,0.0,0.0,0.0,0.0,0.0,0.0,0.0,0.0,0.0,0.0,0.0,0.0,0.0,0.0,0.0,0.0,0.0,2.3743,0.0,2.3757,0.0,0.0,0.0,0.0,0.0,0.0,0.0,0.0,0.0,0.0,0.0,0.0,0.0,0.0,0.0,0.0,0.0,0.0,2.3241,2.3205,2.318,2.3144,2.3107,2.3082,2.3115,2.3444,2.4423,2.5607,2.6813,2.734,2.7554,2.7371,2.7279,2.7368,2.7797,2.7866,0.0,0.0,0.0,0.0,0.0,0.0,0.0,0.0,0.0,0.0,0.0,0.0,0.0,0.0,0.0,0.0,0.0,2.6809,2.6742,2.6589,2.6503,2.6399,2.6295,2.6259,2.6405,2.6766,2.7133,2.768,2.8442,2.9499,3.0174,3.0506,3.0506,3.0506,3.0506,3.0506,3.0506,3.0506,3.0506,3.0547,3.0589,3.0589,3.0671,3.081,0.0,0.0,0.0,0.0,0.0,0.0,0.0,0.0,0.0,0.0,0.0,0.0,0.0,0.0,0.0,0.0,0.0,0.0,0.0,0.0,0.0,0.0,0.0,0.0,0.0,0.0,0.0,0.0,0.0,0.0,0.0,0.0,0.0,2.3797,0.0,0.0,0.0,0.0,0.0,0.0,0.0,0.0,0.0,0.0,0.0,0.0,0.0,0.0,0.0,2.3551,0.0,0.0,0.0,0.0,2.3324,2.3313,2.3313,2.3313,2.3301,2.3265,2.3381,2.4075,2.4761,2.5481,2.6412,2.7112,2.7587,2.771,2.7644,2.7542,2.7539,0.0,0.0,0.0,0.0,0.0,0.0,0.0,0.0,0.0,0.0,0.0,0.0,0.0,0.0,0.0,0.0,0.0,2.704,2.6975,2.6892,2.6742,2.6657,2.6521,2.6348,2.633,2.6311,2.6256,2.6854,2.7553,2.8248,2.881,2.952,3.0307,3.0328,3.0431,3.0547,3.0568,3.0568,3.0568,3.0568,3.0651,3.0733,3.0733,3.0831,3.0952,0.0,0.0,0.0,0.0,0.0,0.0,0.0,0.0,0.0,0.0,0.0,0.0,0.0,0.0,0.0,0.0,0.0,0.0,0.0,0.0,0.0,0.0,0.0,0.0,0.0,0.0,0.0,0.0,0.0,0.0,0.0,0.0,0.0,2.3795,0.0,0.0,0.0,0.0,0.0,0.0,0.0,0.0,0.0,0.0,0.0,0.0,0.0,0.0,0.0,2.3678,2.3641,0.0,0.0,0.0,2.3471,2.3395,2.3401,2.3372,2.3313,2.3289,2.3483,2.4261,2.4544,2.4986,2.6436,2.6861,2.7126,0.0,2.7806,2.7686,2.7745,0.0,0.0,0.0,0.0,0.0,0.0,0.0,0.0,0.0,0.0,0.0,0.0,0.0,0.0,0.0,0.0,0.0,2.7165,2.7149,2.707,2.6876,2.6759,2.6657,2.6555,2.6486,2.6468,2.645,2.6551,2.6969,2.7618,2.7701,2.8408,2.9549,2.9666,3.0072,3.0671,3.081,3.0851,3.0851,3.0851,3.0871,3.0871,3.0871,3.0992,3.1151,0.0,0.0,0.0,0.0,0.0,0.0,0.0,0.0,0.0,0.0,0.0,0.0,0.0,0.0,0.0,0.0,0.0,0.0,0.0,0.0,0.0,0.0,0.0,0.0,0.0,0.0,0.0,0.0,0.0,0.0,0.0,2.3876,2.3827,0.0,0.0,0.0,0.0,0.0,0.0,0.0,0.0,0.0,0.0,0.0,0.0,0.0,0.0,0.0,0.0,0.0,2.3678,2.3663,2.3663,0.0,0.0,0.0,2.3533,2.3494,2.3436,2.3407,2.3495,2.3851,2.4289,2.4787,2.5481,2.6299,2.701,2.7379,2.7719,2.7982,0.0,0.0,0.0,0.0,0.0,0.0,0.0,0.0,0.0,0.0,0.0,0.0,0.0,0.0,0.0,0.0,0.0,2.7539,2.7371,2.7244,2.7166,2.7071,2.6941,2.6809,2.6657,2.6623,2.6555,2.6502,2.6502,2.6652,2.6936,2.6936,2.7668,2.8957,2.9015,2.9451,3.0139,3.0199,3.0486,3.0912,3.0952,3.1012,3.1072,3.1114,3.1232,3.1366,0.0,0.0,0.0,0.0,0.0,0.0,0.0,0.0,0.0,0.0,0.0,0.0,0.0,0.0,0.0,0.0,0.0,0.0,0.0,0.0,0.0,0.0,0.0,0.0,0.0,0.0,0.0,0.0,0.0,0.0,2.3937,2.3917,2.3858,0.0,2.3806,2.3806,0.0,0.0,0.0,0.0,0.0,0.0,0.0,0.0,0.0,0.0,0.0,0.0,0.0,0.0,0.0,0.0,0.0,0.0,0.0,0.0,0.0,2.3618,2.3573,2.3544,2.3544,2.3544,2.3991,2.4492,2.4676,2.5606,2.6512,0.0,2.7392,2.7919,0.0,0.0,0.0,0.0,0.0,0.0,0.0,0.0,0.0,0.0,0.0,0.0,0.0,0.0,0.0,0.0,0.0,2.7719,2.7554,2.74,2.7307,2.7261,2.712,2.6974,2.6808,2.6775,2.6725,2.6623,2.6623,2.6623,2.6623,2.6623,2.7194,2.8201,2.8349,2.8835,2.9561,2.9782,3.0241,3.0799,3.1027,3.119,3.1288,3.1351,3.1464,3.1593,0.0,0.0,0.0,0.0,0.0,0.0,0.0,0.0,0.0,0.0,0.0,0.0,0.0,0.0,0.0,0.0,0.0,0.0,0.0,0.0,0.0,0.0,0.0,0.0,0.0,0.0,0.0,0.0,0.0,0.0,2.4084,2.3966,2.3896,2.3896,2.3827,2.3806,2.3806,0.0,0.0,0.0,0.0,0.0,0.0,0.0,0.0,0.0,0.0,0.0,0.0,0.0,0.0,0.0,0.0,0.0,0.0,0.0,0.0,0.0,2.3689,2.3689,2.3689,2.3689,2.3725,2.3929,2.4644,2.4866,2.5135,2.5889,2.6679,2.7253,0.0,0.0,0.0,0.0,0.0,0.0,0.0,0.0,0.0,0.0,0.0,0.0,0.0,0.0,0.0,0.0,0.0,2.7911,2.7701,2.7686,2.76,2.7404,2.7261,2.7149,2.7086,2.7024,2.6975,2.6958,2.6958,2.6958,2.6958,2.6958,2.7009,2.7112,2.7622,2.8333,2.9185,3.0025,3.0385,3.0488,3.1206,3.1479,3.1498,3.1559,3.1671,3.1783,0.0,0.0,0.0,0.0,0.0,0.0,0.0,0.0,0.0,0.0,0.0,0.0,0.0,0.0,0.0,0.0,0.0,0.0,0.0,0.0,0.0,0.0,0.0,0.0,0.0,0.0,0.0,0.0,0.0,2.419,2.4161,2.4074,2.4006,2.3966,2.3837,2.3806,2.3806,2.3806,0.0,0.0,0.0,0.0,0.0,0.0,0.0,0.0,0.0,0.0,0.0,0.0,0.0,0.0,0.0,0.0,0.0,2.3765,2.3754,2.3743,2.3711,2.37,2.37,2.37,2.37,2.3772,2.403,2.4457,2.4877,2.5165,2.5865,2.6422,0.0,0.0,0.0,0.0,0.0,0.0,0.0,0.0,0.0,0.0,0.0,0.0,0.0,0.0,0.0,0.0,0.0,0.0,2.7911,2.776,2.7672,2.7582,2.7463,2.7355,2.7277,2.7182,2.7119,2.7119,2.7119,2.7119,2.7119,2.7119,2.7184,2.7264,2.7459,2.7894,2.8493,2.8835,2.9264,2.9778,3.0693,3.1057,3.1126,3.1701,3.1983,3.2073,0.0,0.0,0.0,0.0,0.0,0.0,0.0,0.0,0.0,0.0,0.0,0.0,0.0,0.0,0.0,0.0,0.0,0.0,0.0,0.0,0.0,0.0,0.0,0.0,0.0,0.0,0.0,0.0,0.0,0.0,0.0,2.4142,2.4094,2.4026,2.3917,2.3847,0.0,0.0,0.0,2.3806,0.0,0.0,2.3806,0.0,0.0,0.0,0.0,0.0,0.0,0.0,0.0,0.0,0.0,0.0,0.0,0.0,2.3807,2.3779,2.3747,2.3736,2.3736,2.3736,2.3736,2.3736,2.3736,2.4111,2.446,2.446,2.5108,0.0,0.0,0.0,0.0,0.0,0.0,0.0,0.0,0.0,0.0,0.0,0.0,0.0,0.0,0.0,0.0,0.0,0.0,0.0,2.8042,2.7908,2.7789,2.7745,2.763,2.7524,2.7465,2.7355,2.7308,2.7308,2.7308,2.7308,2.7308,2.7324,2.7386,2.7465,2.7478,2.765,2.7908,2.8198,2.8611,2.9162,3.011,3.0647,3.0959,3.1586,3.2004,3.2336,0.0,0.0,0.0,0.0,0.0,0.0,0.0,0.0,0.0,0.0,0.0,0.0,0.0,0.0,0.0,0.0,0.0,0.0,0.0,0.0,0.0,0.0,0.0,0.0,0.0,0.0,0.0,0.0,0.0,0.0,0.0,0.0,2.417,2.4103,2.4026,2.3976,2.3907,0.0,2.3806,2.3806,0.0,2.3806,2.3806,0.0,0.0,0.0,2.3806,2.3806,0.0,2.3806,0.0,0.0,0.0,0.0,0.0,0.0,0.0,2.3806,0.0,0.0,0.0,2.3806,2.3806,2.3806,2.3806,0.0,2.3806,2.3806,2.4411,0.0,0.0,0.0,0.0,0.0,0.0,0.0,0.0,0.0,0.0,0.0,0.0,0.0,0.0,0.0,0.0,0.0,0.0,2.8168,2.8112,2.8099,2.8011,2.7818,2.7745,2.7689,2.7617,2.7542,2.7511,2.7511,2.7511,2.7511,2.7511,2.7587,2.7617,2.7617,2.7672,2.7644,2.7563,2.8279,2.8575,2.8662,2.9462,3.0295,3.1042,3.1178,3.1753,3.2506,0.0,0.0,0.0,0.0,0.0,0.0,0.0,0.0,0.0,0.0,0.0,0.0,0.0,0.0,0.0,0.0,0.0,0.0,0.0,0.0,0.0,0.0,0.0,0.0,0.0,0.0,0.0,0.0,0.0,0.0,0.0,0.0,0.0,0.0,2.4152,2.4103,2.4044,2.3917,0.0,2.3876,2.3816,2.3806,0.0,0.0,0.0,0.0,0.0,2.3937,2.3937,0.0,2.3937,2.3927,0.0,0.0,0.0,0.0,0.0,0.0,2.3806,0.0,0.0,0.0,0.0,0.0,0.0,0.0,2.3806,2.3806,2.3976,0.0,0.0,0.0,0.0,0.0,0.0,0.0,0.0,0.0,0.0,0.0,0.0,0.0,0.0,0.0,0.0,0.0,2.83,2.8259,2.8246,2.8154,2.8056,2.7954,2.7925,2.7911,2.7882,2.7868,2.7853,2.7853,2.7853,2.7853,2.7853,2.7882,2.7882,2.7882,2.7911,2.7896,2.7871,2.7991,2.8017,2.812,2.8971,2.9442,2.9808,3.0986,3.1631,3.2005,0.0,0.0,0.0,0.0,0.0,0.0,0.0,0.0,0.0,0.0,0.0,0.0,0.0,0.0,0.0,0.0,0.0,0.0,0.0,0.0,0.0,0.0,0.0,0.0,0.0,0.0,0.0,0.0,0.0,0.0,0.0,0.0,0.0,0.0,0.0,0.0,0.0,0.0,0.0,0.0,2.3896,0.0,0.0,2.3927,2.3937,0.0,0.0,0.0,2.3996,2.3996,2.3996,2.3996,2.3947,2.3896,0.0,0.0,0.0,0.0,0.0,0.0,0.0,0.0,0.0,0.0,2.3806,2.3806,2.3806,0.0,2.3806,0.0,0.0,0.0,0.0,0.0,0.0,0.0,0.0,0.0,0.0,0.0,0.0,0.0,0.0,0.0,0.0,2.8445,2.838,2.8327,2.83,2.8237,2.8154,2.8085,2.8056,2.8042,2.8042,2.7996,2.8014,2.8014,2.8014,2.8014,2.8014,2.8042,2.8056,2.8085,2.8109,2.8136,2.815,2.8077,2.7993,2.7946,2.8478,2.8912,2.9367,3.0691,3.1457,3.1939,0.0,0.0,0.0,0.0,0.0,0.0,0.0,0.0,0.0,0.0,0.0,0.0,0.0,0.0,0.0,0.0,0.0,0.0,0.0,0.0,0.0,0.0,0.0,0.0,0.0,0.0,0.0,0.0,0.0,0.0,0.0,0.0,0.0,0.0,0.0,0.0,0.0,0.0,0.0,2.4036,2.4006,2.3996,0.0,0.0,2.4016,2.4016,2.4026,2.4036,2.4036,2.4026,2.4026,2.4016,2.4006,2.3976,0.0,0.0,2.3865,0.0,0.0,0.0,0.0,0.0,0.0,0.0,2.3806,2.3806,2.3806,0.0,0.0,0.0,0.0,0.0,0.0,0.0,0.0,0.0,0.0,0.0,0.0,0.0,0.0,0.0,2.726,2.7862,2.8288,2.8379,2.8391,2.838,2.8313,2.8313,2.8273,2.8223,2.8168,2.814,2.814,2.8067,2.8039,2.8039,2.8039,2.8039,2.8056,2.8112,2.8168,2.8223,2.8291,2.834,2.8411,2.8411,2.8246,2.8056,2.8112,2.861,2.9397,3.036,3.1221,3.1999,0.0,0.0,0.0,0.0,0.0,0.0,0.0,0.0,0.0,0.0,0.0,0.0,0.0,0.0,0.0,0.0,0.0,0.0,0.0,0.0,0.0,0.0,0.0,0.0,0.0,0.0,0.0,0.0,0.0,0.0,0.0,0.0,0.0,0.0,0.0,0.0,0.0,0.0,0.0,2.4229,2.4066,0.0,2.4006,2.4113,2.4161,2.417,2.4228,2.4238,2.4229,2.4173,2.4153,2.4151,2.4094,2.4026,0.0,2.3917,0.0,0.0,0.0,0.0,0.0,0.0,0.0,0.0,2.3806,2.3806,2.3806,0.0,2.3806,2.3806,0.0,0.0,0.0,0.0,0.0,0.0,0.0,0.0,0.0,0.0,0.0,0.0,0.0,2.6572,2.6922,2.7574,2.8144,2.8458,2.838,2.8367,2.8367,2.8371,2.8358,2.8345,2.8345,2.8327,2.8313,2.8313,2.8313,2.8313,2.8313,2.8345,2.8358,2.8371,2.8367,2.838,2.8411,2.8411,2.8384,2.8313,2.8345,2.8448,2.8766,3.0248,3.0934,3.1329,0.0,0.0,0.0,0.0,0.0,0.0,0.0,0.0,0.0,0.0,0.0,2.4764,2.4802,0.0,0.0,0.0,0.0,0.0,0.0,0.0,0.0,0.0,0.0,0.0,0.0,0.0,0.0,0.0,0.0,0.0,0.0,0.0,0.0,0.0,0.0,0.0,0.0,0.0,2.4294,2.4284,2.4191,0.0,2.4153,2.4219,2.4247,2.4247,2.4294,2.4294,2.4284,2.4266,2.4238,0.0,0.0,2.4133,2.4084,0.0,2.3947,2.3896,0.0,0.0,0.0,2.3806,0.0,0.0,0.0,2.3806,2.3806,2.3806,2.3806,2.3806,2.3806,0.0,0.0,0.0,0.0,0.0,0.0,0.0,0.0,0.0,0.0,0.0,0.0,2.5968,2.6367,2.6771,2.7146,2.7494,2.7828,2.7851,2.8018,2.8393,2.8411,2.8411,2.8411,2.8411,2.8411,2.8411,2.8411,2.8411,2.8411,2.8411,2.8406,2.8445,2.8445,2.8484,2.8549,2.8549,2.8574,2.8587,2.8484,2.8471,2.8696,3.0338,3.0989,3.1275,0.0,0.0,0.0,0.0,0.0,0.0,0.0,0.0,0.0,2.4723,2.4772,2.4802,2.4827,2.4808,0.0,0.0,0.0,0.0,0.0,0.0,0.0,0.0,0.0,2.482,0.0,0.0,0.0,0.0,0.0,0.0,0.0,0.0,0.0,0.0,0.0,0.0,0.0,0.0,0.0,2.4348,0.0,2.433,2.4294,2.4339,2.4348,2.4348,2.4348,2.4348,2.4339,2.4348,2.4339,2.4321,2.4247,2.4201,0.0,0.0,0.0,0.0,0.0,0.0,0.0,0.0,0.0,2.3806,0.0,0.0,0.0,0.0,0.0,0.0,0.0,0.0,0.0,0.0,0.0,0.0,0.0,0.0,0.0,0.0,0.0,0.0,0.0,2.5497,2.5968,2.5968,2.6113,2.647,2.7055,2.7079,2.7433,2.818,2.8216,2.8288,2.8432,2.8432,2.8432,2.8432,2.8432,2.8432,2.8432,2.8432,2.8471,2.8531,2.8531,2.8625,2.8706,2.8706,2.8749,2.8773,2.8625,2.86,2.8849,3.0511,3.1159,3.1448,2.4682,2.4701,0.0,0.0,0.0,0.0,0.0,0.0,0.0,2.4798,2.4805,2.4827,2.4877,0.0,0.0,2.4971,0.0,0.0,2.4971,0.0,0.0,0.0,0.0,0.0,2.4896,0.0,0.0,0.0,0.0,0.0,0.0,0.0,0.0,0.0,2.4615,0.0,0.0,0.0,2.4574,0.0,2.4574,2.4454,0.0,2.4429,2.4482,2.4491,2.4549,2.453,2.4469,0.0,2.4438,2.4385,0.0,2.4247,2.4329,2.5054,0.0,0.0,0.0,0.0,0.0,0.0,2.4381,0.0,0.0,0.0,2.3806,2.3806,0.0,0.0,0.0,0.0,0.0,0.0,0.0,0.0,0.0,0.0,0.0,0.0,0.0,0.0,0.0,0.0,2.5135,2.5135,2.5805,2.6228,2.6319,2.6319,2.6687,2.7489,2.7507,2.7851,2.8574,2.8574,2.8574,2.8574,2.8574,2.8574,2.8574,2.8574,2.8612,2.8669,2.8669,2.8724,2.8785,2.8785,2.8785,2.8785,2.8773,2.8761,2.8974,3.0589,3.1224,3.1539,2.4711,2.4703,0.0,0.0,0.0,0.0,0.0,0.0,0.0,2.4856,2.4863,2.4877,0.0,0.0,0.0,2.5003,0.0,2.5003,0.0,0.0,0.0,0.0,0.0,0.0,0.0,0.0,0.0,0.0,2.4772,0.0,0.0,0.0,0.0,0.0,2.4674,0.0,2.4658,0.0,2.4607,0.0,0.0,0.0,0.0,2.4541,2.4557,2.4557,2.459,2.4572,2.4555,0.0,2.4859,0.0,0.0,0.0,0.0,0.0,0.0,0.0,0.0,0.0,0.0,0.0,0.0,0.0,2.3914,0.0,2.3806,0.0,0.0,0.0,0.0,0.0,0.0,0.0,0.0,0.0,0.0,0.0,0.0,0.0,0.0,0.0,0.0,0.0,0.0,0.0,0.0,2.5009,2.5479,2.5497,2.6095,2.7351,2.7405,2.7785,2.86,2.86,2.86,2.86,2.86,2.8625,2.8662,2.8662,2.87,2.8761,2.8761,2.8822,2.8923,2.8923,2.8952,2.9033,2.9033,2.8987,2.9118,3.076,3.1415,3.1716,2.4738,0.0,0.0,0.0,0.0,0.0,0.0,0.0,0.0,0.0,0.0,0.0,2.4984,2.5003,0.0,0.0,2.5003,2.5003,0.0,0.0,2.5003,0.0,0.0,0.0,0.0,0.0,0.0,0.0,0.0,0.0,0.0,0.0,0.0,0.0,0.0,2.4698,2.4698,0.0,2.4639,2.4639,2.4639,2.4639,2.4639,2.4623,2.4631,2.4639,2.4639,2.4631,2.4661,2.4885,2.5337,0.0,2.5995,0.0,0.0,0.0,0.0,0.0,2.717,0.0,0.0,0.0,0.0,0.0,0.0,0.0,0.0,0.0,0.0,0.0,0.0,0.0,0.0,0.0,0.0,0.0,0.0,0.0,0.0,0.0,0.0,0.0,0.0,0.0,0.0,2.3806,2.3806,2.4049,2.4646,2.4664,2.5316,2.6699,2.6952,2.7459,2.8256,2.8491,2.86,2.86,2.8625,2.8644,2.8694,2.8706,2.8773,2.8846,2.8846,2.8929,2.9044,2.9044,2.9112,2.924,2.9232,2.9189,2.9314,3.0941,3.1597,3.1897,2.4794,2.4794,0.0,0.0,0.0,0.0,0.0,0.0,0.0,0.0,0.0,0.0,0.0,0.0,0.0,0.0,0.0,2.5003,2.5003,0.0,2.5003,0.0,0.0,2.5003,0.0,0.0,0.0,0.0,0.0,0.0,0.0,0.0,0.0,0.0,2.4742,2.47,2.47,2.47,2.47,2.47,2.47,2.47,2.4692,0.0,2.4706,2.47,2.47,0.0,0.0,2.5591,2.5828,0.0,0.0,0.0,0.0,0.0,0.0,0.0,0.0,0.0,0.0,2.7647,0.0,0.0,0.0,0.0,2.3806,0.0,0.0,0.0,0.0,0.0,0.0,0.0,0.0,0.0,0.0,0.0,0.0,0.0,0.0,0.0,0.0,0.0,0.0,2.3806,2.3806,2.3813,2.3842,2.3842,2.4212,2.5045,2.5842,2.6609,2.7423,2.8219,2.86,2.86,2.8675,2.8694,2.8694,2.8761,2.8876,2.8994,2.8994,2.9074,2.9189,2.9189,2.924,2.9302,2.931,2.9332,2.9568,3.1114,3.1744,3.2035,2.487,2.4903,0.0,2.487,2.487,0.0,0.0,2.4971,0.0,0.0,2.578,0.0,0.0,2.666,2.666,0.0,0.0,2.666,2.666,2.666,0.0,0.0,0.0,2.666,0.0,0.0,0.0,0.0,0.0,0.0,0.0,0.0,0.0,0.0,0.0,2.4764,0.0,0.0,0.0,0.0,0.0,2.4742,2.4757,0.0,0.0,2.4782,2.5354,2.5552,0.0,2.6485,2.7097,2.7577,2.7848,2.8259,2.865,2.881,2.8872,0.0,0.0,0.0,2.8522,2.7923,0.0,0.0,0.0,0.0,0.0,0.0,0.0,0.0,0.0,0.0,0.0,0.0,0.0,0.0,0.0,0.0,0.0,0.0,0.0,0.0,0.0,0.0,0.0,2.3806,2.3806,2.3806,0.0,2.3806,2.4157,2.4972,2.5787,2.659,2.7387,2.8201,2.8625,2.8675,2.8682,2.8743,2.8827,2.8893,2.8975,2.9074,2.91,2.9171,2.927,2.927,2.9341,2.9431,2.9433,2.9453,2.9593,3.0652,3.1416,3.2176,2.4931,2.5198,0.0,0.0,0.0,0.0,0.0,0.0,0.0,0.0,2.6652,0.0,2.7437,0.0,2.7494,0.0,2.7494,2.7494,2.7494,2.7494,0.0,2.7494,2.7494,0.0,0.0,0.0,0.0,0.0,0.0,2.6609,0.0,0.0,0.0,0.0,0.0,2.5695,2.5695,2.5645,2.5618,0.0,0.0,2.5653,0.0,0.0,2.5441,2.5275,0.0,2.6441,2.6556,2.7355,2.7967,2.8446,2.8727,2.9158,2.9502,2.9404,2.9345,2.9322,2.9257,2.92,0.0,2.8412,2.8007,0.0,2.5889,0.0,0.0,0.0,0.0,0.0,0.0,0.0,0.0,0.0,0.0,0.0,0.0,2.3806,0.0,0.0,0.0,0.0,0.0,0.0,2.3806,2.3806,2.3806,2.3806,0.0,0.0,2.4031,2.4556,2.5624,2.6457,2.6971,2.8081,2.8662,2.8694,2.8743,2.8834,2.894,2.8998,2.9085,2.9175,2.9222,2.9259,2.9343,2.9363,2.9443,2.954,2.956,2.956,2.9673,3.0468,3.1517,3.2739,2.5117,2.5743,0.0,0.0,2.5761,0.0,0.0,0.0,2.7513,0.0,2.757,2.7589,2.7627,2.7627,2.7627,2.7634,2.7634,2.7634,2.7634,2.7634,0.0,0.0,2.7627,2.7627,2.7627,0.0,0.0,0.0,0.0,0.0,0.0,0.0,0.0,0.0,2.7322,0.0,2.7307,2.7307,2.7299,2.7299,2.7299,2.7307,2.7307,2.7344,2.6849,2.6244,2.7062,2.7311,2.7401,2.8191,2.8453,2.8595,2.9355,2.9607,2.9598,2.9512,2.9463,2.9384,2.9314,2.9299,2.9262,2.9141,0.0,0.0,0.0,0.0,2.4921,0.0,0.0,0.0,0.0,0.0,0.0,0.0,0.0,0.0,0.0,0.0,0.0,0.0,0.0,0.0,0.0,2.3806,2.3806,2.3806,2.3806,2.3806,0.0,0.0,2.3806,2.3806,2.5353,2.6204,2.6204,2.787,2.8694,2.8706,2.8827,2.894,2.9005,2.9085,2.9186,2.9294,2.932,2.9353,2.9412,2.9482,2.955,2.9617,2.9673,2.971,2.9802,3.0603,3.1986,3.3562,2.6735,2.702,2.7096,0.0,2.7039,2.7172,0.0,0.0,0.0,0.0,2.8381,2.8643,2.9289,2.9372,2.938,2.9437,2.9425,0.0,0.0,0.0,0.0,2.9353,2.9372,2.933,2.9298,2.9271,0.0,2.9271,0.0,0.0,2.8381,0.0,0.0,0.0,0.0,2.7365,2.7365,2.7315,2.7299,2.7299,2.7299,2.7341,0.0,0.0,2.8132,2.7954,2.8194,2.8253,2.8368,2.9116,2.9362,2.939,2.9608,2.9664,2.9655,2.9598,2.955,2.9521,2.9412,2.9332,2.9289,2.92,2.8975,2.8507,0.0,0.0,0.0,0.0,0.0,0.0,0.0,0.0,0.0,0.0,0.0,0.0,0.0,0.0,0.0,2.3806,0.0,0.0,2.3806,2.3806,2.3806,2.3806,2.3806,2.3806,0.0,0.0,0.0,2.3806,2.5353,2.6227,2.6266,2.7894,2.8743,2.8858,2.8929,2.9017,2.9085,2.9203,2.927,2.9301,2.9412,2.9482,2.954,2.9626,2.9664,2.9672,2.9755,2.9799,2.9937,3.0695,3.1703,3.2815,2.7399,2.7771,0.0,2.8533,0.0,0.0,2.8074,2.8355,0.0,2.9208,2.9281,0.0,3.0,3.0038,3.0072,3.0095,3.0095,0.0,3.0095,0.0,0.0,3.0038,3.0038,3.0014,2.9948,2.9948,0.0,2.9897,0.0,0.0,2.9215,0.0,0.0,0.0,0.0,2.8482,2.8501,2.8458,2.8431,2.8431,2.8431,0.0,0.0,2.8993,2.9163,2.9163,2.9158,2.9152,2.9185,2.9593,2.9735,2.9745,2.9719,2.9701,2.9692,2.9655,2.9617,2.9578,2.9463,2.9384,2.9322,2.9222,2.9167,2.8887,2.7862,2.6991,2.6137,0.0,0.0,0.0,0.0,0.0,0.0,0.0,0.0,0.0,0.0,0.0,0.0,0.0,2.3806,0.0,2.3806,2.3806,2.3806,2.3806,2.3806,0.0,0.0,0.0,0.0,2.3806,2.5386,2.6254,2.6299,2.7954,2.8846,2.894,2.8998,2.9089,2.9192,2.927,2.9324,2.9394,2.954,2.9617,2.9645,2.9719,2.9746,2.9763,2.9823,2.9874,2.9991,3.0446,3.1164,3.2089,2.7805,2.8396,0.0,0.0,0.0,0.0,0.0,2.9535,0.0,3.0014,0.0,3.0102,3.0102,3.0102,3.0102,3.011,0.0,3.011,3.011,3.011,3.011,3.0102,3.0102,3.0061,3.0014,3.0014,2.9972,0.0,2.9905,2.9905,2.9897,0.0,0.0,0.0,0.0,0.0,0.0,2.9897,2.9897,2.9897,2.9897,2.9897,2.9897,2.9897,2.9897,2.9897,2.9897,2.9866,2.9798,2.9816,2.9816,2.9808,2.9726,2.9717,2.9699,2.9692,2.9655,2.9598,2.9512,2.9463,2.9382,2.9232,2.92,2.8972,2.8065,2.717,2.6301,2.5434,2.4563,2.3922,0.0,0.0,0.0,0.0,0.0,0.0,0.0,0.0,0.0,0.0,0.0,0.0,0.0,2.3806,2.3806,2.3806,2.3806,0.0,0.0,0.0,0.0,2.3816,2.543,0.0,2.634,0.0,2.894,2.9017,2.9089,2.9192,2.9304,2.9324,2.9404,2.9522,2.9655,2.9701,2.971,2.98,2.9825,2.9842,2.9891,2.9956,3.0022,3.0095,3.0563,3.1388,2.9421,2.9676,0.0,0.0,0.0,3.0023,2.9882,2.9985,3.0087,3.0087,3.0095,3.011,3.0094,3.0094,3.0109,3.0183,3.019,0.0,0.0,0.0,0.0,3.0094,3.0094,3.0079,3.0087,3.0087,3.0046,2.9972,2.9972,2.9956,2.9897,0.0,0.0,0.0,0.0,0.0,2.9897,2.9897,0.0,2.9897,2.9897,2.9897,2.9897,2.9897,2.9897,2.9897,2.9897,2.9888,2.9891,2.9876,2.9887,2.9859,2.9789,2.9735,2.9708,2.9699,2.9692,2.9655,2.9522,2.9492,2.9433,2.9243,2.92,2.9108,2.8769,2.8017,2.7139,2.6263,2.5408,2.4592,2.3922,0.0,0.0,0.0,0.0,0.0,0.0,0.0,0.0,0.0,0.0,2.3806,0.0,0.0,0.0,0.0,0.0,0.0,0.0,0.0,0.0,0.0,0.0,0.0,0.0,0.0,2.9028,2.9078,2.9214,2.9291,2.9304,2.9463,2.9598,2.9664,2.9691,2.9736,2.9782,2.9842,2.991,2.9975,2.9991,3.0022,3.0095,3.0161,3.0259,3.0519,2.9962,0.0,0.0,0.0,0.0,0.0,0.0,3.0154,0.0,3.0106,3.0121,3.0142,3.0157,3.0157,3.0164,3.0204,3.0211,3.0211,3.0211,3.0211,3.0197,3.0157,3.0157,3.0142,3.0106,3.0098,3.0083,3.0046,3.0046,3.0022,2.9956,0.0,0.0,2.9897,0.0,2.9897,0.0,0.0,0.0,2.9897,2.9897,2.9897,2.9897,2.9897,2.9897,2.9897,2.9897,2.9897,2.9888,2.9899,2.991,2.9883,2.9859,2.9816,2.9754,2.9717,2.9691,2.9664,2.954,2.9502,2.9453,2.9254,2.92,2.9156,2.8987,2.826,2.7358,2.6526,2.563,2.4755,2.394,2.3806,0.0,0.0,0.0,0.0,0.0,0.0,0.0,0.0,0.0,0.0,0.0,0.0,0.0,0.0,0.0,0.0,0.0,0.0,0.0,0.0,0.0,0.0,0.0,0.0,0.0,2.9195,2.928,2.9345,2.9463,2.9598,2.9673,2.9691,2.9771,2.9825,2.9851,2.9918,2.9991,3.0046,3.0042,3.0098,3.0169,3.0239,3.0266,3.0427,3.0102,3.011,0.0,0.0,3.0116,0.0,3.0185,3.0211,3.0178,3.0123,3.0171,3.0211,3.0211,3.0211,3.0211,3.0211,3.0211,3.0211,3.0211,3.0211,3.0211,3.0211,3.0211,3.0171,3.0116,3.0116,3.0101,0.0,3.011,3.0068,0.0,0.0,0.0,0.0,0.0,0.0,0.0,0.0,2.9897,2.9897,2.9897,2.9897,2.9897,2.9897,2.9897,2.9897,2.9897,2.9897,2.9897,2.9897,2.9897,2.9907,2.9901,2.9859,2.9816,2.9735,2.9709,2.9664,2.955,2.9502,2.9453,2.9254,2.92,2.9156,2.904,2.8411,2.7636,2.6815,2.5768,2.4755,2.394,2.3806,0.0,0.0,0.0,0.0,0.0,0.0,0.0,0.0,0.0,0.0,2.3917,0.0,0.0,0.0,0.0,2.3876,2.3917,2.3917,0.0,0.0,0.0,2.6635,2.6864,0.0,2.9203,0.0,2.9334,2.9453,2.9617,2.9683,2.9719,2.9744,2.9851,2.9912,2.9937,2.9991,3.0053,3.0125,3.0128,3.0152,3.0233,3.0312,3.0355,3.0498,0.0,0.0,0.0,0.0,0.0,0.0,3.0204,3.0211,3.0204,3.0185,3.0204,3.0211,3.0211,3.0211,3.0211,3.0211,3.0211,3.0211,3.0211,3.0211,3.0211,3.0211,3.0211,3.0204,3.0185,3.0185,3.0164,0.0,3.0101,3.0106,0.0,0.0,0.0,0.0,0.0,0.0,0.0,2.9897,2.9897,2.9897,2.9897,2.9897,2.9897,2.9897,2.9897,2.9897,2.9897,2.9897,2.9897,2.9897,2.9897,2.9897,2.9888,2.9901,2.9887,2.9816,2.9754,2.9672,2.9541,2.9502,2.9453,2.9254,2.92,2.9156,2.904,2.8885,2.8534,2.7672,2.6168,2.4755,2.394,2.3806,2.3806,0.0,0.0,0.0,0.0,0.0,2.3986,2.3986,0.0,0.0,0.0,0.0,0.0,0.0,2.3986,2.3986,2.3996,2.3996,2.4355,2.5147,0.0,2.6975,2.7771,2.8791,0.0,2.9304,2.9472,2.9617,2.9683,2.97,2.9771,2.9868,2.9895,2.9926,2.9999,3.0053,3.0132,3.0197,3.0185,3.0227,3.0298,3.0367,3.0439,3.0504,0.0,0.0,0.0,0.0,0.0,0.0,0.0,3.0211,3.0211,3.0211,3.0211,3.0211,3.0211,3.0211,3.0211,3.0211,3.0211,3.0211,3.0211,3.0211,3.0211,3.0211,3.0211,3.0211,3.0211,3.0211,3.0178,0.0,0.0,0.0,0.0,0.0,0.0,0.0,0.0,3.0022,3.0022,3.0022,3.0022,3.0022,3.0022,3.0022,3.0022,3.0022,3.0022,3.0014,2.9972,2.9956,2.9956,2.9905,2.9897,2.9897,2.9897,2.9891,2.9895,2.9816,2.9754,2.9672,2.9541,2.9502,2.9453,2.9254,2.92,2.9156,2.904,2.894,2.8667,2.7821,2.6301,2.5016,2.4688,2.4244,2.3917,0.0,0.0,0.0,0.0,0.0,0.0,2.3996,0.0,2.4026,0.0,0.0,0.0,0.0,0.0,2.4044,2.4132,2.4113,0.0,2.5387,0.0,2.71,2.8013,2.8872,2.9384,2.955,2.9626,2.9692,2.9755,2.9808,2.9876,2.9959,2.9959,3.0007,3.0064,3.0128,3.0171,3.02,3.0247,3.0299,3.0379,3.0442,3.0505,3.0568,3.0211,0.0,3.0211,0.0,3.0211,3.0211,3.0211,3.0211,3.0211,3.0211,3.0211,3.0211,3.0211,3.0211,3.0211,3.0211,3.0211,3.0307,3.0567,3.0586,3.0682,3.0911,3.0949,0.0,3.0949,3.0701,3.0586,3.0586,3.0326,0.0,0.0,0.0,0.0,0.0,3.0102,3.0095,3.0095,3.0095,3.0095,3.0095,3.0095,3.0095,3.0095,3.0095,3.0095,3.0095,3.0038,3.003,3.0022,2.9956,2.9932,2.9932,2.9916,2.9899,2.9885,2.9825,2.9763,2.969,2.9579,2.9531,2.9453,2.9267,2.9222,2.9167,2.9062,2.8975,2.8709,2.7867,2.6739,2.5754,2.528,2.4743,2.4269,2.4032,0.0,0.0,0.0,0.0,0.0,0.0,2.4075,2.4133,2.4228,0.0,0.0,0.0,0.0,0.0,0.0,0.0,0.0,0.0,0.0,0.0,0.0,2.9096,2.9512,2.9701,2.971,2.9755,2.9834,2.9893,2.9959,3.003,3.0038,3.0064,3.0123,3.0185,3.0214,3.026,3.0317,3.0371,3.0466,3.0515,3.0563,3.0645,3.0211,3.0211,3.0211,3.0211,3.0211,3.0211,3.0211,3.0211,3.0211,3.0211,3.0211,3.0211,3.0211,3.0211,3.0211,3.0211,3.0211,3.0567,3.1427,3.1484,3.1847,0.0,0.0,3.268,3.268,3.1878,3.1484,3.1484,0.0,0.0,3.0204,0.0,3.0101,3.0101,3.0091,3.0095,3.0095,3.0095,3.0095,3.0095,3.0095,3.0095,3.0095,3.0095,3.0095,3.0095,3.0095,3.0095,3.0087,3.0022,3.0007,2.9999,2.9932,2.9897,2.9899,2.9815,2.9808,2.9773,2.9636,2.955,2.9472,2.9324,2.9257,2.9178,2.91,2.9051,2.8755,2.7867,2.7627,2.7096,2.548,2.5189,2.4934,2.4124,0.0,0.0,0.0,0.0,0.0,2.4201,2.4257,2.4312,2.4294,0.0,0.0,0.0,0.0,0.0,0.0,0.0,0.0,2.6754,2.7629,0.0,2.9384,2.9589,2.9701,2.9711,2.9783,2.9834,2.9904,2.9967,3.003,3.0102,3.0106,3.015,3.0211,3.02,3.0273,3.0404,3.0404,3.0477,3.0598,3.0606,3.063,3.072,3.0211,3.0211,3.0211,3.0211,3.0211,3.0211,3.0211,3.0211,3.0211,3.0211,3.0211,3.0211,3.0211,3.0211,3.0433,0.0,3.1083,3.1446,0.0,3.2317,3.2432,3.2699,3.2699,3.2699,3.2699,3.2451,3.2317,3.2317,0.0,0.0,0.0,3.1882,3.1874,3.1874,3.1867,3.1867,3.1867,3.1867,3.1562,3.1046,3.1046,3.071,3.0176,3.0176,3.0176,3.015,3.0121,3.0106,3.0106,3.0087,3.0038,3.0007,2.9972,2.994,2.9907,2.9876,2.9834,2.9782,2.9692,2.9579,2.9472,2.9324,2.9257,2.9178,2.913,2.9051,2.892,2.8634,2.8127,2.7585,2.7072,2.6114,2.5319,2.5062,2.4587,0.0,0.0,0.0,0.0,0.0,2.4284,2.4339,0.0,2.4447,0.0,0.0,0.0,0.0,0.0,0.0,0.0,0.0,2.7849,0.0,2.9589,2.9664,2.9755,2.9835,2.9861,2.9901,2.9967,3.0049,3.0076,3.0094,3.015,3.0185,3.0207,3.0305,3.0355,3.041,3.0499,3.0559,3.0615,3.0657,3.0717,3.0769,3.0211,3.0211,3.0211,3.0211,3.0211,3.0211,3.0211,3.0211,3.0211,3.0211,3.0211,3.0211,3.0211,3.0491,0.0,3.1446,3.1503,3.1981,3.31,3.3196,3.331,3.3635,3.3635,3.3635,3.3635,0.0,0.0,3.3196,3.2852,3.2699,3.2699,3.2699,3.2699,3.2699,3.2699,3.2699,3.2699,3.2699,3.2413,3.1954,3.1954,3.1618,3.1102,3.0796,3.0663,3.0605,3.0252,3.015,3.0123,3.0106,3.0076,3.0026,3.0014,2.9964,2.9932,2.992,2.9842,2.979,2.9719,2.9589,2.9482,2.9394,2.9299,2.9218,2.9112,2.9051,2.9005,2.9005,2.8624,2.8198,2.7893,2.7064,2.6331,2.6036,2.5299,2.4764,2.4783,0.0,0.0,0.0,0.0,0.0,0.0,2.4803,0.0,0.0,0.0,0.0,0.0,0.0,0.0,2.7567,2.8426,0.0,2.9738,2.9754,2.9815,2.9901,2.9943,2.9991,3.0034,3.0083,3.0101,3.0145,3.0173,3.024,3.0273,3.038,3.0433,3.0483,3.0564,3.0623,3.0653,3.0701,3.0752,3.0794,3.0211,3.0211,0.0,0.0,3.0211,0.0,3.0211,3.0211,3.0211,3.0211,3.0211,3.023,3.028,3.1006,3.1541,3.1656,0.0,0.0,0.0,3.409,3.4426,3.5171,3.5209,3.5209,3.5209,3.4464,3.409,3.409,3.3272,3.2871,3.2871,3.2871,3.2871,3.2871,3.2871,3.2871,3.2871,3.2871,3.2833,3.2795,3.2795,3.2756,3.2623,3.1866,3.1541,3.1381,3.0586,3.0287,3.028,3.0142,3.0109,3.0094,3.0038,2.9996,2.9991,2.991,2.9851,2.978,2.9726,2.9608,2.9502,2.9502,2.939,2.9269,2.9141,2.9062,2.9017,2.9017,2.9055,2.8879,2.8132,2.8012,2.7758,2.7001,2.6169,2.5634,2.569,0.0,0.0,0.0,0.0,0.0,0.0,2.5456,2.5922,0.0,0.0,0.0,0.0,0.0,2.7573,2.8386,2.9266,2.9735,2.9816,2.9868,2.991,2.9924,3.0038,3.0098,3.0109,3.0109,3.0152,3.0214,3.0221,3.028,3.0404,3.0416,3.0488,3.0602,3.0615,3.0657,3.0704,3.0772,3.0796,3.0807,0.0,0.0,3.0211,3.0211,3.0211,3.0211,3.0211,3.0211,3.0211,3.0211,3.0211,3.0452,3.1121,3.1389,3.2019,3.3307,3.3421,3.3834,3.4846,3.4923,3.4999,3.519,3.5209,3.5209,3.5209,3.5018,3.4923,3.4923,3.4713,3.4609,3.4609,3.4609,3.4609,3.4609,3.4609,3.4609,3.4609,3.4609,3.4254,3.3681,3.3681,3.3299,3.268,3.2489,3.2413,3.2298,3.1484,3.1197,3.1083,3.0407,3.013,3.0101,3.0079,3.0034,2.9999,2.9916,2.9893,2.9851,2.9789,2.9719,2.9636,2.954,2.939,2.9291,2.9207,2.9156,2.9145,2.9145,2.9156,2.9112,2.8927,2.8458,2.8,2.7815,2.7186,2.6739,2.6748,2.6598,0.0,0.0,2.6501,2.6526,2.657,2.68,2.6954,0.0,0.0,0.0,0.0,2.8269,2.8336,2.8546,2.9399,2.9868,2.9883,2.9932,2.9999,3.0046,3.0072,3.0135,3.0171,3.0173,3.0214,3.0279,3.033,3.0361,3.041,3.0504,3.0569,3.0615,3.0665,3.0724,3.0772,3.0798,3.0807,3.08,3.0211,3.0211,3.0211,3.0211,3.0211,3.0211,3.0211,3.0211,3.0211,3.0211,3.0548,3.0968,3.1446,3.2172,3.3012,3.3918,3.3995,3.4331,3.5152,3.5209,3.5209,3.5209,3.5209,3.5209,3.5209,3.5209,3.5209,3.5209,3.5209,3.5209,3.5209,3.5209,3.5209,3.5209,3.5209,3.5209,3.5209,3.5209,3.4961,3.4541,3.4541,3.4273,3.3807,3.3425,3.3299,3.3184,3.2355,3.205,3.1916,3.1083,3.0744,3.0627,3.0223,3.0072,3.0026,2.9964,2.9926,2.9895,2.9816,2.9756,2.9655,2.9511,2.9372,2.9296,2.9262,2.9229,2.92,2.92,2.9211,2.9251,2.9246,2.8949,2.8693,2.8742,2.8129,2.7661,2.7697,2.7388,0.0,2.7186,2.7184,2.7209,2.7244,2.7635,2.7894,2.7897,0.0,0.0,2.9209,2.9244,2.9236,2.9196,2.9672,2.9959,2.998,3.0019,3.0057,3.0098,3.013,3.0166,3.0206,3.0221,3.0286,3.0356,3.0386,3.0439,3.0493,3.0569,3.0628,3.0642,3.0727,3.0777,3.0798,3.0808,3.08,3.0795,3.0211,3.0211,3.0211,3.0211,3.0211,3.0211,3.0211,3.0211,3.0249,3.0376,3.1045,3.1599,3.1847,3.3146,3.4052,3.4167,3.4186,3.4464,3.5171,3.5209,3.5209,3.5209,3.5209,3.5209,3.5209,3.5209,3.5209,3.5209,3.5209,3.5209,3.5209,3.5209,3.5209,3.5209,3.5209,3.5209,3.5209,3.5209,3.5209,3.5209,3.5209,3.5209,3.5133,3.4445,3.4186,3.4063,3.3215,3.2909,3.2776,3.1962,3.163,3.1469,3.0734,3.049,3.0437,3.0255,3.0157,3.0063,2.9872,2.9765,2.9655,2.9481,2.9373,2.9322,2.9326,2.9272,2.9232,2.9232,2.9283,2.9326,2.9332,2.9384,2.9453,2.9512,2.8952,2.854,2.8594,0.0,2.7612,2.7668,2.7684,2.7692,2.7692,2.8369,2.8809,2.8815,2.9512,2.9962,0.0,3.0022,2.998,2.9929,2.9999,3.0038,3.0102,3.0101,3.0123,3.0123,3.0187,3.0221,3.0227,3.0286,3.0343,3.0421,3.0427,3.0493,3.0592,3.0604,3.0645,3.071,3.0777,3.0799,3.0809,3.0801,3.0794,3.0809,3.0211,3.0211,3.0211,3.0211,3.0211,3.0211,3.0211,3.0211,3.0452,3.1197,3.1427,3.2038,3.346,3.3842,3.4273,3.4961,3.5018,3.5076,3.519,3.5209,3.5209,3.5209,3.5209,3.5209,3.5209,3.5209,3.5209,3.5209,3.5209,3.5209,3.5209,3.5209,3.5209,3.5209,3.5209,3.5209,3.5209,3.5209,3.5209,3.5209,3.5209,3.5209,3.519,3.5057,3.5018,3.4904,3.4082,3.3796,3.3662,3.2795,3.2508,3.247,3.2348,3.2249,3.2073,3.1379,3.1145,3.0905,3.0101,2.9792,2.9692,2.9598,2.9521,2.9453,2.9392,2.9372,2.9372,2.9372,2.9372,2.9402,2.9463,2.9531,2.9598,2.9655,2.9551,2.9502,2.9565,0.0,2.9394,2.9403,2.9465,2.9498,2.9498,2.9677,2.9774,2.9782,2.9954,3.0072,3.0087,3.0087,3.0076,3.0072,3.0076,3.0083,3.0094,3.0159,3.0174,3.0194,3.026,3.028,3.0292,3.0355,3.0427,3.0493,3.0535,3.0588,3.0602,3.0656,3.073,3.0796,3.0801,3.081,3.0801,3.0793,3.0807,3.0786,3.0211,3.0211,3.0211,3.0211,3.0211,3.0211,3.0211,3.0567,3.1006,3.1446,3.2286,3.3146,3.3918,3.4412,3.484,3.5223,3.5239,3.5254,3.5254,3.5215,3.5209,3.5209,3.5209,3.5209,3.5209,3.5209,3.5209,3.5209,3.5209,3.5209,3.5209,3.5209,3.5209,3.5209,3.5209,3.5209,3.5209,3.5209,3.5209,3.5209,3.5209,3.5209,3.5209,3.5209,3.5209,3.5152,3.4789,3.4655,3.4522,3.3681,3.3394,3.3318,3.2852,3.2684,3.2581,3.2165,3.1336,3.0452,3.0015,2.9835,2.9747,2.9664,2.9636,2.9579,2.9472,2.9453,2.9453,2.9453,2.9453,2.9482,2.9589,2.9636,2.9673,2.9747,2.9745,0.0,0.0,2.9851,2.9851,2.9849,2.9899,2.9951,2.9951,3.0007,3.0046,3.0046,3.0087,3.0102,3.0098,3.0106,3.0121,3.0157,3.0142,3.015,3.014,3.0174,3.0221,3.0241,3.0318,3.0349,3.0367,3.0411,3.0485,3.0569,3.0597,3.0625,3.066,3.0733,3.0762,3.0801,3.079,3.0801,3.0793,3.0807,3.0784,3.073,3.0211,3.0211,3.0211,3.0211,3.0192,3.0275,3.0466,3.1047,3.1609,3.2048,3.3215,3.4094,3.4286,3.4902,3.53,3.53,3.5293,3.5308,3.5308,3.5254,3.5215,3.5215,3.5215,3.5215,3.5215,3.5215,3.5215,3.5215,3.5215,3.5215,3.5215,3.5215,3.5215,3.5218,3.5218,3.5218,3.5209,3.5209,3.5209,3.5209,3.5209,3.5209,3.5209,3.5209,3.5209,3.5209,3.5209,3.5209,3.5114,3.4483,3.4273,3.4159,3.3482,3.3272,3.3226,3.2993,3.1789,3.0525,3.0486,3.0435,3.0336,3.0085,3.002,2.9945,2.9616,2.955,2.955,2.955,2.955,2.9579,2.9701,2.9719,2.9747,2.9808,0.0,0.0,0.0,2.991,2.9926,2.9948,2.998,3.0022,3.0022,3.0061,3.011,3.011,3.0117,3.0113,3.0116,3.0116,3.0157,3.0199,3.0199,3.0213,3.0221,3.0215,3.026,3.0311,3.0392,3.0402,3.0439,3.0495,3.055,3.0606,3.0629,3.0664,3.0722,3.0784,3.0803,3.0791,3.0801,3.0793,3.0806,3.0784,3.0727,3.0634,3.0211,3.0211,3.0211,3.0211,3.0194,3.0475,3.1292,3.1511,3.2133,3.3705,3.4031,3.4388,3.5128,3.5262,3.53,3.53,3.5308,3.5308,3.5308,3.53,3.5281,3.5281,3.5281,3.5281,3.5281,3.5281,3.5281,3.5281,3.5281,3.5281,3.5281,3.5281,3.5278,3.5285,3.5285,3.5261,3.5209,3.5209,3.5209,3.5209,3.5209,3.5209,3.5209,3.5209,3.5209,3.5209,3.5209,3.5209,3.519,3.5133,3.5114,3.5095,3.5037,3.5018,3.4866,3.412,3.3191,3.2365,3.2241,3.2209,3.2013,3.1194,3.0996,3.0762,2.9889,2.9692,2.9692,2.9692,2.9692,2.9701,2.9782,2.979,2.9816,2.9887,0.0,0.0,2.9991,2.9999,3.0014,3.008,3.0087,3.0095,3.0095,3.0098,3.0101,3.0101,3.0157,3.0185,3.0185,3.0185,3.0199,3.0207,3.0207,3.0227,3.0286,3.0279,3.0329,3.0398,3.0394,3.0439,3.0486,3.0559,3.0595,3.0595,3.0674,3.0725,3.0798,3.0807,3.0792,3.0801,3.0792,3.0804,3.0782,3.0724,3.063,3.0496,3.0194,3.0194,3.0379,3.0962,3.1071,3.1346,3.2177,3.2785,3.3386,3.4019,3.4529,3.497,3.527,3.533,3.5364,3.5364,3.5405,3.542,3.542,3.542,3.5398,3.5289,3.5308,3.5308,3.5308,3.5308,3.5308,3.5308,3.5308,3.5308,3.5308,3.5308,3.53,3.5304,3.5304,3.5297,3.5262,3.5258,3.5269,3.5261,3.5218,3.5209,3.5209,3.5209,3.5209,3.5209,3.5209,3.5209,3.5209,3.5209,3.5209,3.5209,3.5209,3.5209,3.5152,3.4827,3.4489,3.42,3.4158,3.3329,3.2367,3.2001,3.1909,3.1797,3.1403,3.1308,3.1308,3.1308,3.0913,3.0573,3.0598,3.0189,2.9883,2.9951,0.0,3.0033,3.0065,3.0053,3.008,3.0095,3.0098,3.0106,3.0106,3.0142,3.0164,3.0164,3.0197,3.0199,3.0194,3.024,3.0266,3.026,3.0299,3.0324,3.0305,3.0336,3.0365,3.0394,3.0485,3.0535,3.0549,3.0625,3.0653,3.0675,3.0737,3.0776,3.0791,3.0793,3.0801,3.0792,3.0804,3.076,3.0724,3.0626,3.0511,3.0417,3.0591,3.0636,3.0918,3.1814,3.1993,3.2275,3.3081,3.3721,3.4227,3.4489,3.5026,3.5364,3.5364,3.5405,3.5427,3.5427,3.5467,3.55,3.55,3.55,3.546,3.5364,3.5364,3.5364,3.5364,3.5364,3.5364,3.5364,3.5364,3.5364,3.5364,3.5364,3.5357,3.533,3.533,3.5323,3.5308,3.5297,3.53,3.5304,3.5261,3.5218,3.5209,3.5209,3.5209,3.5209,3.5209,3.5209,3.5209,3.5209,3.5209,3.5209,3.5209,3.5209,3.5209,3.5209,3.5204,3.5198,3.5198,3.4289,3.327,3.2931,3.284,3.2738,3.241,3.2325,3.2335,3.2317,3.1891,3.1503,3.1547,3.1116,3.0674,3.044,3.0453,3.0388,3.0148,3.0091,3.0117,3.0132,3.0135,3.0123,3.0123,3.0171,3.0211,3.0211,3.0199,3.0213,3.0227,3.0286,3.0305,3.0336,3.0385,3.0383,3.0364,3.0414,3.0436,3.0455,3.0564,3.0615,3.0633,3.0687,3.071,3.0725,3.0782,3.0792,3.0793,3.0801,3.0791,3.0803,3.0779,3.0714,3.0614,3.0496,3.0375,3.026,3.143,3.1603,3.1852,3.2664,3.2877,3.3185,3.3998,3.416,3.4526,3.5385,3.55,3.55,3.55,3.55,3.55,3.55,3.55,3.55,3.55,3.55,3.55,3.55,3.55,3.55,3.55,3.55,3.55,3.55,3.55,3.55,3.55,3.55,3.546,3.5405,3.5405,3.5364,3.5308,3.5308,3.5304,3.5312,3.5312,3.5261,3.5209,3.5209,3.5209,3.5209,3.5209,3.5209,3.5209,3.5209,3.5209,3.5209,3.5209,3.5209,3.5209,3.5209,3.5209,3.5209,3.5209,3.5196,3.4982,3.4044,3.3817,3.3572,3.2631,3.2424,3.2415,3.2419,3.2416,3.2433,3.2505,3.2556,3.2322,3.1446,3.1313,3.1035,3.0216,3.0101,3.0142,3.0185,3.0211,3.0211,3.0211,3.0211,3.0211,3.0211,3.0194,3.0227,3.0305,3.0305,3.0342,3.0404,3.04,3.0425,3.0496,3.0495,3.053,3.0598,3.0606,3.0633,3.0694,3.0707,3.0747,3.0804,3.0792,3.0793,3.0801,3.079,3.0801,3.0794,3.0717,3.0625,3.0481,3.0352,3.0176,2.9977,3.2339,3.2519,3.2775,3.3634,3.3795,3.4109,3.4948,3.5089,3.5212,3.5462,3.55,3.55,3.55,3.55,3.55,3.55,3.55,3.55,3.55,3.55,3.55,3.55,3.55,3.55,3.55,3.55,3.55,3.55,3.55,3.55,3.55,3.55,3.5493,3.5467,3.5467,3.546,3.5446,3.5379,3.5364,3.5369,3.532,3.5285,3.527,3.527,3.5273,3.5269,3.5269,3.5234,3.5209,3.5209,3.5209,3.5209,3.5261,3.5273,3.527,3.527,3.527,3.527,3.5277,3.5261,3.5198,3.4857,3.4757,3.4627,3.4362,3.4296,3.4296,3.4298,3.3812,3.3384,3.342,3.2959,3.2515,3.2248,3.2252,3.2,3.1195,3.108,3.0858,3.0261,3.0211,3.0211,3.0211,3.0206,3.02,3.02,3.0241,3.0279,3.0311,3.034,3.0375,3.04,3.049,3.055,3.0564,3.0579,3.0578,3.0604,3.0661,3.0688,3.0709,3.0745,3.0776,3.08,3.0795,3.0801,3.0809,3.0799,3.0774,3.0714,3.0597,3.0486,3.0346,3.0169,2.9996,2.983,3.3243,3.3423,3.3698,3.4564,3.4718,3.4891,3.5423,3.55,3.55,3.55,3.55,3.55,3.55,3.55,3.55,3.55,3.55,3.55,3.55,3.55,3.55,3.55,3.55,3.55,3.55,3.55,3.55,3.55,3.55,3.55,3.55,3.55,3.55,3.55,3.55,3.55,3.55,3.546,3.542,3.5405,3.5364,3.5323,3.5308,3.5308,3.5293,3.5297,3.5297,3.5273,3.5239,3.5239,3.5239,3.5239,3.5281,3.5312,3.5308,3.5308,3.5308,3.53,3.5297,3.5297,3.5281,3.5253,3.5196,3.5145,3.5147,3.5138,3.5138,3.512,3.471,3.4338,3.4338,3.3961,3.3516,3.3211,3.3188,3.2909,3.2088,3.1675,3.1274,3.0777,3.0409,3.0206,3.0206,3.0214,3.0241,3.0235,3.0292,3.0348,3.034,3.0411,3.0444,3.0485,3.0554,3.0616,3.0636,3.0645,3.0637,3.0642,3.072,3.0739,3.0733,3.0786,3.0807,3.0798,3.08,3.0809,3.0799,3.0774,3.0707,3.0602,3.0467,3.0322,3.0161,2.9965,2.9769,2.9598,3.4148,3.4321,3.4564,3.5365,3.55,3.55,3.55,3.55,3.55,3.55,3.55,3.55,3.55,3.55,3.55,3.55,3.55,3.55,3.55,3.55,3.55,3.55,3.55,3.55,3.55,3.55,3.55,3.55,3.55,3.55,3.55,3.55,3.55,3.55,3.55,3.55,3.55,3.55,3.546,3.5412,3.5412,3.5372,3.5315,3.5315,3.5315,3.5315,3.5315,3.5308,3.5308,3.5308,3.5289,3.5315,3.5315,3.5315,3.5315,3.5315,3.5315,3.5315,3.5315,3.5315,3.5315,3.5308,3.5254,3.5209,3.5206,3.5208,3.5172,3.511,3.5155,3.5208,3.5208,3.5196,3.4961,3.4224,3.4109,3.3804,3.2955,3.2141,3.1644,3.1632,3.0851,3.0329,3.0329,3.0311,3.0292,3.031,3.0373,3.0402,3.0403,3.0474,3.0535,3.0602,3.0607,3.0636,3.0697,3.0714,3.0704,3.0704,3.0769,3.08,3.0804,3.0791,3.08,3.08,3.0808,3.0798,3.0789,3.0711,3.0597,3.0471,3.0334,3.0154,2.9948,2.9744,2.9504,2.928,3.5045,3.5212,3.5269,3.5462,3.55,3.55,3.55,3.55,3.55,3.55,3.55,3.55,3.55,3.55,3.55,3.55,3.55,3.55,3.55,3.55,3.55,3.55,3.55,3.55,3.55,3.55,3.55,3.55,3.55,3.55,3.55,3.55,3.55,3.55,3.55,3.55,3.55,3.55,3.5493,3.5486,3.5486,3.5467,3.546,3.546,3.542,3.5372,3.5372,3.5338,3.5308,3.5308,3.533,3.5372,3.5372,3.5412,3.546,3.546,3.546,3.5453,3.5379,3.5372,3.5364,3.5315,3.5293,3.527,3.5269,3.5237,3.5212,3.5176,3.5185,3.5193,3.5193,3.5201,3.516,3.5039,3.5028,3.4737,3.3906,3.3626,3.3262,3.2598,3.18,3.1302,3.1302,3.0695,3.0316,3.0375,3.0381,3.0428,3.0476,3.0545,3.0583,3.0608,3.0649,3.069,3.0691,3.075,3.0784,3.0786,3.0792,3.0795,3.0793,3.08,3.0798,3.0807,3.0796,3.0769,3.0707,3.0589,3.0456,3.0328,3.0133,2.9937,2.9725,2.9484,2.928,2.9112,3.5404,3.55,3.55,3.55,3.55,3.55,3.55,3.55,3.55,3.55,3.55,3.55,3.55,3.55,3.55,3.55,3.55,3.55,3.55,3.55,3.55,3.55,3.55,3.55,3.55,3.55,3.55,3.55,3.55,3.55,3.55,3.55,3.55,3.55,3.55,3.55,3.55,3.55,3.55,3.55,3.55,3.55,3.55,3.55,3.5486,3.5453,3.5453,3.5439,3.5405,3.5405,3.542,3.5453,3.5453,3.5467,3.55,3.55,3.55,3.5493,3.546,3.5453,3.5446,3.5405,3.5372,3.5342,3.5304,3.5262,3.5246,3.5246,3.5246,3.5246,3.5246,3.5246,3.5254,3.5297,3.5297,3.5151,3.4733,3.4338,3.3923,3.3463,3.2709,3.2058,3.1674,3.0859,3.0389,3.0433,3.0485,3.051,3.0554,3.0601,3.0645,3.0657,3.0678,3.0716,3.0752,3.0788,3.0791,3.0804,3.0808,3.0796,3.0801,3.0796,3.0801,3.0796,3.0767,3.0704,3.0586,3.0462,3.0303,3.0148,2.9945,2.9707,2.9484,2.928,2.9048,2.8773,3.55,3.55,3.55,3.55,3.55,3.55,3.55,3.55,3.55,3.55,3.55,3.55,3.55,3.55,3.55,3.55,3.55,3.55,3.55,3.55,3.55,3.55,3.55,3.55,3.55,3.55,3.55,3.55,3.55,3.55,3.55,3.55,3.55,3.55,3.55,3.55,3.55,3.55,3.55,3.55,3.55,3.55,3.55,3.55,3.55,3.55,3.55,3.55,3.55,3.55,3.55,3.55,3.55,3.55,3.55,3.55,3.55,3.55,3.55,3.55,3.55,3.55,3.546,3.5405,3.5357,3.5315,3.5308,3.5308,3.5308,3.5308,3.5308,3.5308,3.5289,3.5315,3.5315,3.5323,3.533,3.4762,3.434,3.434,3.3626,3.2744,3.1798,3.1058,3.0612,3.0514,3.0574,3.0607,3.0621,3.068,3.0703,3.073,3.0722,3.0738,3.0792,3.0798,3.0795,3.08,3.0801,3.08,3.0793,3.0796,3.0788,3.0784,3.0704,3.0606,3.0462,3.034,3.0155,2.9946,2.9742,2.9504,2.927,2.906,2.8755,2.8388,3.55,3.55,3.55,3.55,3.55,3.55,3.55,3.55,3.55,3.55,3.55,3.55,3.55,3.55,3.55,3.55,3.55,3.55,3.55,3.55,3.55,3.55,3.55,3.55,3.55,3.55,3.55,3.55,3.55,3.55,3.55,3.55,3.55,3.55,3.55,3.55,3.55,3.55,3.55,3.55,3.55,3.55,3.55,3.55,3.55,3.55,3.55,3.55,3.55,3.55,3.55,3.55,3.55,3.55,3.55,3.55,3.55,3.55,3.55,3.55,3.55,3.55,3.5493,3.5474,3.5486,3.5379,3.5308,3.5308,3.5308,3.5308,3.5308,3.5308,3.5323,3.5372,3.5398,3.5412,3.546,3.5371,3.5313,3.5313,3.4546,3.3416,3.1842,3.1659,3.133,3.0641,3.0593,3.0634,3.0672,3.0697,3.0727,3.0789,3.0798,3.0785,3.0806,3.0798,3.08,3.0793,3.0799,3.0809,3.0804,3.0802,3.0762,3.0704,3.0582,3.0482,3.0396,3.0214,3.0004,2.9809,2.9608,2.9402,2.9167,2.8743,2.8406,2.8122,3.55,3.55,3.55,3.55,3.55,3.55,3.55,3.55,3.55,3.55,3.55,3.55,3.55,3.55,3.55,3.55,3.55,3.55,3.55,3.5923,3.6173,3.6173,3.6173,3.6173,3.6173,3.5731,3.55,3.55,3.55,3.55,3.55,3.55,3.55,3.55,3.55,3.55,3.55,3.55,3.55,3.55,3.55,3.55,3.55,3.55,3.55,3.55,3.55,3.55,3.55,3.55,3.55,3.55,3.55,3.55,3.55,3.55,3.55,3.55,3.55,3.55,3.55,3.55,3.55,3.55,3.55,3.5453,3.5412,3.5412,3.5412,3.5412,3.5412,3.5412,3.542,3.5453,3.546,3.546,3.55,3.55,3.5507,3.5495,3.4764,3.399,3.3272,3.2355,3.1676,3.1353,3.0905,3.0665,3.0698,3.0731,3.0779,3.0802,3.0794,3.0791,3.0798,3.0799,3.0808,3.0807,3.0759,3.0745,3.0733,3.0734,3.0697,3.0578,3.0496,3.0377,3.0266,3.0038,2.9847,2.9654,2.9423,2.9127,2.8767,2.8458,2.8164,2.7893]}]]